[[{"header":{"parameterUnit":"m.s-1","parameterCategory":1,"la1":31.0,"la2":29.5877,"lo1":-88.7671,"lo2":-86.6584,"dy":0.0162,"dx":0.0185,"nx":115,"ny":88,"refTime":"2024-03-14T00:00:00:Z","depth":0,"parameterNumber":2,"parameterNumberName":"U-component_of_WINDS"},"data":[0.0,0.0,0.0,0.0,0.0,0.0,0.0,0.0,0.0,0.0,0.0,0.0,0.0,0.0,0.0,0.0,0.0,0.0,0.0,0.0,0.0,0.0,0.0,0.0,0.0,0.0,0.0,0.0,0.0,0.0,0.0,0.0,0.0,0.0,0.0,0.0,0.0,0.0,0.0,0.0,0.0,0.0,0.0,0.0,0.0,0.0,0.0,0.0,0.0,0.0,0.0,0.0,0.0,0.0,0.0,0.0,0.0,0.0,0.0,0.0,0.0,0.0,0.0,0.0,0.0,0.0,0.0,0.0,0.0,0.0,0.0,0.0,0.0,0.0,0.0,0.0,0.0,0.0,0.0,0.0,0.0,0.0,0.0,0.0,0.0,0.0,0.0,0.0,0.0,0.0,0.0,0.0,0.0,0.0,0.0,0.0,0.0,0.0,0.0,0.0,0.0,0.0,0.0,0.0,0.0,0.0,0.0,0.0,0.0,0.0,0.0,0.0,0.0,0.0,0.0,0.0,0.0,0.0,0.0,0.0,0.0,0.0,0.0,0.0,0.0,0.0,0.0,0.0,0.0,0.0,0.0,0.0,0.0,0.0,0.0,0.0,0.0,0.0,0.0,0.0,0.0,0.0,0.0,0.0,0.0,0.0,0.0,0.0,0.0,0.0,0.0,0.0,0.0,0.0,0.0,0.0,0.0,0.0,0.0,0.0,0.0,0.0,0.0,0.0,0.0,0.0,0.0,0.0,0.0,0.0,0.0,0.0,0.0,0.0,0.0,0.0,0.0,0.0,0.0,0.0,0.0,0.0,0.0,0.0,0.0,0.0,0.0,0.0,0.0,0.0,0.0,0.0,0.0,0.0,0.0,0.0,0.0,0.0,0.0,0.0,0.0,0.0,0.0,0.0,0.0,0.0,0.0,0.0,0.0,0.0,0.0,0.0,0.0,0.0,0.0,0.0,0.0,0.0,0.0,0.0,0.0,0.0,0.0,0.0,0.0,0.0,0.0,0.0,0.0,0.0,0.0,0.0,0.0,0.0,0.0,0.0,0.0,0.0,0.0,0.0,0.0,0.0,0.0,0.0,0.0,0.0,0.0,0.0,0.0,0.0,0.0,0.0,0.0,0.0,0.0,0.0,0.0,0.0,0.0,0.0,0.0,0.0,0.0,0.0,0.0,0.0,0.0,0.0,0.0,0.0,0.0,0.0,0.0,0.0,0.0,0.0,0.0,0.0,0.0,0.0,0.0,0.0,0.0,0.0,0.0,0.0,0.0,0.0,0.0,0.0,0.0,0.0,0.0,0.0,0.0,0.0,0.0,0.0,0.0,0.0,0.0,0.0,0.0,0.0,0.0,0.0,0.0,0.0,0.0,0.0,0.0,0.0,0.0,0.0,0.0,0.0,0.0,0.0,0.0,0.0,0.0,0.0,0.0,0.0,0.0,0.0,0.0,0.0,0.0,0.0,0.0,0.0,0.0,0.0,0.0,0.0,0.0,0.0,0.0,0.0,0.0,0.0,0.0,0.0,0.0,0.0,0.0,0.0,0.0,0.0,0.0,0.0,0.0,0.0,0.0,0.0,0.0,0.0,0.0,0.0,0.0,0.0,0.0,0.0,0.0,0.0,0.0,0.0,0.0,0.0,0.0,0.0,0.0,0.0,0.0,0.0,0.0,0.0,0.0,0.0,0.0,0.0,0.0,0.0,0.0,0.0,0.0,0.0,0.0,0.0,0.0,0.0,0.0,0.0,0.0,0.0,0.0,0.0,0.0,0.0,0.0,0.0,0.0,0.0,0.0,0.0,0.0,0.0,0.0,0.0,0.0,0.0,0.0,0.0,0.0,0.0,0.0,0.0,0.0,0.0,0.0,0.0,0.0,0.0,0.0,0.0,0.0,0.0,0.0,0.0,0.0,0.0,0.0,0.0,0.0,0.0,0.0,0.0,0.0,0.0,0.0,0.0,0.0,0.0,0.0,0.0,0.0,0.0,0.0,0.0,0.0,0.0,0.0,0.0,0.0,0.0,0.0,0.0,0.0,0.0,0.0,0.0,0.0,0.0,0.0,0.0,0.0,0.0,0.0,0.0,0.0,0.0,0.0,0.0,0.0,0.0,0.0,0.0,0.0,0.0,0.0,0.0,0.0,0.0,0.0,0.0,0.0,0.0,0.0,0.0,0.0,0.0,0.0,0.0,0.0,0.0,0.0,0.0,0.0,0.0,0.0,0.0,0.0,0.0,0.0,0.0,0.0,0.0,0.0,0.0,0.0,0.0,0.0,0.0,0.0,0.0,0.0,0.0,0.0,0.0,0.0,0.0,0.0,0.0,0.0,0.0,0.0,0.0,0.0,0.0,0.0,0.0,0.0,0.0,0.0,0.0,0.0,0.0,0.0,0.0,0.0,0.0,0.0,0.0,0.0,0.0,0.0,0.0,0.0,0.0,0.0,0.0,0.0,0.0,0.0,0.0,0.0,0.0,0.0,0.0,0.0,0.0,0.0,0.0,0.0,0.0,0.0,0.0,0.0,0.0,0.0,0.0,0.0,0.0,0.0,0.0,0.0,0.0,0.0,0.0,0.0,0.0,0.0,0.0,0.0,0.0,0.0,0.0,0.0,0.0,0.0,0.0,0.0,0.0,0.0,0.0,0.0,0.0,0.0,0.0,0.0,0.0,0.0,0.0,0.0,0.0,0.0,0.0,0.0,0.0,0.0,0.0,0.0,0.0,0.0,0.0,0.0,0.0,0.0,0.0,0.0,0.0,0.0,0.0,0.0,0.0,0.0,0.0,0.0,0.0,0.0,0.0,0.0,0.0,0.0,0.0,0.0,0.0,0.0,0.0,0.0,0.0,0.0,0.0,0.0,0.0,0.0,0.0,0.0,0.0,0.0,0.0,0.0,0.0,0.0,0.0,0.0,0.0,0.0,0.0,0.0,0.0,0.0,0.0,0.0,0.0,0.0,0.0,0.0,0.0,0.0,0.0,0.0,0.0,0.0,0.0,0.0,0.0,0.0,0.0,0.0,0.0,0.0,0.0,0.0,0.0,0.0,0.0,0.0,0.0,0.0,0.0,0.0,0.0,0.0,0.0,0.0,0.0,0.0,0.0,0.0,0.0,0.0,0.0,0.0,0.0,0.0,0.0,0.0,0.0,0.0,0.0,0.0,0.0,0.0,0.0,0.0,0.0,0.0,0.0,0.0,0.0,0.0,0.0,0.0,0.0,0.0,0.0,0.0,0.0,0.0,0.0,0.0,0.0,0.0,0.0,0.0,0.0,0.0,0.0,0.0,0.0,0.0,0.0,0.0,0.0,0.0,0.0,0.0,0.0,0.0,0.0,0.0,0.0,0.0,0.0,0.0,0.0,0.0,0.0,0.0,0.0,0.0,0.0,0.0,0.0,0.0,0.0,0.0,0.0,0.0,0.0,0.0,0.0,0.0,0.0,0.0,0.0,0.0,0.0,0.0,0.0,0.0,0.0,0.0,0.0,0.0,0.0,0.0,0.0,0.0,0.0,0.0,0.0,0.0,0.0,0.0,0.0,0.0,0.0,0.0,0.0,0.0,0.0,0.0,0.0,0.0,0.0,0.0,0.0,0.0,0.0,0.0,0.0,0.0,0.0,0.0,0.0,0.0,0.0,0.0,0.0,0.0,0.0,0.0,0.0,0.0,0.0,0.0,0.0,0.0,0.0,0.0,0.0,0.0,0.0,0.0,0.0,0.0,0.0,0.0,0.0,0.0,0.0,0.0,0.0,0.0,0.0,0.0,0.0,0.0,0.0,0.0,0.0,0.0,0.0,0.0,0.0,0.0,0.0,0.0,0.0,0.0,0.0,0.0,0.0,0.0,0.0,0.0,0.0,0.0,0.0,0.0,0.0,0.0,0.0,0.0,0.0,0.0,0.0,0.0,0.0,0.0,0.0,0.0,0.0,0.0,0.0,0.0,0.0,0.0,0.0,0.0,0.0,0.0,0.0,0.0,0.0,0.0,0.0,0.0,0.0,0.0,0.0,0.0,0.0,0.0,0.0,0.0,0.0,0.0,0.0,0.0,0.0,0.0,0.0,0.0,0.0,0.0,0.0,0.0,0.0,0.0,0.0,0.0,0.0,0.0,0.0,0.0,0.0,0.0,0.0,0.0,0.0,0.0,0.0,0.0,0.0,0.0,0.0,0.0,0.0,0.0,0.0,0.0,0.0,0.0,0.0,0.0,0.0,0.0,0.0,0.0,0.0,0.0,0.0,0.0,0.0,0.0,0.0,0.0,0.0,0.0,0.0,0.0,0.0,-2.4864,0.0,0.0,0.0,0.0,0.0,0.0,0.0,0.0,0.0,0.0,0.0,0.0,0.0,0.0,0.0,0.0,0.0,0.0,0.0,0.0,0.0,0.0,0.0,0.0,0.0,0.0,0.0,0.0,0.0,0.0,0.0,0.0,0.0,0.0,0.0,0.0,0.0,0.0,0.0,0.0,0.0,0.0,0.0,0.0,0.0,0.0,0.0,0.0,0.0,0.0,0.0,0.0,0.0,0.0,0.0,0.0,0.0,0.0,0.0,0.0,0.0,0.0,0.0,0.0,0.0,0.0,0.0,0.0,0.0,0.0,0.0,0.0,0.0,0.0,0.0,0.0,0.0,0.0,0.0,0.0,0.0,0.0,0.0,0.0,0.0,0.0,0.0,0.0,0.0,0.0,0.0,0.0,0.0,0.0,0.0,0.0,0.0,0.0,0.0,0.0,0.0,0.0,0.0,0.0,0.0,0.0,0.0,0.0,0.0,0.0,-2.5685,-2.6043,-2.6313,-2.6307,-2.5917,0.0,0.0,0.0,0.0,0.0,0.0,0.0,0.0,0.0,0.0,0.0,0.0,0.0,0.0,0.0,0.0,0.0,0.0,0.0,0.0,0.0,0.0,0.0,0.0,0.0,0.0,0.0,0.0,0.0,0.0,0.0,0.0,0.0,0.0,0.0,0.0,0.0,0.0,0.0,0.0,0.0,0.0,0.0,0.0,0.0,0.0,0.0,0.0,0.0,0.0,0.0,0.0,0.0,0.0,0.0,0.0,0.0,0.0,0.0,0.0,0.0,0.0,0.0,0.0,0.0,0.0,0.0,0.0,0.0,0.0,0.0,0.0,0.0,0.0,0.0,0.0,0.0,0.0,0.0,0.0,0.0,0.0,0.0,0.0,0.0,0.0,0.0,0.0,0.0,0.0,0.0,0.0,0.0,0.0,0.0,0.0,0.0,0.0,0.0,0.0,0.0,0.0,0.0,0.0,0.0,0.0,0.0,0.0,0.0,0.0,0.0,0.0,-2.6995,-2.6819,-2.6277,0.0,0.0,0.0,0.0,0.0,0.0,0.0,0.0,0.0,0.0,0.0,0.0,0.0,0.0,0.0,0.0,0.0,0.0,0.0,0.0,0.0,0.0,0.0,0.0,0.0,0.0,0.0,0.0,0.0,0.0,0.0,0.0,0.0,0.0,0.0,0.0,0.0,0.0,0.0,0.0,0.0,0.0,0.0,0.0,0.0,0.0,0.0,0.0,0.0,0.0,0.0,0.0,0.0,0.0,0.0,0.0,0.0,0.0,0.0,0.0,0.0,0.0,0.0,0.0,0.0,0.0,0.0,0.0,0.0,0.0,0.0,0.0,0.0,0.0,0.0,0.0,0.0,0.0,0.0,0.0,0.0,0.0,0.0,0.0,0.0,0.0,0.0,0.0,0.0,0.0,0.0,0.0,0.0,0.0,0.0,0.0,0.0,0.0,0.0,0.0,0.0,0.0,0.0,0.0,0.0,0.0,0.0,0.0,0.0,0.0,-2.7447,-2.7695,-2.8213,0.0,-2.5438,0.0,0.0,0.0,0.0,0.0,0.0,0.0,0.0,0.0,0.0,0.0,0.0,0.0,0.0,0.0,0.0,0.0,0.0,0.0,0.0,0.0,0.0,0.0,0.0,0.0,0.0,0.0,0.0,0.0,0.0,0.0,0.0,0.0,0.0,0.0,0.0,0.0,0.0,0.0,0.0,0.0,0.0,0.0,0.0,0.0,0.0,0.0,0.0,0.0,0.0,0.0,0.0,0.0,0.0,0.0,0.0,0.0,0.0,0.0,0.0,0.0,0.0,0.0,0.0,0.0,0.0,0.0,0.0,0.0,0.0,0.0,0.0,0.0,0.0,0.0,0.0,0.0,0.0,0.0,0.0,0.0,0.0,0.0,0.0,0.0,0.0,0.0,0.0,0.0,0.0,0.0,0.0,0.0,0.0,0.0,0.0,0.0,0.0,0.0,0.0,0.0,0.0,0.0,0.0,0.0,0.0,0.0,0.0,0.0,0.0,-2.7471,-2.8304,-2.7763,-2.6677,0.0,0.0,0.0,0.0,0.0,0.0,0.0,0.0,0.0,0.0,0.0,0.0,0.0,0.0,0.0,0.0,0.0,0.0,0.0,0.0,0.0,0.0,0.0,0.0,0.0,0.0,0.0,0.0,0.0,0.0,0.0,0.0,0.0,0.0,0.0,0.0,0.0,0.0,0.0,0.0,0.0,0.0,0.0,0.0,0.0,0.0,0.0,0.0,0.0,0.0,0.0,0.0,0.0,0.0,0.0,0.0,0.0,0.0,0.0,0.0,0.0,0.0,0.0,0.0,0.0,0.0,0.0,0.0,0.0,0.0,0.0,0.0,0.0,0.0,0.0,0.0,0.0,0.0,0.0,0.0,0.0,0.0,0.0,0.0,0.0,0.0,0.0,0.0,0.0,0.0,0.0,0.0,0.0,0.0,0.0,0.0,0.0,0.0,0.0,0.0,0.0,0.0,0.0,0.0,0.0,0.0,0.0,0.0,0.0,0.0,-2.6738,-2.7468,-2.8294,-2.6817,-2.5478,-2.4465,0.0,0.0,0.0,0.0,0.0,0.0,0.0,0.0,0.0,0.0,0.0,0.0,0.0,0.0,0.0,0.0,0.0,0.0,0.0,0.0,0.0,0.0,0.0,0.0,0.0,0.0,0.0,0.0,0.0,0.0,0.0,0.0,0.0,0.0,0.0,0.0,0.0,0.0,0.0,0.0,0.0,0.0,0.0,0.0,0.0,0.0,0.0,0.0,0.0,0.0,0.0,0.0,0.0,0.0,0.0,0.0,0.0,0.0,0.0,0.0,0.0,0.0,0.0,0.0,0.0,0.0,0.0,0.0,0.0,0.0,0.0,0.0,0.0,0.0,0.0,0.0,0.0,0.0,0.0,0.0,0.0,0.0,0.0,0.0,0.0,0.0,0.0,0.0,0.0,0.0,0.0,0.0,0.0,0.0,0.0,0.0,0.0,0.0,0.0,0.0,0.0,0.0,0.0,0.0,0.0,0.0,0.0,0.0,-2.6259,-2.7137,-2.7628,-2.7692,-2.5502,-2.4171,0.0,0.0,0.0,0.0,0.0,0.0,0.0,0.0,0.0,0.0,0.0,0.0,0.0,0.0,0.0,0.0,0.0,0.0,0.0,0.0,0.0,0.0,0.0,0.0,0.0,0.0,0.0,0.0,0.0,0.0,0.0,0.0,0.0,0.0,0.0,0.0,0.0,0.0,0.0,0.0,0.0,0.0,0.0,0.0,0.0,0.0,0.0,0.0,0.0,0.0,0.0,0.0,0.0,0.0,0.0,0.0,0.0,0.0,0.0,0.0,0.0,0.0,0.0,0.0,0.0,0.0,0.0,0.0,0.0,0.0,0.0,0.0,0.0,0.0,0.0,0.0,0.0,0.0,0.0,0.0,0.0,0.0,0.0,0.0,0.0,0.0,0.0,0.0,0.0,0.0,0.0,0.0,0.0,0.0,0.0,0.0,0.0,0.0,0.0,0.0,0.0,0.0,0.0,0.0,0.0,0.0,0.0,0.0,0.0,-2.6442,-2.7606,-2.7723,-2.6823,-2.5141,-2.3907,0.0,0.0,0.0,0.0,0.0,0.0,0.0,0.0,0.0,0.0,0.0,0.0,0.0,0.0,0.0,0.0,0.0,0.0,0.0,0.0,0.0,0.0,0.0,0.0,0.0,0.0,0.0,0.0,0.0,0.0,0.0,0.0,0.0,0.0,0.0,0.0,0.0,0.0,0.0,0.0,0.0,0.0,0.0,0.0,0.0,0.0,0.0,0.0,0.0,0.0,0.0,0.0,0.0,0.0,0.0,0.0,0.0,0.0,0.0,0.0,0.0,0.0,0.0,0.0,0.0,0.0,0.0,0.0,0.0,0.0,0.0,0.0,0.0,0.0,0.0,0.0,0.0,0.0,0.0,0.0,0.0,0.0,0.0,0.0,0.0,0.0,0.0,0.0,0.0,0.0,0.0,0.0,0.0,0.0,0.0,0.0,0.0,0.0,0.0,0.0,0.0,0.0,0.0,0.0,0.0,0.0,0.0,0.0,0.0,-2.6486,0.0,-2.7589,-2.6514,-2.4958,-2.3859,0.0,0.0,0.0,0.0,0.0,0.0,0.0,0.0,0.0,0.0,0.0,0.0,0.0,0.0,0.0,0.0,0.0,0.0,0.0,0.0,0.0,0.0,0.0,0.0,0.0,0.0,0.0,0.0,0.0,0.0,0.0,0.0,0.0,0.0,0.0,0.0,0.0,0.0,0.0,0.0,0.0,0.0,0.0,0.0,0.0,0.0,0.0,0.0,0.0,0.0,0.0,0.0,0.0,0.0,0.0,0.0,0.0,0.0,0.0,0.0,0.0,0.0,0.0,0.0,0.0,0.0,0.0,0.0,0.0,0.0,0.0,0.0,0.0,0.0,0.0,0.0,0.0,0.0,0.0,0.0,0.0,0.0,0.0,0.0,0.0,0.0,0.0,0.0,0.0,0.0,0.0,0.0,0.0,0.0,0.0,0.0,0.0,0.0,0.0,0.0,0.0,0.0,0.0,0.0,0.0,0.0,0.0,0.0,-2.4827,-2.6322,-2.6985,-2.7141,-2.6836,-2.4893,-2.3993,0.0,0.0,0.0,0.0,0.0,0.0,0.0,0.0,0.0,0.0,0.0,0.0,0.0,0.0,0.0,0.0,0.0,0.0,0.0,0.0,0.0,0.0,0.0,0.0,0.0,0.0,0.0,0.0,0.0,0.0,0.0,0.0,0.0,0.0,0.0,0.0,0.0,0.0,0.0,0.0,0.0,0.0,0.0,0.0,0.0,0.0,0.0,0.0,0.0,0.0,0.0,0.0,0.0,0.0,0.0,0.0,0.0,0.0,0.0,0.0,0.0,0.0,0.0,0.0,0.0,0.0,0.0,0.0,0.0,0.0,0.0,0.0,0.0,0.0,0.0,0.0,0.0,0.0,0.0,0.0,0.0,0.0,0.0,0.0,0.0,0.0,0.0,0.0,0.0,0.0,0.0,0.0,0.0,0.0,0.0,0.0,0.0,0.0,0.0,0.0,0.0,0.0,0.0,0.0,0.0,0.0,0.0,0.0,0.0,-2.5811,-2.637,-2.6332,-2.5745,-2.4669,-2.4045,0.0,0.0,0.0,0.0,0.0,0.0,0.0,0.0,0.0,0.0,0.0,0.0,0.0,0.0,0.0,0.0,0.0,0.0,0.0,0.0,0.0,0.0,0.0,0.0,0.0,0.0,0.0,0.0,0.0,0.0,0.0,0.0,0.0,0.0,0.0,0.0,0.0,0.0,0.0,0.0,0.0,0.0,0.0,0.0,0.0,0.0,0.0,0.0,0.0,0.0,0.0,0.0,0.0,0.0,0.0,0.0,0.0,0.0,0.0,0.0,0.0,0.0,0.0,0.0,0.0,0.0,0.0,0.0,0.0,0.0,0.0,0.0,0.0,0.0,0.0,0.0,0.0,0.0,0.0,0.0,0.0,0.0,0.0,0.0,0.0,0.0,0.0,0.0,0.0,0.0,0.0,0.0,0.0,0.0,0.0,0.0,0.0,0.0,0.0,0.0,0.0,0.0,0.0,0.0,0.0,0.0,0.0,0.0,0.0,-2.7163,-2.7417,-2.7431,-2.7242,-2.6791,-2.61,-2.5227,0.0,0.0,0.0,0.0,0.0,0.0,0.0,0.0,0.0,0.0,0.0,0.0,0.0,0.0,0.0,0.0,0.0,0.0,0.0,0.0,0.0,0.0,0.0,0.0,0.0,0.0,0.0,0.0,0.0,0.0,0.0,0.0,0.0,0.0,0.0,0.0,0.0,0.0,0.0,0.0,0.0,0.0,0.0,0.0,0.0,0.0,0.0,0.0,0.0,0.0,0.0,0.0,0.0,0.0,0.0,0.0,0.0,0.0,0.0,0.0,0.0,0.0,0.0,0.0,0.0,0.0,0.0,0.0,0.0,0.0,0.0,0.0,0.0,0.0,0.0,0.0,0.0,0.0,0.0,0.0,0.0,0.0,0.0,0.0,0.0,0.0,0.0,0.0,0.0,0.0,0.0,0.0,0.0,0.0,0.0,0.0,0.0,0.0,0.0,0.0,0.0,0.0,0.0,0.0,0.0,0.0,0.0,0.0,-3.0319,-3.0251,-3.0463,-3.0881,-3.067,-2.966,0.0,0.0,0.0,0.0,0.0,0.0,0.0,0.0,0.0,0.0,0.0,0.0,0.0,0.0,0.0,0.0,0.0,0.0,0.0,0.0,0.0,0.0,0.0,0.0,0.0,0.0,0.0,0.0,0.0,0.0,0.0,0.0,0.0,0.0,0.0,0.0,0.0,0.0,0.0,0.0,0.0,0.0,0.0,0.0,0.0,0.0,0.0,0.0,0.0,0.0,0.0,0.0,0.0,0.0,0.0,0.0,0.0,0.0,0.0,0.0,0.0,0.0,0.0,0.0,0.0,0.0,0.0,0.0,0.0,0.0,0.0,0.0,0.0,0.0,0.0,0.0,0.0,0.0,0.0,0.0,0.0,0.0,0.0,0.0,0.0,0.0,0.0,0.0,0.0,0.0,0.0,0.0,0.0,0.0,0.0,0.0,0.0,0.0,0.0,0.0,0.0,0.0,0.0,0.0,0.0,0.0,0.0,0.0,0.0,-3.4449,-3.6346,-3.6148,-3.3829,-3.239,-3.0838,0.0,0.0,0.0,0.0,0.0,0.0,0.0,0.0,0.0,0.0,0.0,0.0,0.0,0.0,0.0,0.0,0.0,0.0,0.0,0.0,0.0,0.0,0.0,0.0,0.0,0.0,0.0,0.0,0.0,0.0,0.0,0.0,0.0,0.0,0.0,0.0,0.0,0.0,0.0,0.0,0.0,0.0,0.0,0.0,0.0,0.0,0.0,0.0,0.0,0.0,0.0,0.0,0.0,0.0,0.0,0.0,0.0,0.0,0.0,0.0,0.0,0.0,0.0,0.0,0.0,0.0,0.0,0.0,0.0,0.0,0.0,0.0,0.0,0.0,0.0,0.0,0.0,0.0,0.0,0.0,0.0,0.0,0.0,0.0,0.0,0.0,0.0,0.0,0.0,0.0,0.0,0.0,0.0,0.0,0.0,0.0,0.0,0.0,0.0,0.0,0.0,0.0,0.0,0.0,0.0,0.0,0.0,0.0,-3.2161,-3.7345,-4.0808,-4.1649,-3.9649,-3.6827,-3.4036,0.0,0.0,0.0,0.0,0.0,0.0,0.0,0.0,0.0,0.0,0.0,0.0,0.0,0.0,0.0,0.0,0.0,0.0,0.0,0.0,0.0,0.0,0.0,0.0,0.0,0.0,0.0,0.0,0.0,0.0,0.0,0.0,0.0,0.0,0.0,0.0,0.0,0.0,0.0,0.0,0.0,0.0,0.0,0.0,0.0,0.0,0.0,0.0,0.0,0.0,0.0,0.0,0.0,0.0,0.0,0.0,0.0,0.0,0.0,0.0,0.0,0.0,0.0,0.0,0.0,0.0,0.0,0.0,0.0,0.0,0.0,0.0,0.0,0.0,0.0,0.0,0.0,0.0,0.0,0.0,0.0,0.0,0.0,0.0,0.0,0.0,0.0,0.0,0.0,0.0,0.0,0.0,0.0,0.0,0.0,0.0,0.0,0.0,0.0,0.0,0.0,0.0,0.0,0.0,0.0,0.0,0.0,0.0,-3.5363,-3.9577,-4.3989,-4.6328,-4.6321,-4.2221,-3.8023,0.0,0.0,0.0,0.0,0.0,0.0,0.0,0.0,0.0,0.0,0.0,0.0,0.0,0.0,0.0,0.0,0.0,0.0,0.0,0.0,0.0,0.0,0.0,0.0,0.0,0.0,0.0,0.0,0.0,0.0,0.0,0.0,0.0,0.0,0.0,0.0,0.0,0.0,0.0,0.0,0.0,0.0,0.0,0.0,0.0,0.0,0.0,0.0,0.0,0.0,0.0,0.0,0.0,0.0,0.0,0.0,0.0,0.0,0.0,0.0,0.0,0.0,0.0,0.0,0.0,0.0,0.0,0.0,0.0,0.0,0.0,0.0,0.0,0.0,0.0,0.0,0.0,0.0,0.0,0.0,0.0,0.0,0.0,0.0,0.0,0.0,0.0,0.0,0.0,0.0,0.0,0.0,0.0,0.0,0.0,0.0,0.0,0.0,0.0,0.0,0.0,0.0,0.0,0.0,0.0,0.0,0.0,0.0,-3.757,-4.3733,-4.6299,-4.7703,-4.7907,-4.3577,-3.9262,0.0,0.0,0.0,0.0,0.0,0.0,0.0,0.0,0.0,0.0,0.0,0.0,0.0,0.0,0.0,0.0,0.0,0.0,0.0,0.0,0.0,0.0,0.0,0.0,0.0,0.0,0.0,0.0,0.0,0.0,0.0,0.0,0.0,0.0,0.0,0.0,0.0,0.0,0.0,0.0,0.0,0.0,0.0,0.0,0.0,0.0,0.0,0.0,-2.7679,0.0,0.0,0.0,0.0,0.0,0.0,0.0,0.0,0.0,0.0,0.0,0.0,0.0,0.0,0.0,0.0,0.0,0.0,0.0,0.0,0.0,0.0,0.0,0.0,0.0,0.0,0.0,0.0,0.0,0.0,0.0,0.0,0.0,0.0,0.0,0.0,0.0,0.0,0.0,0.0,0.0,0.0,0.0,0.0,0.0,0.0,0.0,0.0,0.0,0.0,0.0,0.0,0.0,0.0,0.0,0.0,0.0,0.0,0.0,-3.9237,-4.4583,-4.7043,-4.7971,-4.7179,-4.373,-4.014,0.0,0.0,0.0,0.0,0.0,0.0,0.0,0.0,0.0,0.0,0.0,0.0,0.0,0.0,0.0,0.0,0.0,0.0,0.0,0.0,0.0,0.0,0.0,0.0,0.0,0.0,0.0,0.0,0.0,0.0,0.0,0.0,0.0,0.0,0.0,0.0,0.0,0.0,0.0,0.0,0.0,0.0,0.0,0.0,0.0,0.0,0.0,0.0,0.0,0.0,0.0,0.0,0.0,0.0,0.0,0.0,0.0,0.0,0.0,0.0,0.0,0.0,0.0,0.0,0.0,0.0,0.0,0.0,0.0,0.0,0.0,0.0,0.0,0.0,0.0,0.0,0.0,0.0,0.0,0.0,0.0,0.0,0.0,0.0,0.0,0.0,0.0,0.0,0.0,0.0,0.0,0.0,0.0,0.0,0.0,0.0,0.0,0.0,0.0,0.0,0.0,0.0,0.0,0.0,0.0,0.0,0.0,-3.6207,-4.0607,-4.4594,-4.7028,-4.7475,-4.5833,-4.3117,-4.0237,-3.7162,0.0,0.0,0.0,0.0,0.0,0.0,0.0,0.0,0.0,0.0,0.0,0.0,0.0,0.0,0.0,0.0,0.0,0.0,0.0,0.0,0.0,0.0,0.0,0.0,0.0,0.0,0.0,0.0,0.0,0.0,0.0,0.0,0.0,0.0,0.0,0.0,0.0,0.0,-2.5196,-2.4989,0.0,0.0,0.0,0.0,0.0,0.0,0.0,0.0,-2.7257,0.0,0.0,0.0,0.0,0.0,0.0,0.0,0.0,0.0,0.0,0.0,0.0,0.0,0.0,0.0,0.0,0.0,0.0,0.0,0.0,0.0,0.0,0.0,0.0,0.0,0.0,0.0,0.0,0.0,0.0,0.0,0.0,0.0,0.0,0.0,0.0,0.0,0.0,0.0,0.0,0.0,0.0,0.0,0.0,0.0,0.0,0.0,0.0,0.0,0.0,0.0,0.0,0.0,0.0,0.0,0.0,-3.4107,-3.7517,-4.1754,-4.6791,-4.6713,-4.6079,-4.4962,-4.1593,-3.8092,-3.4538,0.0,0.0,0.0,0.0,0.0,0.0,0.0,0.0,0.0,0.0,0.0,0.0,0.0,0.0,0.0,0.0,0.0,0.0,0.0,0.0,0.0,0.0,0.0,0.0,0.0,0.0,0.0,0.0,0.0,0.0,0.0,0.0,0.0,0.0,0.0,0.0,0.0,0.0,0.0,-2.6672,-2.6346,0.0,0.0,0.0,0.0,0.0,0.0,0.0,0.0,-2.9689,0.0,0.0,0.0,0.0,0.0,0.0,0.0,0.0,0.0,0.0,0.0,0.0,0.0,0.0,0.0,0.0,0.0,0.0,0.0,0.0,0.0,0.0,0.0,0.0,0.0,0.0,0.0,0.0,0.0,0.0,0.0,0.0,0.0,0.0,0.0,0.0,0.0,0.0,0.0,0.0,0.0,0.0,0.0,0.0,0.0,0.0,0.0,0.0,0.0,0.0,0.0,0.0,0.0,0.0,0.0,-3.4891,-3.8043,-4.168,-4.5952,-4.5785,-4.4674,-4.2762,-4.0087,-3.6664,0.0,0.0,0.0,0.0,0.0,0.0,0.0,0.0,0.0,0.0,0.0,0.0,0.0,0.0,0.0,0.0,0.0,0.0,0.0,0.0,0.0,0.0,0.0,0.0,0.0,0.0,0.0,0.0,0.0,0.0,0.0,0.0,0.0,0.0,0.0,0.0,0.0,0.0,0.0,0.0,-2.8489,-2.8854,-3.0891,0.0,0.0,0.0,0.0,0.0,0.0,-3.1283,-3.0365,0.0,0.0,0.0,0.0,0.0,0.0,0.0,0.0,0.0,0.0,0.0,0.0,0.0,0.0,0.0,0.0,0.0,0.0,0.0,0.0,0.0,0.0,0.0,0.0,0.0,0.0,0.0,0.0,0.0,0.0,0.0,0.0,0.0,0.0,0.0,0.0,0.0,0.0,0.0,0.0,0.0,0.0,0.0,0.0,0.0,0.0,0.0,0.0,0.0,0.0,0.0,0.0,0.0,0.0,0.0,-3.5091,-3.8199,-4.13,-4.448,-4.4364,-4.2953,-4.0354,-3.8186,-3.4943,0.0,0.0,0.0,0.0,0.0,0.0,0.0,0.0,0.0,0.0,0.0,0.0,0.0,0.0,0.0,0.0,0.0,0.0,0.0,0.0,0.0,0.0,0.0,0.0,0.0,0.0,0.0,0.0,0.0,0.0,0.0,0.0,0.0,0.0,0.0,0.0,0.0,0.0,0.0,0.0,0.0,-3.1129,-3.2465,-3.2565,0.0,0.0,0.0,0.0,-3.2094,-3.2481,0.0,0.0,0.0,0.0,0.0,0.0,0.0,0.0,0.0,0.0,0.0,0.0,0.0,0.0,0.0,0.0,0.0,0.0,0.0,0.0,0.0,0.0,0.0,0.0,0.0,0.0,0.0,0.0,0.0,0.0,0.0,0.0,0.0,0.0,0.0,0.0,0.0,0.0,0.0,0.0,0.0,0.0,0.0,0.0,0.0,0.0,0.0,0.0,0.0,0.0,0.0,0.0,0.0,0.0,0.0,0.0,-3.4612,-3.8007,-4.1042,-4.3603,-4.2341,-4.0579,-3.8617,-3.5231,-3.1904,0.0,0.0,0.0,0.0,0.0,0.0,0.0,0.0,0.0,0.0,0.0,0.0,0.0,0.0,0.0,0.0,0.0,0.0,0.0,0.0,0.0,0.0,0.0,0.0,0.0,0.0,0.0,0.0,0.0,0.0,0.0,0.0,0.0,0.0,0.0,0.0,0.0,0.0,0.0,0.0,0.0,-3.1728,-3.5039,-3.5149,-3.4623,0.0,0.0,-3.6598,-3.7364,-3.8786,0.0,0.0,0.0,0.0,0.0,0.0,0.0,0.0,0.0,0.0,0.0,0.0,0.0,0.0,0.0,0.0,0.0,0.0,0.0,0.0,0.0,0.0,0.0,0.0,0.0,0.0,0.0,0.0,0.0,0.0,0.0,0.0,0.0,0.0,0.0,0.0,0.0,0.0,0.0,0.0,0.0,0.0,0.0,0.0,0.0,0.0,0.0,0.0,0.0,0.0,0.0,0.0,0.0,0.0,0.0,-2.9732,-3.4491,-3.7558,-4.0335,-4.2829,-4.1755,-3.996,-3.7607,-3.4466,-3.1405,0.0,0.0,0.0,0.0,0.0,0.0,0.0,0.0,0.0,0.0,0.0,0.0,0.0,0.0,0.0,0.0,0.0,0.0,0.0,0.0,0.0,0.0,0.0,0.0,0.0,0.0,0.0,0.0,0.0,0.0,0.0,0.0,0.0,0.0,0.0,0.0,0.0,0.0,0.0,0.0,0.0,0.0,-3.4699,-3.6485,0.0,0.0,0.0,-3.7514,-3.6417,0.0,0.0,0.0,0.0,0.0,0.0,0.0,0.0,0.0,0.0,0.0,0.0,0.0,0.0,0.0,0.0,0.0,0.0,0.0,0.0,0.0,0.0,0.0,0.0,0.0,0.0,0.0,0.0,0.0,0.0,0.0,0.0,0.0,0.0,0.0,0.0,0.0,0.0,0.0,0.0,0.0,0.0,0.0,0.0,0.0,0.0,0.0,0.0,0.0,0.0,0.0,0.0,0.0,0.0,0.0,0.0,0.0,-3.3897,-3.6593,-3.9096,-4.1331,-4.0584,-3.8946,-3.644,-3.3897,0.0,0.0,0.0,0.0,0.0,0.0,0.0,0.0,0.0,0.0,0.0,0.0,0.0,0.0,0.0,0.0,0.0,0.0,0.0,0.0,0.0,0.0,0.0,0.0,0.0,0.0,0.0,-1.9977,0.0,0.0,0.0,0.0,0.0,0.0,0.0,0.0,0.0,0.0,0.0,0.0,0.0,0.0,-3.5442,-3.4685,-3.7676,-3.9326,0.0,0.0,-3.7742,-3.5597,-3.7464,-3.7318,0.0,0.0,0.0,0.0,0.0,0.0,0.0,0.0,0.0,0.0,0.0,0.0,0.0,0.0,0.0,0.0,0.0,0.0,0.0,0.0,0.0,0.0,0.0,0.0,0.0,0.0,0.0,0.0,0.0,0.0,0.0,0.0,0.0,0.0,0.0,0.0,0.0,0.0,0.0,0.0,0.0,0.0,0.0,0.0,0.0,0.0,0.0,0.0,0.0,0.0,0.0,0.0,0.0,0.0,-2.8691,-3.2194,-3.4862,-3.7069,-3.8762,-3.8012,-3.6629,-3.4724,-3.2865,-3.0477,0.0,0.0,0.0,0.0,0.0,0.0,0.0,0.0,0.0,0.0,0.0,0.0,0.0,0.0,0.0,0.0,0.0,0.0,0.0,0.0,0.0,0.0,0.0,0.0,0.0,0.0,0.0,0.0,0.0,0.0,0.0,0.0,0.0,0.0,0.0,0.0,0.0,0.0,0.0,0.0,0.0,-3.5553,-3.6303,-3.8937,-4.0793,0.0,-3.9466,-3.8143,-3.717,-3.9235,-3.8983,-3.299,0.0,0.0,0.0,0.0,0.0,0.0,0.0,0.0,0.0,0.0,0.0,0.0,0.0,0.0,0.0,0.0,0.0,0.0,0.0,0.0,0.0,0.0,0.0,0.0,0.0,0.0,0.0,0.0,0.0,0.0,0.0,0.0,0.0,0.0,0.0,0.0,0.0,0.0,0.0,0.0,0.0,0.0,0.0,0.0,0.0,0.0,0.0,0.0,0.0,0.0,0.0,0.0,0.0,-2.8133,-3.2057,-3.414,-3.6288,-3.8398,-3.7694,-3.6378,-3.4624,-3.2795,-3.0466,0.0,0.0,0.0,0.0,0.0,0.0,0.0,0.0,0.0,0.0,0.0,0.0,0.0,0.0,0.0,0.0,0.0,0.0,0.0,0.0,0.0,0.0,0.0,0.0,0.0,0.0,0.0,0.0,-2.191,-2.1946,-2.1302,0.0,0.0,0.0,0.0,0.0,0.0,0.0,0.0,0.0,0.0,-3.5687,-3.672,-3.8793,0.0,0.0,-3.8966,-3.8049,-3.6615,-3.7749,-3.7284,-3.2814,-3.1489,0.0,0.0,0.0,0.0,0.0,0.0,0.0,0.0,0.0,0.0,0.0,0.0,0.0,0.0,0.0,0.0,0.0,0.0,0.0,0.0,0.0,0.0,0.0,0.0,0.0,0.0,0.0,0.0,0.0,0.0,0.0,0.0,0.0,0.0,0.0,0.0,0.0,0.0,0.0,0.0,0.0,0.0,0.0,0.0,0.0,0.0,0.0,0.0,0.0,0.0,0.0,0.0,-2.767,-3.1654,-3.3416,-3.54,-3.7688,-3.7123,-3.6113,-3.4642,-3.3119,-3.1084,0.0,0.0,0.0,0.0,0.0,0.0,0.0,0.0,0.0,0.0,0.0,0.0,0.0,0.0,0.0,0.0,0.0,0.0,0.0,0.0,0.0,0.0,0.0,0.0,0.0,0.0,0.0,0.0,-2.2015,-2.1934,-2.0561,0.0,0.0,0.0,0.0,0.0,0.0,0.0,0.0,0.0,0.0,-3.548,-3.6489,-3.7981,-3.8768,-3.816,-3.7463,-3.6582,-3.5344,-3.5502,-3.4843,-3.2142,0.0,0.0,0.0,0.0,0.0,0.0,0.0,0.0,0.0,0.0,0.0,0.0,0.0,0.0,0.0,0.0,0.0,0.0,0.0,0.0,0.0,0.0,0.0,0.0,0.0,0.0,0.0,0.0,0.0,0.0,0.0934,0.0,0.0,0.0,0.0,0.0,0.0,0.0,0.0,0.0,0.0,0.0,0.0,0.0,0.0,0.0,0.0,0.0,0.0,0.0,0.0,0.0,0.0,-2.742,-3.0781,-3.2572,-3.4273,-3.5931,-3.5946,-3.5499,-3.4608,-3.3726,-3.2358,-3.0419,0.0,0.0,0.0,0.0,0.0,0.0,0.0,0.0,0.0,0.0,0.0,0.0,0.0,0.0,0.0,0.0,0.0,0.0,0.0,0.0,0.0,0.0,0.0,0.0,0.0,0.0,-1.9474,-2.0706,-2.1327,0.0,0.0,0.0,0.0,0.0,0.0,0.0,0.0,0.0,0.0,-3.2163,-3.475,-3.5696,-3.6586,-3.7163,-3.7128,-3.5052,-3.3462,-3.3522,-3.2869,-3.1952,0.0,0.0,0.0,0.0,0.0,0.0,0.0,0.0,0.0,0.0,0.0,0.0,0.0,0.0,0.0,0.0,0.0,0.0,0.0,0.0,0.0,0.0,0.0,0.0,0.0,0.0,0.0,-0.1668,-0.2177,0.0,0.0,0.0,0.0,0.0,0.0,0.0,0.0,0.0,0.0,0.0,-2.7695,-2.8201,0.0,0.0,0.0,0.0,0.0,0.0,0.0,0.0,0.0,0.0,0.0,0.0,-2.791,-3.0723,-3.2492,-3.4184,-3.583,-3.5899,-3.5201,-3.3788,-3.3486,-3.2207,-2.9769,0.0,0.0,0.0,0.0,0.0,0.0,0.0,0.0,0.0,0.0,0.0,0.0,0.0,0.0,0.0,0.0,0.0,0.0,0.0,0.0,0.0,0.0,0.0,0.0,0.0,-2.2209,0.0,0.0,0.0,0.0,0.0,0.0,0.0,0.0,0.0,0.0,0.0,-2.7663,-2.9743,-3.2108,-3.3939,-3.4876,-3.5261,-3.5639,0.0,0.0,0.0,0.0,0.0,0.0,0.0,0.0,0.0,0.0,0.0,0.0,0.0,0.0,-2.8768,-2.7965,-2.853,-2.9234,-2.9529,0.0,0.0,0.0,0.0,0.0,0.0,0.0,0.0,0.0,0.0,0.0,0.0,0.0,0.0,-0.8713,0.0,-1.0884,0.0,0.0,0.0,0.0,0.0,0.0,0.0,0.0,-2.7928,-2.9175,-3.017,-3.0696,-3.0654,0.0,-2.9297,-2.7569,0.0,0.0,0.0,0.0,0.0,0.0,0.0,0.0,-2.8026,-3.031,-3.2288,-3.3984,-3.5334,-3.5723,-3.534,-3.4237,-3.3662,-3.228,-2.9936,-2.8327,-2.6816,0.0,0.0,0.0,0.0,0.0,0.0,0.0,0.0,0.0,0.0,0.0,0.0,0.0,0.0,0.0,0.0,0.0,0.0,0.0,0.0,0.0,0.0,0.0,-2.3048,0.0,0.0,0.0,0.0,0.0,0.0,0.0,0.0,0.0,-2.5493,-2.7199,-2.904,-3.0794,-3.233,-3.337,-3.3657,0.0,0.0,0.0,0.0,0.0,0.0,0.0,-3.1971,-3.1348,-3.1069,-3.1072,-3.1574,-3.1664,-3.1582,-3.1319,0.0,0.0,-3.0322,-3.0719,-3.1482,-3.2049,-3.2129,-3.2321,-3.2868,-3.2086,-3.1285,0.0,0.0,0.0,0.0,0.0,0.0,0.0,0.0,-1.5644,-1.629,0.0,-2.1922,0.0,0.0,0.0,0.0,0.0,-2.5968,0.0,0.0,-3.0595,-3.1767,-3.1678,-3.1719,-3.1669,-3.1546,-3.0888,-3.0076,-2.9134,-2.6939,0.0,0.0,0.0,0.0,0.0,0.0,-2.7808,-2.9572,-3.2016,-3.3693,-3.4497,-3.5352,-3.5806,-3.5768,-3.4228,-3.2624,-3.104,-3.0015,-2.8339,-2.5898,-2.5606,0.0,0.0,0.0,0.0,0.0,0.0,0.0,0.0,0.0,0.0,0.0,0.0,0.0,0.0,0.0,0.0,0.0,0.0,0.0,0.0,-2.3089,0.0,0.0,0.0,0.0,0.0,0.0,0.0,0.0,0.0,0.0,-2.687,-2.8337,-3.0024,-3.1748,0.0,0.0,0.0,0.0,-3.2722,-3.1103,-3.08,-3.0864,-3.0983,-3.164,-3.2168,-3.2127,0.0,0.0,-3.3327,-3.3412,-3.3736,-3.4522,-3.5285,-3.4939,-3.1753,-3.1942,-3.2487,-3.2565,-3.2751,-3.2539,-3.2559,-3.2949,-3.2676,-2.8798,0.0,0.0,0.0,0.0,-2.4911,-2.4634,-2.548,-2.5768,-2.5627,-2.5298,-2.6899,0.0,0.0,0.0,0.0,0.0,0.0,-2.8734,-2.9669,-3.1553,-3.2718,-3.3262,-3.3884,-3.3859,-3.3292,-3.318,-3.2396,-3.1074,-3.0442,-2.8444,-2.5098,0.0,0.0,0.0,0.0,-2.86,-3.0306,-3.222,-3.3638,-3.4475,-3.5355,-3.5519,-3.4976,-3.3897,-3.3115,-3.2604,-3.1789,-3.069,-2.9308,-2.8026,0.0,0.0,0.0,0.0,0.0,0.0,0.0,0.0,0.0,0.0,0.0,0.0,0.0,0.0,0.0,0.0,0.0,0.0,0.0,-2.4028,-2.4981,-2.5,0.0,0.0,0.0,0.0,0.0,0.0,0.0,0.0,0.0,-3.0299,-3.089,-3.1424,0.0,0.0,-3.3232,-3.296,-3.3142,-3.3321,-3.338,-3.2908,0.0,-3.3409,-3.3184,-3.2947,-3.2959,-3.4188,-3.4958,-3.4341,-3.5716,-3.681,-3.6464,-3.7102,-3.7343,-3.6545,-3.6445,-3.6833,-3.7425,-3.7647,-3.789,-3.8353,-3.7654,-3.6738,-3.6361,-3.17,-3.0554,-3.0139,-3.0169,-2.981,-3.0302,-3.129,-3.1037,-3.0945,-3.0968,-3.0117,-2.914,-2.808,-2.7129,0.0,0.0,0.0,-3.0112,-3.1689,-3.2666,-3.354,-3.4247,-3.4746,-3.4742,-3.4331,-3.4466,-3.389,-3.2726,-3.2872,-3.1268,-2.8037,0.0,0.0,-2.6532,-2.8209,-2.9586,-3.0651,-3.2632,-3.3925,-3.4468,-3.536,-3.5606,-3.5132,-3.4301,-3.3838,-3.379,-3.3014,-3.2162,-3.1242,-3.0183,-2.8799,0.0,0.0,0.0,0.0,0.0,0.0,0.0,0.0,0.0,0.0,0.0,-2.1521,-2.0816,0.0,0.0,0.0,-2.5264,-2.6217,-2.6871,-2.7344,0.0,0.0,0.0,0.0,0.0,0.0,0.0,-2.8598,-2.9745,-3.1071,-3.2748,-3.3295,-3.3399,-3.308,-3.3484,-3.3805,-3.3782,0.0,-3.4374,-3.4492,-3.4406,-3.4384,-3.4588,-3.473,-3.4915,-3.5268,-3.6177,-3.6701,-3.6292,-3.7417,-3.8285,-3.8246,-3.8557,-3.9013,-3.9357,-3.9725,-3.9887,-3.9833,-4.0118,-4.0542,-4.1069,-4.0312,-3.9629,-4.0063,-3.7302,-3.5284,-3.3994,-3.325,-3.2577,-3.2837,-3.3676,-3.2788,-3.3181,-3.4346,-3.2127,-3.1054,-3.0847,-2.8572,0.0,-3.0143,-3.0156,-3.1516,-3.388,-3.3994,-3.4377,-3.4962,-3.4879,-3.484,-3.5,-3.5108,-3.486,-3.4301,-3.449,-3.3721,-3.2104,-3.0643,-2.9375,-2.8437,-2.9831,-3.0626,-3.0715,-3.3089,-3.4371,-3.4535,-3.5424,-3.5883,-3.5864,-3.5188,-3.4735,-3.4689,-3.3861,-3.3025,-3.2253,-3.2133,-3.1363,-2.9737,0.0,0.0,0.0,0.0,0.0,0.0,0.0,0.0,0.0,0.0,0.0,0.0,0.0,0.0,0.0,-2.8581,0.0,-3.0552,-3.0007,0.0,0.0,0.0,-2.9347,-2.869,-3.0115,-3.1464,-3.2324,0.0,0.0,-3.4707,-3.5663,-3.5911,-3.5093,-3.502,-3.5027,-3.5015,-3.5829,-3.5999,-3.5384,-3.5782,-3.6024,-3.5697,-3.6551,-3.7622,-3.8302,-3.8654,-3.8741,-3.8741,-3.8896,-3.9179,-3.9897,-4.0033,-4.0265,-4.1057,-4.1883,-4.2032,-4.0637,-4.0873,-4.1357,-4.1483,-4.1445,-4.1406,-4.1268,-4.0489,-3.8857,-3.7339,-3.5909,-3.4982,-3.5112,-3.5843,-3.5113,-3.4604,-3.4228,-3.3187,-3.2306,-3.1542,-3.0961,-3.0968,-3.1502,-3.2859,-3.3783,-3.4463,-3.5725,-3.6421,-3.6547,-3.641,-3.6363,-3.641,-3.6537,-3.6273,-3.572,-3.6002,-3.5353,-3.3857,-3.3513,-3.2242,-3.0103,-3.0396,-3.0905,-3.1523,-3.2804,-3.4144,-3.55,-3.5733,-3.5864,-3.5892,-3.5658,-3.5527,-3.5492,-3.4668,-3.4124,-3.391,-3.3856,-3.3329,-3.2327,-2.981,0.0,0.0,0.0,0.0,0.0,0.0,0.0,0.0,0.0,-2.3488,-2.3159,0.0,-2.6428,0.0,-3.1384,-3.3306,-3.3349,-3.2695,0.0,0.0,-3.1717,-3.2461,-3.2925,-3.4498,-3.5892,-3.677,-3.7458,-3.8018,-3.8409,-3.9169,-3.9404,-3.861,-3.8475,-3.8726,-3.9348,-3.9579,-3.9653,-3.936,-3.9448,-3.9645,-3.9393,-3.9699,-4.0071,-4.0266,-4.083,-4.1276,-4.1296,-4.1879,-4.2364,-4.2558,-4.2597,-4.2723,-4.2887,-4.3649,-4.4078,-4.3778,-4.3411,-4.3084,-4.3099,-4.3104,-4.3105,-4.2507,-4.1933,-4.1015,-3.99,-3.8619,-3.7081,-3.6692,-3.706,-3.627,-3.5625,-3.5066,-3.3634,-3.2711,-3.227,-3.2181,-3.2479,-3.3097,-3.4409,-3.5263,-3.5747,-3.6667,-3.7122,-3.7099,-3.6889,-3.6858,-3.6907,-3.69,-3.6829,-3.6633,-3.6929,-3.6706,-3.5981,-3.6047,-3.5152,-3.3369,-3.2679,-3.2366,-3.2415,-3.4015,-3.5538,-3.6864,-3.6897,-3.6561,-3.5922,-3.5866,-3.5482,-3.4697,-3.4231,-3.4147,-3.451,-3.4139,-3.3881,-3.3775,-3.0981,-2.9148,0.0,0.0,0.0,0.0,0.0,0.0,0.0,0.0,0.0,0.0,0.0,-2.9361,-3.1095,-3.3918,-3.5444,-3.4913,-3.457,-3.4137,-3.3644,-3.4396,-3.5142,-3.5602,-3.6865,-3.7864,-3.8346,-3.8828,-3.9279,-3.9656,-4.0085,-4.0688,-4.1318,-4.1422,-4.115,-4.0574,-4.0662,-4.0889,-4.0901,-4.1555,-4.2044,-4.2034,-4.2014,-4.2024,-4.2052,-4.2412,-4.2733,-4.2733,-4.3151,-4.3491,-4.3491,-4.3491,-4.351,-4.3617,-4.428,-4.4855,-4.4948,-4.494,-4.4863,-4.4861,-4.4863,-4.4863,-4.3618,-4.2606,-4.2232,-4.1752,-4.1079,-3.9056,-3.8048,-3.7745,-3.6838,-3.6395,-3.6174,-3.4027,-3.3143,-3.3246,-3.3143,-3.3691,-3.4689,-3.5479,-3.6341,-3.7207,-3.7361,-3.7399,-3.7399,-3.7156,-3.708,-3.7181,-3.7068,-3.7125,-3.7389,-3.7736,-3.7953,-3.8055,-3.807,-3.763,-3.6716,-3.5515,-3.4438,-3.3517,-3.5727,-3.723,-3.7996,-3.7938,-3.7257,-3.5981,-3.5883,-3.5182,-3.3711,-3.3624,-3.3965,-3.4686,-3.413,-3.4166,-3.4938,-3.1993,-3.0249,0.0,-2.7961,0.0,0.0,0.0,0.0,0.0,0.0,0.0,0.0,-3.1812,-3.3137,-3.4752,-3.6641,-3.7436,-3.668,-3.6519,-3.6459,-3.6489,-3.7122,-3.7618,-3.7778,-3.8615,-3.9265,-3.9371,-3.94,-3.9707,-4.0571,-4.0524,-4.1487,-4.326,-4.358,-4.2797,-4.0887,-4.1178,-4.183,-4.1548,-4.283,-4.3781,-4.374,-4.3729,-4.3718,-4.3726,-4.3776,-4.374,-4.3779,-4.3839,-4.386,-4.3879,-4.3938,-4.3927,-4.3902,-4.4582,-4.5078,-4.5211,-4.5703,-4.6152,-4.6152,-4.6152,-4.6289,-4.4085,-4.371,-4.3047,-4.2396,-4.1772,-4.1177,-4.002,-3.8444,-3.7654,-3.6909,-3.6285,-3.5807,-3.5605,-3.5662,-3.5726,-3.5882,-3.6165,-3.7154,-3.7723,-3.7941,-3.8739,-3.9107,-3.9107,-3.892,-3.8771,-3.871,-3.8682,-3.8753,-3.8977,-3.9318,-3.9267,-3.8878,-3.8984,-3.8294,-3.6947,0.0,0.0,0.0,-3.6014,-3.6737,-3.7026,-3.6591,-3.6201,-3.5903,-3.5846,0.0,-3.5353,-3.5373,-3.5482,-3.5663,-3.6131,0.0,0.0,0.0,0.0,0.0,0.0,0.0,0.0,0.0,0.0,0.0,-3.5695,-3.5454,-3.3701,-3.5594,-3.7694,-3.9432,-4.0598,-4.144,-4.1945,-4.0743,-3.9929,-3.9952,-4.006,-4.0449,-4.1179,-4.2578,-4.385,-4.4553,-4.4608,-4.4662,-4.4617,-4.4961,-4.4772,-4.4499,-4.4629,-4.4176,-4.3023,-4.3946,-4.4938,-4.5064,-4.5179,-4.5479,-4.5506,-4.5386,-4.5289,-4.5495,-4.5506,-4.5459,-4.5403,-4.5433,-4.5472,-4.5453,-4.553,-4.5502,-4.557,-4.5813,-4.5909,-4.5963,-4.6149,-4.6289,-4.6289,-4.6289,-4.6289,-4.4686,0.0,-4.3377,-4.265,0.0,-4.1796,-4.0889,-3.9534,-3.883,-3.79,-3.6872,-3.6468,-3.6285,-3.6321,-3.6775,-3.71,-3.731,-3.8215,-3.8719,-3.8927,-3.9414,-3.9645,-3.962,-3.9395,-3.9219,-3.9101,-3.9017,-3.9073,-3.9272,-3.9566,-3.9642,-3.9567,-3.9753,-3.9354,-3.8462,-3.8469,-3.7993,-3.6991,-3.7341,-3.7862,-3.8472,-3.8233,-3.7491,-3.6309,0.0,0.0,0.0,0.0,0.0,0.0,0.0,0.0,0.0,0.0,0.0,-3.5607,-3.4516,-3.4378,-3.5568,-3.6491,-3.7554,-3.8822,-4.0096,-3.99,-3.7674,-3.9554,-4.1189,-4.2077,-4.2588,-4.3011,-4.3404,-4.2694,-4.2189,-4.2189,-4.2189,-4.2384,-4.285,-4.3607,-4.4327,-4.4656,-4.446,-4.4221,-4.426,-4.389,-4.3732,-4.3693,-4.3997,-4.4267,-4.4293,-4.4892,-4.5502,-4.5908,-4.5983,-4.5991,-4.596,-4.5917,-4.5898,-4.5949,-4.5991,-4.5983,-4.5994,-4.5986,-4.5977,-4.5988,-4.6027,-4.6074,-4.6107,-4.6157,-4.6201,-4.6209,-4.6221,-4.6268,-4.6289,-4.6289,-4.6289,-4.5202,-4.4509,-4.3561,-4.2777,-4.2122,-4.194,-4.1396,-4.0655,0.0,0.0,0.0,-3.7,-3.6725,-3.678,-3.7356,-3.7911,-3.8385,-3.899,-3.9581,-4.0027,-4.0052,-3.9977,-3.9783,-3.9664,-3.9421,-3.9129,-3.9017,-3.9017,-3.9156,-3.9396,-3.969,-4.0043,-4.0266,-4.0285,-4.0024,-3.9652,-3.9277,-3.8878,-3.8707,-3.9104,-4.0087,-4.0041,-3.8975,-3.6925,-3.687,-3.6202,-3.4792,-3.4781,-3.5512,-3.691,-3.6462,-3.6273,-3.6448,-3.5803,-3.5441,-3.5535,-3.558,-3.6532,-3.8658,-3.9087,-4.0324,-4.2785,-4.3556,-4.3272,-4.1708,-4.2899,-4.3782,-4.3938,-4.3938,-4.3938,-4.3938,-4.3802,-4.3724,-4.3724,-4.3607,-4.353,-4.3685,-4.3569,-4.3636,-4.3633,-4.3208,-4.2559,-4.2694,-4.2194,-4.1884,-4.2741,-4.3591,-4.4091,-4.4874,-4.5144,-4.5366,-4.5847,-4.5983,-4.5964,-4.5933,-4.5925,-4.5933,-4.5964,-4.5994,-4.6014,-4.5994,-4.5986,-4.6007,-4.6008,-4.6054,-4.6088,-4.6111,-4.6156,-4.6206,-4.6212,-4.6195,-4.6221,-4.6269,-4.6289,-4.6289,-4.553,-4.5293,-4.363,-4.2865,-4.2757,-4.239,-4.1941,-4.1433,-4.0177,-3.9195,-3.8524,-3.8414,-3.8358,-3.8377,-3.8295,-3.8779,-3.9626,-3.97,-4.0307,0.0,-4.1437,-4.1199,-4.0647,-4.0603,-4.0113,-3.9309,-3.9264,-3.9245,-3.9298,-3.9551,-3.9859,-4.0173,-4.0334,-4.0334,-4.0187,-4.015,-4.0081,-3.9884,-3.9164,-3.8992,-3.9412,-3.8947,-3.8469,-3.8016,-3.7954,-3.7858,-3.7552,-3.751,-3.7641,-3.7915,-3.7918,-3.819,-3.8775,-3.8792,-3.9092,-3.9538,-3.9721,-4.0009,-4.0372,-4.1779,-4.3441,-4.5249,-4.5537,-4.5179,-4.4353,-4.4482,-4.4919,-4.555,-4.555,-4.5647,-4.5608,-4.5006,-4.4617,-4.4559,-4.3957,-4.3792,-4.4495,-4.4028,-4.3929,-4.466,-4.4036,-4.3462,-4.3392,-4.3279,-4.3398,-4.4296,-4.4448,-4.503,-4.5668,-4.5928,-4.5869,-4.5922,-4.5966,-4.5978,-4.5979,-4.6044,-4.6052,-4.6084,-4.6075,-4.6075,-4.6037,-4.6017,-4.6037,-4.6091,-4.6096,-4.6137,-4.617,-4.6191,-4.6209,-4.6195,-4.6195,-4.6221,-4.6289,-4.6267,-4.6245,-4.6777,-4.6324,-4.4396,-4.3534,-4.3516,-4.2771,-4.216,-4.1669,-4.1123,-4.0547,-4.0047,-4.001,-4.001,-3.9978,-3.9896,-4.0175,-4.0726,-4.0829,-4.121,-4.181,-4.2058,-4.1976,-4.1699,-4.1582,-4.121,-4.0641,-4.0458,-4.042,-4.0579,-4.0835,-4.112,-4.1456,-4.1254,-4.0849,-4.0335,-4.0199,-4.0187,-4.0321,-3.9767,-3.9653,-3.9888,-3.9627,-3.9204,-3.8637,-3.8633,-3.8581,-3.8431,-3.8527,-3.8825,-3.9331,-3.9507,-3.9522,-3.9347,-3.9437,-3.9596,-3.9783,-3.9893,-4.0185,-4.073,-4.2416,-4.3954,-4.5239,-4.5723,-4.582,-4.5483,-4.5403,-4.5556,-4.5958,-4.5977,-4.5977,-4.5977,-4.5666,-4.5473,-4.5492,-4.5131,-4.5098,-4.5423,-4.5261,-4.5156,-4.5464,-4.4507,-4.37,-4.3651,-4.3281,-4.3105,-4.3612,-4.4297,-4.5263,-4.6039,-4.6112,-4.6063,-4.6016,-4.6017,-4.6026,-4.6049,-4.6079,-4.6112,-4.6144,-4.6164,-4.6137,-4.6123,-4.6096,-4.6111,-4.6131,-4.6156,-4.6167,-4.6211,-4.6199,-4.6212,-4.6195,-4.6195,-4.6241,-4.6268,-4.6268,-4.6247,-4.8067,-4.7864,-4.5478,-4.4445,-4.4274,-4.3563,-4.3025,-4.265,-4.2937,-4.2794,-4.2304,-4.1526,-4.1097,-4.1079,-4.1013,-4.1199,-4.1582,-4.1802,-4.2071,-4.249,-4.2805,-4.2895,-4.2659,-4.2497,-4.2259,-4.1924,-4.1642,-4.1611,-4.1782,-4.2039,-4.2351,-4.2616,-4.2063,-4.1369,-4.0699,-4.0257,-4.0193,-4.0468,-4.0318,-4.0333,-4.051,-4.052,-4.0149,-3.9423,-3.9348,-3.9241,-3.9067,-3.9204,-3.9619,-4.0317,-4.0539,-4.0318,-3.9669,-3.9625,-3.9617,-3.9581,-3.9562,-4.0108,-4.1311,-4.2662,-4.3957,-4.4986,-4.5636,-4.5994,-4.5986,-4.5941,-4.591,-4.5986,-4.5997,-4.5997,-4.5997,-4.5977,-4.6027,-4.6099,-4.6107,-4.5942,-4.5919,-4.5792,-4.5523,-4.5254,-4.4025,-4.3043,-4.2968,-4.2676,-4.2693,-4.3279,-4.4335,-4.547,-4.603,-4.6133,-4.6123,-4.6147,-4.6086,-4.6072,-4.6117,-4.6138,-4.6162,-4.6201,-4.6201,-4.6192,-4.6187,-4.6206,-4.6192,-4.6197,-4.6199,-4.6209,-4.6218,-4.6231,-4.6221,-4.6223,-4.6219,-4.6219,-4.6267,-4.6287,-4.6267,-4.8956,-4.9501,-4.6856,-4.5399,-4.5034,-4.5273,-4.5278,-4.5334,-4.5978,-4.6234,-4.5631,-4.2608,-4.1203,-4.1046,-4.0848,-4.1336,-4.2264,-4.2139,-4.2788,-4.3871,-4.4259,-4.4096,-4.3573,-4.3474,-4.3071,-4.2461,-4.2234,-4.2285,-4.2408,-4.2541,-4.275,-4.2976,-4.2173,-4.1709,-4.1471,-4.0676,-4.0314,-4.0517,-4.066,-4.0759,-4.0843,-4.0859,-4.0687,-4.0392,-4.0358,-4.0296,-4.0139,-4.0158,-4.0215,-4.031,-4.0396,-4.0408,-4.0312,-4.0373,-4.0354,-4.0274,-4.0335,-4.1161,-4.2833,-4.3333,-4.419,-4.5666,-4.5871,-4.5905,-4.5953,-4.5925,-4.5905,-4.5897,-4.5936,-4.5936,-4.5997,-4.5928,-4.5842,-4.5862,-4.5928,-4.5839,-4.5164,-4.4413,-4.362,-4.2831,-4.2304,-4.1364,-4.1832,-4.2295,-4.313,-4.4485,-4.5371,-4.6055,-4.6208,-4.6215,-4.6209,-4.6243,-4.6215,-4.6175,-4.6183,-4.6241,-4.6243,-4.6215,-4.6212,-4.6206,-4.623,-4.6221,-4.6197,-4.6228,-4.6215,-4.6239,-4.6267,-4.6289,-4.6289,-4.6269,-4.6245,-4.6198,-4.6217,-4.6219,-4.6198,-5.0545,-5.0453,-4.8144,-4.6426,-4.5449,-4.5882,-4.611,-4.6144,-4.6544,-4.6457,-4.5884,-4.4327,-4.386,-4.4173,-4.3986,-4.412,-4.445,-4.4705,-4.5082,-4.5611,-4.5703,-4.5555,-4.5278,-4.4722,-4.4258,-4.3881,-4.3617,-4.3585,-4.3753,-4.4154,-4.3957,-4.3214,-4.3258,-4.2818,-4.1722,-4.1712,-4.1873,-4.2047,-4.2186,-4.2349,-4.2415,-4.1981,-4.1809,-4.1917,-4.1638,-4.1316,-4.1015,-4.0732,-4.0504,-4.0441,-4.0559,-4.0593,-4.0469,-4.0559,-4.0545,-4.0425,-4.0579,-4.1448,-4.3175,-4.343,-4.4229,-4.588,-4.5972,-4.5805,-4.5334,-4.5223,-4.5029,-4.4665,-4.4976,-4.5288,-4.523,-4.4831,-4.4573,-4.4655,-4.4694,-4.4555,-4.4272,-4.3906,-4.369,-4.3769,-4.2713,-4.2277,-4.3188,-4.371,-4.4435,-4.5518,-4.6112,-4.6269,-4.6289,-4.6268,-4.6268,-4.6289,-4.6268,-4.6246,-4.625,-4.6268,-4.6289,-4.6269,-4.6267,-4.6264,-4.625,-4.625,-4.6262,-4.6267,-4.6267,-4.6268,-4.6289,-4.6289,-4.6289,-4.6289,-4.6289,-4.6267,-4.6267,-4.6221,-4.6212,-5.2036,-5.1398,-4.9538,-4.7942,-4.6745,-4.7021,-4.7178,-4.721,-4.7466,-4.7124,-4.6411,-4.6392,-4.6394,-4.6424,-4.6178,-4.5919,-4.5907,-4.6456,-4.6756,-4.6821,-4.6814,-4.6863,-4.6787,-4.6233,-4.5709,-4.5449,-4.5393,-4.5336,-4.5328,-4.5776,-4.529,-4.4071,-4.4055,-4.3394,-4.2116,-4.2379,-4.2594,-4.2737,-4.3082,-4.3501,-4.3739,-4.3314,-4.3044,-4.3043,-4.266,-4.2188,-4.1641,-4.1234,-4.0861,-4.0559,-4.0662,-4.0681,-4.054,-4.0629,-4.0615,-4.053,-4.0694,-4.1548,-4.323,-4.3441,-4.4112,-4.5442,-4.5634,-4.5293,-4.4605,-4.4361,-4.4081,-4.3685,-4.3889,-4.415,-4.4339,-4.388,-4.3578,-4.3687,-4.3696,-4.3644,-4.3378,-4.334,-4.3555,-4.4043,-4.2729,-4.2675,-4.4177,-4.4738,-4.5199,-4.6,-4.6245,-4.6289,-4.6289,-4.6289,-4.6289,-4.6289,-4.6289,-4.6289,-4.6289,-4.6289,-4.6289,-4.6289,-4.6289,-4.6289,-4.6289,-4.6289,-4.6289,-4.6289,-4.6289,-4.6288,-4.6288,-4.6289,-4.6289,-4.6289,-4.6289,-4.6289,-4.6289,-4.623,-4.6202,-5.3189,-5.3215,-5.1224,-5.0116,-4.9921,-4.9286,-4.9064,-4.9059,-4.9457,-4.9227,-4.8386,-4.8393,-4.7899,-4.6853,-4.5879,-4.5413,-4.5655,-4.6487,-4.7001,-4.7231,-4.7571,-4.7742,-4.7742,-4.7811,-4.7413,-4.6665,-4.7087,-4.716,-4.6758,-4.7056,-4.6755,-4.5672,-4.4121,-4.3133,-4.2835,-4.227,-4.1757,-4.2325,-4.3138,-4.3808,-4.4559,-4.4734,-4.4325,-4.3532,-4.3279,-4.2847,-4.2035,-4.1861,-4.147,-4.0626,-4.0615,-4.0635,-4.0607,-4.0621,-4.0662,-4.0796,-4.0827,-4.1629,-4.3218,-4.35,-4.3908,-4.4644,-4.4804,-4.4393,-4.3602,-4.3485,-4.3412,-4.345,-4.2794,-4.277,-4.3342,-4.3284,-4.3338,-4.3473,-4.3598,-4.3216,-4.2519,-4.2461,-4.2441,-4.2617,-4.2212,-4.2427,-4.3615,-4.4409,-4.5273,-4.5972,-4.6206,-4.6221,-4.6289,-4.6289,-4.6289,-4.6289,-4.6289,-4.6289,-4.6289,-4.6289,-4.6289,-4.6289,-4.6289,-4.6289,-4.6289,-4.6288,-4.6288,-4.6287,-4.6241,-4.6239,-4.6282,-4.6289,-4.6289,-4.6289,-4.6289,-4.6289,-4.6289,-4.623,-4.6201,-5.3736,-5.312,-5.2088,-5.1463,-5.1124,-5.0647,-5.0495,-5.0438,-5.0052,-4.9121,-4.8022,-4.787,-4.7246,-4.6234,-4.6516,-4.6749,-4.7062,-4.7564,-4.8077,-4.856,-4.8599,-4.856,-4.8548,-4.8318,-4.8043,-4.7709,-4.7403,-4.6938,-4.6407,-4.6981,-4.6575,-4.5347,-4.4968,-4.4539,-4.4001,-4.4131,-4.4314,-4.4507,-4.5405,-4.585,-4.5694,-4.6209,-4.6033,-4.5123,-4.4588,-4.3799,-4.2705,-4.2323,-4.171,-4.0771,-4.0761,-4.0773,-4.0732,-4.0732,-4.1021,-4.1615,-4.1703,-4.247,-4.3957,-4.3802,-4.3879,-4.4607,-4.4187,-4.3535,-4.2819,-4.2617,-4.244,-4.1984,-4.1695,-4.166,-4.1861,-4.1963,-4.2018,-4.207,-4.2109,-4.2051,-4.1738,-4.1641,-4.2011,-4.3038,-4.3708,-4.4254,-4.381,-4.4791,-4.5754,-4.6072,-4.6191,-4.6215,-4.6243,-4.6287,-4.6289,-4.6289,-4.6289,-4.6289,-4.6289,-4.6289,-4.6289,-4.6269,-4.6269,-4.625,-4.625,-4.6237,-4.6237,-4.6239,-4.6206,-4.6206,-4.6251,-4.628,-4.6284,-4.6306,-4.6288,-4.6289,-4.6289,-4.623,-4.6214,-5.4106,-5.3465,-5.27,-5.2386,-5.2266,-5.1811,-5.1433,-5.1168,-5.0561,-4.934,-4.7897,-4.7689,-4.708,-4.6289,-4.6817,-4.7654,-4.8384,-4.869,-4.9155,-4.9674,-4.982,-4.9877,-4.989,-4.971,-4.9267,-4.869,-4.7911,-4.7369,-4.7299,-4.7907,-4.7265,-4.5691,-4.587,-4.5487,-4.4786,-4.5181,-4.5522,-4.5759,-4.6497,-4.667,-4.6294,-4.668,-4.6686,-4.6084,-4.5554,-4.4783,-4.3705,-4.3297,-4.2499,-4.1479,-4.1286,-4.1296,-4.1264,-4.1524,-4.1953,-4.251,-4.2636,-4.3238,-4.4423,-4.3976,-4.3753,-4.4238,-4.3518,-4.2664,-4.1888,-4.1779,-4.149,-4.113,-4.1033,-4.1065,-4.116,-4.138,-4.1422,-4.1269,-4.1191,-4.1191,-4.1191,-4.1211,-4.1699,-4.2633,-4.4011,-4.444,-4.4031,-4.4895,-4.5621,-4.6025,-4.6172,-4.6202,-4.6195,-4.625,-4.6289,-4.6289,-4.6269,-4.6269,-4.6269,-4.625,-4.6278,-4.6278,-4.6231,-4.6202,-4.6195,-4.6214,-4.6214,-4.6199,-4.6199,-4.6214,-4.6222,-4.6251,-4.6278,-4.6284,-4.6289,-4.6289,-4.6269,-4.625,-4.6014,-5.4325,-5.4549,-5.3139,-5.2977,-5.3459,-5.275,-5.1983,-5.1424,-5.1216,-5.0118,-4.8528,-4.8359,-4.7834,-4.6937,-4.7081,-4.7847,-4.9424,-5.0024,-5.0206,-5.0374,-5.1197,-5.1625,-5.1659,-5.1798,-5.1111,-4.9854,-4.9068,-4.9181,-4.9834,-4.9955,-4.9179,-4.7575,-4.6783,-4.6237,-4.5054,-4.5273,-4.5102,-4.5363,-4.6047,-4.6227,-4.6132,-4.628,-4.6328,-4.6134,-4.6153,-4.5803,-4.4879,-4.4724,-4.3839,-4.2452,-4.2209,-4.2189,-4.2296,-4.2859,-4.3422,-4.3471,-4.351,-4.3938,-4.4617,-4.4035,-4.3481,-4.3442,-4.2703,-4.1859,-4.1247,-4.1057,-4.1039,-4.1033,-4.1085,-4.1144,-4.1367,-4.1875,-4.2031,-4.1387,-4.1348,-4.1348,-4.1308,-4.125,-4.1188,-4.148,-4.2786,-4.3533,-4.3695,-4.4346,-4.5191,-4.5749,-4.6079,-4.6201,-4.6209,-4.6264,-4.6289,-4.6289,-4.6267,-4.6243,-4.6231,-4.621,-4.6241,-4.6267,-4.6214,-4.6182,-4.6197,-4.6211,-4.6211,-4.6211,-4.6201,-4.6201,-4.621,-4.6245,-4.6258,-4.6269,-4.6289,-4.6172,-4.5976,-4.5797,-4.547,-5.48,-5.4844,-5.4371,-5.4276,-5.4427,-5.365,-5.3013,-5.2522,-5.2043,-5.0905,-4.9631,-4.9519,-4.9235,-4.8911,-4.9061,-4.9952,-5.1254,-5.2197,-5.2444,-5.2141,-5.2527,-5.2526,-5.2182,-5.2278,-5.1849,-5.1063,-5.126,-5.1228,-5.1132,-5.1597,-5.0993,-4.9511,-4.8998,-4.8448,-4.7617,-4.6999,-4.6644,-4.6727,-4.6882,-4.6698,-4.6241,-4.7252,-4.7534,-4.7037,-4.7514,-4.7464,-4.6551,-4.5424,-4.4267,-4.3141,-4.3102,-4.3102,-4.3161,-4.3355,-4.3782,-4.4307,-4.4384,-4.4753,-4.5297,-4.4307,-4.3491,-4.3227,-4.2213,-4.1361,-4.1026,-4.1008,-4.1055,-4.1088,-4.1144,-4.1367,-4.1933,-4.2226,-4.2344,-4.207,-4.2031,-4.2012,-4.1933,-4.1963,-4.1663,-4.132,-4.2498,-4.316,-4.3044,-4.3753,-4.4754,-4.5161,-4.5675,-4.6078,-4.6175,-4.6217,-4.6289,-4.6289,-4.6261,-4.6234,-4.6218,-4.6197,-4.6211,-4.6236,-4.6201,-4.617,-4.6183,-4.6183,-4.6183,-4.6203,-4.6203,-4.6196,-4.6192,-4.6117,-4.6075,-4.6127,-4.6094,-4.5859,-4.5527,-4.5195,-4.4883,-5.4971,-5.4901,-5.4901,-5.4901,-5.4863,-5.4333,-5.3846,-5.3333,-5.2661,-5.1634,-5.0562,-5.0378,-5.0527,-5.0731,-5.1177,-5.2033,-5.3158,-5.4164,-5.4374,-5.4091,-5.4143,-5.3868,-5.3252,-5.3039,-5.28,-5.2394,-5.2577,-5.2597,-5.2421,-5.2822,-5.2423,-5.1235,-5.1025,-5.0586,-4.9833,-4.9198,-4.8879,-4.8899,-4.8565,-4.8076,-4.7767,-4.8273,-4.8419,-4.8001,-4.838,-4.8331,-4.7736,-4.6727,-4.5512,-4.4297,-4.3996,-4.4093,-4.4384,-4.4481,-4.4676,-4.5084,-4.5278,-4.5482,-4.5804,-4.4433,-4.3497,-4.326,-4.1968,-4.1025,-4.0998,-4.1065,-4.1177,-4.1531,-4.1658,-4.1973,-4.2734,-4.3242,-4.334,-4.3359,-4.3066,-4.2754,-4.2517,-4.2346,-4.1894,-4.1474,-4.1883,-4.2247,-4.2588,-4.2937,-4.3986,-4.4316,-4.5068,-4.5657,-4.5777,-4.6027,-4.6173,-4.627,-4.6241,-4.6234,-4.621,-4.6187,-4.617,-4.6183,-4.6169,-4.6162,-4.6154,-4.6154,-4.6135,-4.6162,-4.6174,-4.6176,-4.615,-4.5733,-4.5558,-4.5692,-4.5644,-4.5039,-4.4531,-4.4531,-4.4199,-5.4901,-5.4901,-5.4901,-5.4901,-5.4931,-5.4825,-5.4368,-5.374,-5.3236,-5.2485,-5.1603,-5.1491,-5.1769,-5.2455,-5.3015,-5.387,-5.4982,-5.5461,-5.5707,-5.5844,-5.5901,-5.558,-5.4814,-5.413,-5.3825,-5.3841,-5.3318,-5.3413,-5.4105,-5.417,-5.3611,-5.2865,-5.2714,-5.2311,-5.1576,-5.1381,-5.1186,-5.1082,-5.0355,-4.9788,-4.9703,-4.9175,-4.8749,-4.8662,-4.872,-4.863,-4.8269,-4.7911,-4.7076,-4.5356,-4.5122,-4.5356,-4.588,-4.6035,-4.5841,-4.588,-4.5977,-4.5969,-4.5741,-4.4456,-4.3539,-4.347,-4.2071,-4.1061,-4.1172,-4.1348,-4.167,-4.2353,-4.2479,-4.2832,-4.3672,-4.4316,-4.4785,-4.4922,-4.4238,-4.3454,-4.2541,-4.2348,-4.1896,-4.1232,-4.101,-4.1179,-4.1946,-4.2238,-4.2752,-4.3383,-4.43,-4.4935,-4.5222,-4.5626,-4.6093,-4.6206,-4.6211,-4.6226,-4.6201,-4.6189,-4.6176,-4.6189,-4.6174,-4.6127,-4.6111,-4.6111,-4.5896,-4.5944,-4.5885,-4.5959,-4.5715,-4.5133,-4.4848,-4.4887,-4.4531,-4.3887,-4.3633,-4.3633,-4.3359,-5.4773,-5.5028,-5.496,-5.4941,-5.5028,-5.496,-5.4585,-5.4119,-5.4033,-5.3775,-5.368,-5.3868,-5.4033,-5.467,-5.5017,-5.5375,-5.5805,-5.649,-5.6594,-5.6405,-5.7037,-5.647,-5.5313,-5.4431,-5.4374,-5.4816,-5.4696,-5.5065,-5.5868,-5.5709,-5.5299,-5.4619,-5.4346,-5.3982,-5.3346,-5.2539,-5.2311,-5.2108,-5.0764,-5.0011,-4.9965,-4.9792,-4.9331,-4.8805,-4.9206,-4.8844,-4.7764,-4.7007,-4.7162,-4.7589,-4.6948,-4.6715,-4.6812,-4.6357,-4.6017,-4.6007,-4.6007,-4.6018,-4.5729,-4.4472,-4.3637,-4.3521,-4.2103,-4.137,-4.1987,-4.2051,-4.248,-4.3144,-4.3379,-4.3711,-4.4473,-4.4883,-4.5254,-4.5696,-4.5106,-4.4042,-4.2793,-4.2299,-4.1972,-4.1179,-4.0935,-4.1101,-4.1353,-4.182,-4.2208,-4.2693,-4.3653,-4.4729,-4.4825,-4.543,-4.5981,-4.6117,-4.615,-4.6177,-4.6209,-4.6176,-4.6181,-4.6193,-4.6146,-4.6057,-4.6068,-4.606,-4.571,-4.5406,-4.5157,-4.5153,-4.4605,-4.3997,-4.4005,-4.4042,-4.373,-4.3262,-4.2891,-4.2734,-4.2363,-5.4784,-5.5028,-5.5,-5.5,-5.4981,-5.4931,-5.4698,-5.4401,-5.4318,-5.4568,-5.4837,-5.4701,-5.5316,-5.6365,-5.6444,-5.6725,-5.7086,-5.74,-5.731,-5.7035,-5.7113,-5.6641,-5.584,-5.5243,-5.5316,-5.5699,-5.5758,-5.605,-5.6411,-5.6471,-5.6173,-5.5733,-5.5333,-5.4716,-5.3842,-5.3079,-5.242,-5.2015,-5.1058,-5.0449,-5.0087,-5.0048,-4.9543,-4.8957,-4.9164,-4.8701,-4.7476,-4.7184,-4.7515,-4.7816,-4.731,-4.696,-4.7233,-4.655,-4.6102,-4.6056,-4.6054,-4.5967,-4.5423,-4.4323,-4.3509,-4.3095,-4.207,-4.1992,-4.2344,-4.2695,-4.332,-4.4101,-4.4238,-4.4687,-4.5312,-4.5526,-4.5712,-4.5972,-4.5728,-4.4738,-4.3033,-4.2852,-4.2205,-4.139,-4.0926,-4.0888,-4.0954,-4.1402,-4.1586,-4.1896,-4.2741,-4.3575,-4.4203,-4.5064,-4.5721,-4.5779,-4.567,-4.5546,-4.5351,-4.5266,-4.5149,-4.5258,-4.5387,-4.5426,-4.5504,-4.5523,-4.5126,-4.4659,-4.4456,-4.4145,-4.3637,-4.322,-4.3138,-4.3085,-4.2906,-4.2598,-4.2168,-4.207,-4.1641,-5.4814,-5.4931,-5.5057,-5.5057,-5.4941,-5.4931,-5.4822,-5.4578,-5.4392,-5.4867,-5.5503,-5.4988,-5.6064,-5.7751,-5.748,-5.7751,-5.8421,-5.7688,-5.7461,-5.7129,-5.6855,-5.6397,-5.6133,-5.6187,-5.6074,-5.6094,-5.6227,-5.6081,-5.5964,-5.5926,-5.5969,-5.5494,-5.4943,-5.4378,-5.3401,-5.2722,-5.2104,-5.157,-5.1183,-5.0678,-5.0093,-4.9729,-4.8993,-4.8235,-4.7684,-4.7435,-4.7026,-4.726,-4.7513,-4.698,-4.6473,-4.6797,-4.7245,-4.6651,-4.6222,-4.6059,-4.5962,-4.5626,-4.4937,-4.4078,-4.331,-4.2773,-4.2558,-4.2578,-4.2891,-4.3496,-4.4199,-4.5058,-4.5137,-4.5488,-4.5957,-4.6163,-4.6108,-4.6105,-4.6037,-4.5282,-4.4067,-4.3529,-4.283,-4.1218,-4.0907,-4.0888,-4.0888,-4.0907,-4.0975,-4.1353,-4.212,-4.281,-4.3469,-4.4148,-4.4809,-4.5278,-4.5071,-4.4764,-4.4491,-4.4226,-4.407,-4.4031,-4.416,-4.4258,-4.4359,-4.4339,-4.4125,-4.3853,-4.3572,-4.328,-4.293,-4.263,-4.2407,-4.2201,-4.2064,-4.166,-4.1289,-4.1484,-4.1308,-5.4629,-5.5066,-5.5094,-5.5149,-5.5176,-5.5094,-5.4933,-5.4746,-5.4798,-5.5636,-5.6874,-5.714,-5.7669,-5.8507,-5.8348,-5.8089,-5.7475,-5.7161,-5.6529,-5.5911,-5.6462,-5.6075,-5.5811,-5.6056,-5.6016,-5.5665,-5.5471,-5.5132,-5.4683,-5.458,-5.4114,-5.3627,-5.347,-5.2733,-5.1974,-5.1626,-5.1609,-5.1281,-5.0683,-5.0215,-4.9726,-4.8749,-4.7787,-4.6878,-4.567,-4.4811,-4.4532,-4.459,-4.4607,-4.4933,-4.6108,-4.7014,-4.7067,-4.6616,-4.6206,-4.5986,-4.5538,-4.5172,-4.4745,-4.3698,-4.2921,-4.3223,-4.291,-4.2988,-4.4375,-4.4551,-4.5137,-4.5801,-4.6035,-4.6035,-4.6182,-4.6177,-4.6131,-4.6088,-4.6007,-4.5386,-4.3977,-4.352,-4.2714,-4.1451,-4.0888,-4.0888,-4.0888,-4.0888,-4.0946,-4.1053,-4.15,-4.218,-4.2772,-4.3335,-4.3909,-4.4521,-4.4199,-4.3864,-4.3708,-4.3366,-4.3101,-4.2953,-4.3023,-4.3062,-4.3171,-4.3261,-4.3113,-4.2899,-4.2646,-4.2366,-4.2152,-4.1863,-4.1605,-4.1404,-4.1328,-4.125,-4.1191,-4.1191,-4.1172,-5.4642,-5.5094,-5.5176,-5.5229,-5.5281,-5.5229,-5.5111,-5.5034,-5.5173,-5.6275,-5.7641,-5.7887,-5.8403,-5.9347,-5.876,-5.8203,-5.832,-5.7907,-5.7327,-5.6688,-5.6626,-5.6059,-5.543,-5.5529,-5.5502,-5.5099,-5.471,-5.4248,-5.3956,-5.3741,-5.3533,-5.2651,-5.221,-5.1336,-5.0225,-4.9859,-4.9296,-4.8965,-4.8961,-4.8721,-4.8128,-4.786,-4.7087,-4.6208,-4.494,-4.4118,-4.3778,-4.372,-4.3479,-4.3711,-4.5117,-4.6319,-4.6413,-4.6284,-4.6088,-4.5629,-4.5721,-4.475,-4.3939,-4.3707,-4.3493,-4.3144,-4.334,-4.4082,-4.4902,-4.5332,-4.5781,-4.6172,-4.6289,-4.6287,-4.6222,-4.615,-4.6088,-4.6065,-4.6008,-4.5414,-4.4365,-4.3743,-4.283,-4.1432,-4.0888,-4.0888,-4.0888,-4.0888,-4.0907,-4.0975,-4.0994,-4.1636,-4.2257,-4.2791,-4.317,-4.3481,-4.3179,-4.2944,-4.2847,-4.2563,-4.2171,-4.2015,-4.1976,-4.1937,-4.1937,-4.2035,-4.2132,-4.1976,-4.186,-4.1622,-4.1395,-4.1106,-4.1101,-4.1169,-4.1211,-4.1191,-4.1191,-4.1191,-4.1172,-5.4917,-5.5121,-5.5255,-5.5352,-5.5358,-5.5358,-5.5356,-5.5339,-5.5499,-5.6637,-5.8114,-5.7856,-5.8792,-5.9763,-5.8995,-5.9151,-5.947,-5.908,-5.7984,-5.725,-5.6723,-5.5927,-5.5228,-5.4943,-5.478,-5.4683,-5.3993,-5.3545,-5.3327,-5.3349,-5.2571,-5.1943,-5.1288,-4.996,-4.8589,-4.7793,-4.7321,-4.6898,-4.7221,-4.7166,-4.6546,-4.6752,-4.6409,-4.5622,-4.4996,-4.4284,-4.3741,-4.3489,-4.3144,-4.2558,-4.3945,-4.4648,-4.5035,-4.57,-4.5917,-4.5126,-4.5564,-4.4883,-4.3672,-4.3808,-4.4043,-4.2832,-4.4004,-4.4961,-4.5351,-4.5781,-4.6133,-4.625,-4.6287,-4.6258,-4.6211,-4.613,-4.6054,-4.6027,-4.6007,-4.5608,-4.4889,-4.4112,-4.3025,-4.1587,-4.1043,-4.0888,-4.0888,-4.0888,-4.0888,-4.0907,-4.0907,-4.1082,-4.1704,-4.2092,-4.2384,-4.2461,-4.2169,-4.2071,-4.2002,-4.2002,-4.1571,-4.1532,-4.1338,-4.1213,-4.1135,-4.131,-4.1485,-4.1295,-4.1147,-4.1038,-4.1065,-4.1076,-4.1101,-4.1111,-4.1133,-4.1191,-4.1191,-4.1191,-4.1172,-5.5447,-5.5121,-5.5255,-5.5432,-5.5618,-5.564,-5.5673,-5.573,-5.5841,-5.6939,-5.8481,-5.8778,-5.9316,-6.0069,-6.021,-5.981,-5.9414,-5.8702,-5.7824,-5.7118,-5.6598,-5.5768,-5.456,-5.4191,-5.3837,-5.3221,-5.284,-5.2493,-5.2012,-5.17,-5.1322,-4.9887,-4.9531,-4.8568,-4.7441,-4.6518,-4.6736,-4.6548,-4.6624,-4.6469,-4.6313,-4.5826,-4.5382,-4.4675,-4.4394,-4.4082,-4.3691,-4.3066,-4.2539,-4.2519,-4.3398,-4.3887,-4.4355,-4.5469,-4.5683,-4.5273,-4.5176,-4.4687,-4.3711,-4.375,-4.4258,-4.4453,-4.4902,-4.541,-4.5879,-4.6152,-4.6269,-4.6289,-4.6256,-4.6221,-4.6211,-4.6107,-4.6018,-4.5988,-4.5938,-4.5686,-4.5045,-4.452,-4.3879,-4.2442,-4.1646,-4.1005,-4.1121,-4.1121,-4.1063,-4.1005,-4.0907,-4.0907,-4.1228,-4.1344,-4.1354,-4.1315,-4.116,-4.1159,-4.1177,-4.1235,-4.1166,-4.1321,-4.1216,-4.1042,-4.0965,-4.0936,-4.0906,-4.0952,-4.0984,-4.0999,-4.1039,-4.1057,-4.1097,-4.1108,-4.1152,-4.1191,-4.1191,-4.1191,-4.1191,-5.5579,-5.5121,-5.5333,-5.5512,-5.5691,-5.5821,-5.5932,-5.6046,-5.6157,-5.6914,-5.8045,-5.8824,-5.9553,-6.0163,-6.0378,-6.0122,-5.9629,-5.887,-5.8269,-5.7766,-5.6588,-5.5306,-5.396,-5.3574,-5.2787,-5.2205,-5.1908,-5.1771,-5.1342,-5.1375,-5.0591,-4.9797,-4.9404,-4.875,-4.7801,-4.7623,-4.7421,-4.7359,-4.6999,-4.6722,-4.666,-4.5889,-4.5294,-4.5018,-4.457,-4.4394,-4.4219,-4.3535,-4.3105,-4.3242,-4.3926,-4.4297,-4.4629,-4.4961,-4.5469,-4.5137,-4.5,-4.4629,-4.4141,-4.4355,-4.5117,-4.5,-4.5371,-4.582,-4.6152,-4.6289,-4.6289,-4.6269,-4.6248,-4.6206,-4.6206,-4.6063,-4.5998,-4.5977,-4.5977,-4.5783,-4.5433,-4.5045,-4.4326,-4.353,-4.2986,-4.2345,-4.1646,-4.1568,-4.1335,-4.114,-4.0946,-4.0936,-4.0965,-4.0926,-4.0917,-4.1111,-4.1228,-4.147,-4.1479,-4.1421,-4.1488,-4.1546,-4.1276,-4.1111,-4.0975,-4.0994,-4.0956,-4.0935,-4.096,-4.0984,-4.1013,-4.107,-4.1081,-4.1104,-4.1152,-4.1191,-4.1191,-4.1191,-4.1172,-5.5765,-5.5423,-5.549,-5.5628,-5.5763,-5.5942,-5.6132,-5.6285,-5.6305,-5.6831,-5.7758,-5.869,-5.9539,-6.0132,-6.0358,-6.0362,-6.0293,-5.9319,-5.8586,-5.789,-5.6356,-5.4819,-5.3748,-5.3046,-5.2321,-5.162,-5.1445,-5.1302,-5.1296,-5.1308,-5.0797,-5.0126,-4.9955,-4.9548,-4.8732,-4.8404,-4.8651,-4.8202,-4.7795,-4.734,-4.694,-4.652,-4.6197,-4.6186,-4.5559,-4.5234,-4.5156,-4.4394,-4.4004,-4.4121,-4.4531,-4.498,-4.5,-4.5019,-4.5098,-4.5195,-4.5098,-4.459,-4.457,-4.5273,-4.582,-4.5488,-4.5937,-4.6191,-4.6289,-4.6289,-4.6289,-4.6268,-4.6225,-4.6201,-4.6157,-4.6063,-4.5998,-4.5977,-4.5977,-4.5938,-4.5783,-4.553,-4.5278,-4.4676,-4.4287,-4.3452,-4.2461,-4.2287,-4.2112,-4.1364,-4.115,-4.112,-4.111,-4.0982,-4.1012,-4.1343,-4.1634,-4.2033,-4.2131,-4.2092,-4.2237,-4.244,-4.1936,-4.151,-4.1286,-4.114,-4.1062,-4.0974,-4.0971,-4.0996,-4.1018,-4.1052,-4.1096,-4.1127,-4.1146,-4.1172,-4.1191,-4.1172,-4.1152,-5.6387,-5.6377,-5.59,-5.5806,-5.5993,-5.6076,-5.6204,-5.6373,-5.6317,-5.6842,-5.7633,-5.8682,-5.9541,-6.0177,-6.0362,-6.039,-5.9882,-5.8702,-5.7695,-5.7054,-5.5696,-5.4274,-5.3084,-5.2812,-5.2145,-5.1486,-5.1375,-5.1355,-5.1308,-5.1304,-5.0894,-5.0253,-5.0057,-4.9623,-4.9088,-4.9072,-4.8262,-4.7679,-4.7416,-4.699,-4.6461,-4.6232,-4.6177,-4.6147,-4.6069,-4.5956,-4.5824,-4.518,-4.4816,-4.4853,-4.4931,-4.5034,-4.5019,-4.5019,-4.5449,-4.5664,-4.5508,-4.4961,-4.5019,-4.5742,-4.6269,-4.5996,-4.623,-4.6289,-4.6289,-4.6289,-4.6288,-4.6217,-4.621,-4.6176,-4.6137,-4.6036,-4.5998,-4.5977,-4.5977,-4.5977,-4.5919,-4.5841,-4.5608,-4.5589,-4.5122,-4.3957,-4.285,-4.2908,-4.285,-4.2024,-4.1392,-4.1401,-4.1488,-4.1507,-4.1557,-4.1975,-4.2325,-4.2714,-4.2908,-4.284,-4.2986,-4.3276,-4.2694,-4.2015,-4.1694,-4.1479,-4.1138,-4.1069,-4.1019,-4.0988,-4.1023,-4.1046,-4.1096,-4.1104,-4.1119,-4.1149,-4.1191,-4.1171,-4.1131,-5.6682,-5.6606,-5.6036,-5.6168,-5.668,-5.6402,-5.6306,-5.6329,-5.6371,-5.6534,-5.7125,-5.8496,-5.956,-6.0188,-6.0383,-6.0097,-5.9394,-5.7846,-5.6981,-5.6085,-5.4782,-5.3456,-5.2753,-5.2205,-5.1674,-5.1542,-5.1362,-5.1323,-5.1308,-5.1284,-5.1065,-5.0761,-5.068,-5.062,-4.9915,-5.0062,-4.9604,-4.8824,-4.7911,-4.7184,-4.6792,-4.6407,-4.6157,-4.6201,-4.6226,-4.6201,-4.6084,-4.5933,-4.566,-4.5682,-4.5687,-4.5696,-4.5586,-4.5391,-4.5371,-4.6113,-4.5469,-4.5273,-4.5703,-4.6094,-4.623,-4.6289,-4.6289,-4.6289,-4.6289,-4.6289,-4.6289,-4.6267,-4.6218,-4.6181,-4.6144,-4.6046,-4.6008,-4.5977,-4.5977,-4.5977,-4.5977,-4.5977,-4.5919,-4.5958,-4.5861,-4.4676,-4.3627,-4.3452,-4.3238,-4.2442,-4.2102,-4.2237,-4.246,-4.2693,-4.2762,-4.286,-4.319,-4.352,-4.3666,-4.3705,-4.3763,-4.3889,-4.3491,-4.2821,-4.2218,-4.1868,-4.1488,-4.1135,-4.1015,-4.0996,-4.1015,-4.1013,-4.1052,-4.107,-4.1081,-4.1121,-4.1169,-4.1151,-4.1132,-5.7153,-5.7443,-5.688,-5.6931,-5.7304,-5.6874,-5.6553,-5.632,-5.6338,-5.6302,-5.6666,-5.7955,-5.9196,-5.971,-5.95,-5.8826,-5.8339,-5.6716,-5.5915,-5.4938,-5.3864,-5.2752,-5.2204,-5.1674,-5.1444,-5.1386,-5.1366,-5.1336,-5.1356,-5.1361,-5.131,-5.1203,-5.1137,-5.1141,-5.1171,-5.0981,-5.0522,-4.966,-4.8366,-4.7767,-4.759,-4.6861,-4.6583,-4.6443,-4.6313,-4.617,-4.6151,-4.6105,-4.6111,-4.6104,-4.6124,-4.6097,-4.6055,-4.5762,-4.5683,-4.6113,-4.5683,-4.5664,-4.6016,-4.6269,-4.6289,-4.6289,-4.6289,-4.6289,-4.6289,-4.6289,-4.6287,-4.6262,-4.6222,-4.6181,-4.6144,-4.6036,-4.6008,-4.5977,-4.5977,-4.5977,-4.5977,-4.5977,-4.5977,-4.5977,-4.5861,-4.5511,-4.4637,-4.4132,-4.3569,-4.283,-4.2743,-4.3044,-4.3325,-4.3665,-4.3792,-4.3831,-4.4278,-4.453,-4.4608,-4.4696,-4.4715,-4.454,-4.4142,-4.3549,-4.2898,-4.2256,-4.1769,-4.1435,-4.1042,-4.1018,-4.1057,-4.1013,-4.0978,-4.1018,-4.1055,-4.1094,-4.1125,-4.1126,-4.1308,-5.8041,-5.9619,-5.888,-5.8141,-5.7496,-5.75,-5.6983,-5.6142,-5.6123,-5.6096,-5.6207,-5.72,-5.8145,-5.8548,-5.7662,-5.6969,-5.666,-5.4979,-5.4099,-5.3395,-5.2691,-5.2201,-5.1789,-5.1506,-5.1386,-5.1386,-5.1362,-5.1382,-5.1394,-5.1391,-5.132,-5.1224,-5.1268,-5.1245,-5.1162,-5.102,-5.0755,-4.9959,-4.8871,-4.8496,-4.8293,-4.7787,-4.7291,-4.7114,-4.6542,-4.6037,-4.6037,-4.6056,-4.6063,-4.6105,-4.6162,-4.6195,-4.6161,-4.6093,-4.6152,-4.6152,-4.6152,-4.6113,-4.6269,-4.6289,-4.6289,-4.6289,-4.6211,-4.6172,-4.6289,-4.6289,-4.6269,-4.6245,-4.6225,-4.6138,-4.6072,-4.5988,-4.5977,-4.5977,-4.5977,-4.5977,-4.5977,-4.5977,-4.5977,-4.5977,-4.5802,-4.5511,-4.5317,-4.4734,-4.4326,-4.3607,-4.3986,-4.4307,-4.4161,-4.4384,-4.4618,-4.4842,-4.5366,-4.5638,-4.5725,-4.5677,-4.5424,-4.5249,-4.4977,-4.4248,-4.3471,-4.283,-4.2255,-4.1416,-4.0984,-4.1045,-4.1078,-4.1033,-4.1006,-4.1003,-4.1042,-4.1078,-4.1238,-4.1344,-4.164,-5.9265,-5.9971,-5.9748,-5.9101,-5.8094,-5.6593,-5.5636,-5.51,-5.4639,-5.4827,-5.5385,-5.5897,-5.6316,-5.6441,-5.625,-5.5443,-5.4901,-5.3808,-5.3066,-5.2596,-5.2184,-5.173,-5.1411,-5.1394,-5.1386,-5.1388,-5.1375,-5.1342,-5.1323,-5.1377,-5.1322,-5.1266,-5.1313,-5.1277,-5.115,-5.0848,-5.0573,-5.0367,-4.9473,-4.8854,-4.9195,-4.8602,-4.8125,-4.8068,-4.7291,-4.6851,-4.6735,-4.623,-4.6124,-4.6127,-4.6183,-4.6182,-4.6212,-4.6267,-4.6289,-4.6289,-4.6289,-4.6289,-4.6289,-4.6289,-4.6289,-4.6172,-4.5898,-4.5742,-4.623,-4.6289,-4.6289,-4.628,-4.6225,-4.6151,-4.6125,-4.6046,-4.5977,-4.5977,-4.5977,-4.5977,-4.5977,-4.5977,-4.5977,-4.5977,-4.5861,-4.5647,-4.5472,-4.5258,-4.487,-4.454,-4.5074,-4.5434,-4.5172,-4.5036,-4.5211,-4.522,-4.5638,-4.5793,-4.5822,-4.588,-4.5958,-4.5802,-4.5608,-4.4753,-4.386,-4.3491,-4.2819,-4.1844,-4.0984,-4.1018,-4.1025,-4.102,-4.1007,-4.1,-4.1031,-4.1091,-4.128,-4.1597,-4.2128,-6.0008,-6.004,-5.9627,-5.9031,-5.8048,-5.5789,-5.4301,-5.3532,-5.2762,-5.3056,-5.4091,-5.421,-5.4546,-5.4694,-5.419,-5.4054,-5.3476,-5.2792,-5.2439,-5.2064,-5.1723,-5.1428,-5.1394,-5.1372,-5.1356,-5.1356,-5.1356,-5.1323,-5.1349,-5.1386,-5.1342,-5.1328,-5.1338,-5.1299,-5.1102,-5.0704,-5.0634,-5.0689,-5.0264,-4.9612,-5.0126,-4.9473,-4.9007,-4.8863,-4.8133,-4.7745,-4.7473,-4.6987,-4.6542,-4.6461,-4.6359,-4.6192,-4.6202,-4.6241,-4.6288,-4.6289,-4.6289,-4.6289,-4.6289,-4.6289,-4.6289,-4.6211,-4.5898,-4.5879,-4.6094,-4.6289,-4.6245,-4.6256,-4.6201,-4.6164,-4.6138,-4.6036,-4.5997,-4.5977,-4.5977,-4.5977,-4.5977,-4.5977,-4.5977,-4.5977,-4.5861,-4.5802,-4.5725,-4.5589,-4.5414,-4.5025,-4.4986,-4.5444,-4.5696,-4.5618,-4.5716,-4.5657,-4.5618,-4.5627,-4.5608,-4.555,-4.5511,-4.553,-4.5278,-4.4851,-4.4181,-4.3782,-4.2926,-4.1594,-4.0988,-4.0984,-4.0991,-4.1025,-4.1006,-4.0979,-4.1201,-4.1518,-4.185,-4.2255,-4.289,-6.0019,-5.9909,-5.8393,-5.7577,-5.6982,-5.5297,-5.3338,-5.1563,-5.0718,-5.1008,-5.2027,-5.2219,-5.2845,-5.3214,-5.2327,-5.2199,-5.2557,-5.1927,-5.1572,-5.1538,-5.1503,-5.1405,-5.1375,-5.1349,-5.1316,-5.1335,-5.1342,-5.1369,-5.1381,-5.1402,-5.1382,-5.1367,-5.1342,-5.1332,-5.1228,-5.1191,-5.1191,-5.1159,-5.1026,-5.0977,-5.0789,-5.0234,-4.9943,-4.9668,-4.8832,-4.8347,-4.8114,-4.7259,-4.6784,-4.6717,-4.6364,-4.6183,-4.6144,-4.6237,-4.6267,-4.6223,-4.6268,-4.6289,-4.6289,-4.6289,-4.6289,-4.623,-4.5918,-4.5976,-4.6172,-4.6246,-4.6215,-4.6225,-4.617,-4.608,-4.6047,-4.6026,-4.6007,-4.5977,-4.5977,-4.5841,-4.5822,-4.5977,-4.5977,-4.5569,-4.5763,-4.5977,-4.5958,-4.5899,-4.5841,-4.555,-4.5161,-4.5336,-4.5841,-4.5977,-4.5977,-4.5919,-4.5725,-4.5647,-4.555,-4.5181,-4.5064,-4.5122,-4.5084,-4.4792,-4.4268,-4.3676,-4.2636,-4.1332,-4.098,-4.0976,-4.1003,-4.105,-4.1213,-4.148,-4.1838,-4.2175,-4.2509,-4.2971,-4.3632,-5.9718,-5.9087,-5.6766,-5.4957,-5.36,-5.2336,-5.0574,-4.8694,-4.8014,-4.8316,-4.9299,-4.9653,-5.0383,-5.0834,-5.1093,-5.1052,-5.1656,-5.1711,-5.1391,-5.139,-5.1386,-5.14,-5.1382,-5.1342,-5.13,-5.13,-5.1342,-5.1362,-5.1386,-5.1398,-5.1363,-5.1347,-5.1359,-5.1327,-5.1304,-5.1271,-5.1209,-5.1245,-5.1206,-5.118,-5.1152,-5.0899,-5.0713,-5.065,-4.9396,-4.8755,-4.858,-4.7492,-4.6812,-4.6668,-4.6244,-4.6157,-4.6138,-4.6212,-4.6245,-4.6223,-4.6268,-4.6243,-4.6246,-4.625,-4.6289,-4.6133,-4.582,-4.5781,-4.6152,-4.6204,-4.6212,-4.6191,-4.6131,-4.608,-4.6063,-4.6027,-4.6007,-4.6007,-4.5899,-4.555,-4.5491,-4.5783,-4.5822,-4.5103,-4.4928,-4.5686,-4.5958,-4.5725,-4.5627,-4.588,-4.555,-4.553,-4.5938,-4.5977,-4.5977,-4.5977,-4.588,-4.5744,-4.555,-4.522,-4.5161,-4.5356,-4.5297,-4.5084,-4.4462,-4.3627,-4.2558,-4.1352,-4.1135,-4.0996,-4.1225,-4.1466,-4.1779,-4.2059,-4.2559,-4.2927,-4.3246,-4.3788,-4.4452,-5.9607,-5.8086,-5.5372,-5.2826,-5.068,-4.9644,-4.803,-4.629,-4.6102,-4.6691,-4.7563,-4.8205,-4.9138,-4.9878,-5.0164,-5.0586,-5.1335,-5.1385,-5.1371,-5.1372,-5.1369,-5.1356,-5.1342,-5.1296,-5.13,-5.13,-5.1316,-5.1375,-5.14,-5.1394,-5.1379,-5.1347,-5.1328,-5.1372,-5.1366,-5.1323,-5.1284,-5.1291,-5.1278,-5.1257,-5.1226,-5.1161,-5.1172,-5.0875,-5.0192,-4.9435,-4.8774,-4.7803,-4.6715,-4.6484,-4.624,-4.6135,-4.6138,-4.6186,-4.6215,-4.6239,-4.6265,-4.6217,-4.6215,-4.6221,-4.6113,-4.5723,-4.525,-4.5311,-4.5717,-4.5656,-4.5913,-4.6,-4.6091,-4.608,-4.6046,-4.6007,-4.5929,-4.591,-4.5599,-4.5249,-4.5142,-4.5414,-4.5433,-4.4695,-4.454,-4.5278,-4.588,-4.555,-4.5317,-4.5647,-4.5958,-4.5977,-4.5977,-4.5977,-4.5977,-4.5958,-4.5783,-4.5491,-4.5375,-4.5278,-4.5317,-4.555,-4.5414,-4.523,-4.4336,-4.3442,-4.2403,-4.1507,-4.126,-4.1225,-4.1641,-4.1987,-4.2611,-4.3078,-4.349,-4.3812,-4.4031,-4.4572,-4.5234,-5.9547,-5.6959,-5.4226,-5.1294,-4.8653,-4.7536,-4.5988,-4.4448,-4.5526,-4.6263,-4.6721,-4.7829,-4.872,-4.965,-4.9895,-5.0388,-5.1066,-5.1216,-5.1291,-5.1225,-5.114,-5.1172,-5.1133,-5.1106,-5.1008,-5.116,-5.131,-5.1388,-5.14,-5.1385,-5.1384,-5.1387,-5.1387,-5.1387,-5.1387,-5.1377,-5.1336,-5.1332,-5.1347,-5.1308,-5.1271,-5.1078,-5.1074,-5.0888,-5.0534,-4.994,-4.9299,-4.8483,-4.7706,-4.7105,-4.6474,-4.6192,-4.608,-4.6147,-4.6182,-4.616,-4.6143,-4.6192,-4.6011,-4.5987,-4.5581,-4.5106,-4.5012,-4.4982,-4.5109,-4.5314,-4.569,-4.5955,-4.6083,-4.6047,-4.6026,-4.589,-4.5754,-4.5521,-4.521,-4.4958,-4.4773,-4.4812,-4.4831,-4.4617,-4.4559,-4.5006,-4.5578,-4.5462,-4.5346,-4.5686,-4.5977,-4.5977,-4.5977,-4.5977,-4.5977,-4.5919,-4.5647,-4.5142,-4.5103,-4.5375,-4.5453,-4.5666,-4.5482,-4.5191,-4.4239,-4.3413,-4.2674,-4.1972,-4.1432,-4.1524,-4.2225,-4.3006,-4.3773,-4.4187,-4.4415,-4.4742,-4.4984,-4.5367,-4.5897,-5.7555,-5.4424,-5.1552,-4.9027,-4.6972,-4.5772,-4.4917,-4.4505,-4.5119,-4.5592,-4.5993,-4.712,-4.7956,-4.8211,-4.8301,-4.9283,-5.002,-5.0555,-5.0888,-5.0887,-5.0677,-5.0463,-5.0424,-5.0482,-5.0404,-5.0672,-5.1005,-5.138,-5.139,-5.1398,-5.1386,-5.1387,-5.1387,-5.1387,-5.1387,-5.1387,-5.1348,-5.132,-5.1335,-5.1301,-5.1084,-5.0797,-5.0833,-5.0753,-5.0195,-4.9621,-4.893,-4.8289,-4.7434,-4.6493,-4.6231,-4.6066,-4.6099,-4.6117,-4.6069,-4.5416,-4.5675,-4.5991,-4.5493,-4.5882,-4.5682,-4.4685,-4.466,-4.4904,-4.5069,-4.5319,-4.5679,-4.5782,-4.5969,-4.5998,-4.5949,-4.5823,-4.5706,-4.5473,-4.522,-4.5074,-4.488,-4.4734,-4.4695,-4.418,-4.4141,-4.4732,-4.5315,-4.5608,-4.5541,-4.5832,-4.5997,-4.6007,-4.5977,-4.5977,-4.5977,-4.5938,-4.5822,-4.5433,-4.553,-4.5783,-4.5744,-4.5725,-4.557,-4.5172,-4.4239,-4.349,-4.2963,-4.263,-4.2385,-4.2607,-4.3121,-4.3909,-4.4682,-4.4985,-4.5219,-4.56,-4.5937,-4.6093,-4.6182,-5.5898,-5.2818,-4.9944,-4.7567,-4.5805,-4.5182,-4.4893,-4.4862,-4.507,-4.5507,-4.6216,-4.6969,-4.7372,-4.7634,-4.8062,-4.8876,-5.0034,-4.9802,-5.0134,-5.0899,-5.0092,-5.0287,-5.0209,-5.017,-5.0326,-5.0587,-5.0972,-5.1369,-5.139,-5.1396,-5.1387,-5.1387,-5.1387,-5.1387,-5.1387,-5.1367,-5.1152,-5.1133,-5.111,-5.1144,-5.0816,-5.0499,-5.0608,-5.0138,-4.94,-4.9154,-4.825,-4.7667,-4.722,-4.623,-4.6056,-4.6056,-4.5957,-4.5825,-4.5582,-4.5055,-4.5254,-4.5597,-4.5573,-4.5908,-4.5284,-4.4728,-4.4791,-4.5017,-4.5056,-4.5148,-4.5326,-4.5483,-4.5736,-4.5929,-4.5862,-4.5794,-4.5677,-4.5551,-4.5425,-4.5279,-4.5104,-4.49,-4.4355,-4.3703,-4.3906,-4.4547,-4.5013,-4.5375,-4.5696,-4.591,-4.6007,-4.6037,-4.6007,-4.5977,-4.5977,-4.5958,-4.5958,-4.5861,-4.5997,-4.6007,-4.5949,-4.5881,-4.5823,-4.5288,-4.4296,-4.3916,-4.3708,-4.3631,-4.3545,-4.3806,-4.4067,-4.478,-4.546,-4.5652,-4.5733,-4.5917,-4.6053,-4.6122,-4.6179,-5.4454,-5.1659,-4.8974,-4.6711,-4.5074,-4.5329,-4.5519,-4.552,-4.5445,-4.5926,-4.6763,-4.7177,-4.7318,-4.7363,-4.7781,-4.8595,-4.9112,-4.899,-4.9418,-5.1008,-4.9664,-4.9547,-5.0112,-5.0404,-5.0307,-5.0872,-5.1296,-5.1369,-5.1377,-5.1389,-5.1387,-5.1387,-5.1387,-5.1387,-5.1387,-5.1387,-5.1191,-5.0918,-5.0859,-5.0798,-5.0295,-5.0284,-5.0355,-4.934,-4.943,-4.9687,-4.8172,-4.7667,-4.7764,-4.6676,-4.6026,-4.6046,-4.5822,-4.5529,-4.5195,-4.5058,-4.5197,-4.5351,-4.5638,-4.5943,-4.5558,-4.5304,-4.5492,-4.5357,-4.5182,-4.524,-4.5444,-4.5522,-4.5793,-4.5852,-4.5803,-4.5891,-4.5833,-4.5706,-4.557,-4.5483,-4.5376,-4.5045,-4.448,-4.4023,-4.4236,-4.4799,-4.5024,-4.5414,-4.5755,-4.5959,-4.6037,-4.6066,-4.6037,-4.6007,-4.6007,-4.6007,-4.5977,-4.6007,-4.6007,-4.6007,-4.6037,-4.6018,-4.5842,-4.552,-4.4654,-4.4506,-4.4581,-4.4584,-4.4617,-4.4723,-4.5032,-4.5538,-4.5832,-4.5963,-4.6056,-4.6133,-4.6202,-4.6189,-4.6167,-5.3029,-4.9386,-4.7174,-4.5898,-4.546,-4.5531,-4.608,-4.6756,-4.6102,-4.6018,-4.6423,-4.701,-4.7102,-4.6815,-4.6898,-4.7537,-4.8039,-4.8126,-4.8522,-4.9216,-4.8865,-4.9021,-4.9586,-4.9995,-5.017,-5.0451,-5.0869,-5.1366,-5.1379,-5.1394,-5.1387,-5.1387,-5.1387,-5.1387,-5.1387,-5.1387,-5.1211,-5.082,-5.0586,-5.0156,-4.9439,-4.8708,-4.8275,-4.8308,-4.8769,-4.8463,-4.7492,-4.7453,-4.7453,-4.6948,-4.6348,-4.6134,-4.6049,-4.5812,-4.5412,-4.509,-4.5527,-4.5702,-4.5831,-4.6111,-4.594,-4.5529,-4.5493,-4.5327,-4.5318,-4.5541,-4.5666,-4.5725,-4.5793,-4.5784,-4.5765,-4.5891,-4.6008,-4.5833,-4.5706,-4.5667,-4.5638,-4.5151,-4.4625,-4.4663,-4.4799,-4.4927,-4.5121,-4.5375,-4.5755,-4.5959,-4.6056,-4.6095,-4.6076,-4.6056,-4.6047,-4.6017,-4.6007,-4.6007,-4.5949,-4.5794,-4.5687,-4.5511,-4.5296,-4.5071,-4.4884,-4.4993,-4.5071,-4.5492,-4.5687,-4.557,-4.5531,-4.5819,-4.6072,-4.615,-4.6167,-4.6171,-4.618,-4.616,-4.615,-5.1561,-4.861,-4.6718,-4.5898,-4.587,-4.587,-4.6268,-4.6674,-4.6347,-4.6147,-4.6237,-4.6672,-4.6719,-4.6301,-4.6231,-4.6639,-4.7259,-4.7047,-4.7898,-4.8456,-4.8573,-4.8826,-4.9196,-4.982,-5.0307,-5.0626,-5.1031,-5.1396,-5.1389,-5.1398,-5.1387,-5.1387,-5.1387,-5.1387,-5.1387,-5.1387,-5.1211,-5.082,-5.041,-4.9726,-4.897,-4.863,-4.8151,-4.83,-4.8253,-4.7883,-4.757,-4.755,-4.7589,-4.7201,-4.6473,-4.6124,-4.6036,-4.5969,-4.6008,-4.6122,-4.6411,-4.6636,-4.6625,-4.6683,-4.6738,-4.6357,-4.6202,-4.6318,-4.5716,-4.5842,-4.5521,-4.558,-4.5841,-4.589,-4.556,-4.557,-4.5911,-4.5959,-4.5881,-4.5852,-4.5832,-4.5627,-4.5343,-4.5328,-4.527,-4.5049,-4.5146,-4.5071,-4.5472,-4.5969,-4.6066,-4.6095,-4.6085,-4.6095,-4.6066,-4.6056,-4.6047,-4.5667,-4.5347,-4.522,-4.5122,-4.4945,-4.4865,-4.4814,-4.4834,-4.5237,-4.5589,-4.5823,-4.5988,-4.5959,-4.5998,-4.6065,-4.6072,-4.6111,-4.6132,-4.615,-4.6145,-4.6128,-4.6125,-5.0256,-4.8367,-4.6713,-4.603,-4.6005,-4.5868,-4.6026,-4.6262,-4.6147,-4.6189,-4.6269,-4.6328,-4.6289,-4.6284,-4.627,-4.6761,-4.6928,-4.6625,-4.7372,-4.8027,-4.8047,-4.8787,-4.9566,-5.017,-5.0638,-5.0977,-5.1291,-5.138,-5.139,-5.1385,-5.1398,-5.1386,-5.1387,-5.1387,-5.1387,-5.1328,-5.1152,-5.0664,-5.0176,-4.9648,-4.9456,-4.9347,-4.8552,-4.8412,-4.8582,-4.8679,-4.8036,-4.7881,-4.7997,-4.7784,-4.7104,-4.6648,-4.625,-4.6201,-4.6581,-4.6804,-4.7057,-4.7592,-4.8096,-4.8195,-4.7874,-4.7534,-4.7464,-4.7076,-4.6426,-4.6018,-4.5716,-4.5648,-4.591,-4.5871,-4.556,-4.5482,-4.5842,-4.6066,-4.6026,-4.5966,-4.5966,-4.5947,-4.5906,-4.584,-4.5607,-4.5316,-4.5223,-4.5129,-4.5354,-4.5852,-4.6027,-4.6047,-4.6056,-4.6104,-4.6122,-4.6104,-4.6095,-4.5628,-4.5171,-4.5055,-4.5131,-4.4895,-4.4873,-4.4783,-4.4881,-4.544,-4.5803,-4.592,-4.6037,-4.6037,-4.6017,-4.6027,-4.6054,-4.6096,-4.6136,-4.6172,-4.6124,-4.6119,-4.6088,-4.9567,-4.6679,-4.5661,-4.5251,-4.5117,-4.4512,-4.4961,-4.6035,-4.5527,-4.5625,-4.6113,-4.6269,-4.6289,-4.6289,-4.6234,-4.6433,-4.6538,-4.6306,-4.6826,-4.754,-4.8319,-4.9157,-4.9917,-5.0541,-5.1028,-5.125,-5.1316,-5.1336,-5.1391,-5.139,-5.1389,-5.1402,-5.1386,-5.1387,-5.1387,-5.1327,-5.1226,-5.068,-4.9937,-4.9324,-4.9326,-4.8896,-4.7908,-4.7684,-4.7678,-4.766,-4.763,-4.8202,-4.8813,-4.8968,-4.8425,-4.7609,-4.7123,-4.6676,-4.695,-4.7602,-4.7835,-4.8292,-4.8827,-4.9032,-4.8662,-4.7777,-4.7602,-4.7466,-4.696,-4.664,-4.6329,-4.6056,-4.6163,-4.6056,-4.5823,-4.5793,-4.6007,-4.6026,-4.5997,-4.5941,-4.5898,-4.5933,-4.5944,-4.5922,-4.5844,-4.5761,-4.5784,-4.5706,-4.5686,-4.6027,-4.6066,-4.6075,-4.6095,-4.6122,-4.6138,-4.6149,-4.6141,-4.6122,-4.5879,-4.555,-4.5462,-4.5148,-4.4951,-4.5029,-4.5282,-4.5791,-4.6084,-4.6066,-4.6056,-4.6076,-4.6066,-4.6046,-4.606,-4.6118,-4.6173,-4.6191,-4.6136,-4.6089,-4.6072]},{"header":{"parameterUnit":"m.s-1","parameterCategory":1,"la1":31.0,"la2":29.5877,"lo1":-88.7671,"lo2":-86.6584,"dy":0.0162,"dx":0.0185,"nx":115,"ny":88,"refTime":"2024-03-14T00:00:00:Z","depth":0,"parameterNumber":3,"parameterNumberName":"V-component_of_WINDS"},"data":[0.0,0.0,0.0,0.0,0.0,0.0,0.0,0.0,0.0,0.0,0.0,0.0,0.0,0.0,0.0,0.0,0.0,0.0,0.0,0.0,0.0,0.0,0.0,0.0,0.0,0.0,0.0,0.0,0.0,0.0,0.0,0.0,0.0,0.0,0.0,0.0,0.0,0.0,0.0,0.0,0.0,0.0,0.0,0.0,0.0,0.0,0.0,0.0,0.0,0.0,0.0,0.0,0.0,0.0,0.0,0.0,0.0,0.0,0.0,0.0,0.0,0.0,0.0,0.0,0.0,0.0,0.0,0.0,0.0,0.0,0.0,0.0,0.0,0.0,0.0,0.0,0.0,0.0,0.0,0.0,0.0,0.0,0.0,0.0,0.0,0.0,0.0,0.0,0.0,0.0,0.0,0.0,0.0,0.0,0.0,0.0,0.0,0.0,0.0,0.0,0.0,0.0,0.0,0.0,0.0,0.0,0.0,0.0,0.0,0.0,0.0,0.0,0.0,0.0,0.0,0.0,0.0,0.0,0.0,0.0,0.0,0.0,0.0,0.0,0.0,0.0,0.0,0.0,0.0,0.0,0.0,0.0,0.0,0.0,0.0,0.0,0.0,0.0,0.0,0.0,0.0,0.0,0.0,0.0,0.0,0.0,0.0,0.0,0.0,0.0,0.0,0.0,0.0,0.0,0.0,0.0,0.0,0.0,0.0,0.0,0.0,0.0,0.0,0.0,0.0,0.0,0.0,0.0,0.0,0.0,0.0,0.0,0.0,0.0,0.0,0.0,0.0,0.0,0.0,0.0,0.0,0.0,0.0,0.0,0.0,0.0,0.0,0.0,0.0,0.0,0.0,0.0,0.0,0.0,0.0,0.0,0.0,0.0,0.0,0.0,0.0,0.0,0.0,0.0,0.0,0.0,0.0,0.0,0.0,0.0,0.0,0.0,0.0,0.0,0.0,0.0,0.0,0.0,0.0,0.0,0.0,0.0,0.0,0.0,0.0,0.0,0.0,0.0,0.0,0.0,0.0,0.0,0.0,0.0,0.0,0.0,0.0,0.0,0.0,0.0,0.0,0.0,0.0,0.0,0.0,0.0,0.0,0.0,0.0,0.0,0.0,0.0,0.0,0.0,0.0,0.0,0.0,0.0,0.0,0.0,0.0,0.0,0.0,0.0,0.0,0.0,0.0,0.0,0.0,0.0,0.0,0.0,0.0,0.0,0.0,0.0,0.0,0.0,0.0,0.0,0.0,0.0,0.0,0.0,0.0,0.0,0.0,0.0,0.0,0.0,0.0,0.0,0.0,0.0,0.0,0.0,0.0,0.0,0.0,0.0,0.0,0.0,0.0,0.0,0.0,0.0,0.0,0.0,0.0,0.0,0.0,0.0,0.0,0.0,0.0,0.0,0.0,0.0,0.0,0.0,0.0,0.0,0.0,0.0,0.0,0.0,0.0,0.0,0.0,0.0,0.0,0.0,0.0,0.0,0.0,0.0,0.0,0.0,0.0,0.0,0.0,0.0,0.0,0.0,0.0,0.0,0.0,0.0,0.0,0.0,0.0,0.0,0.0,0.0,0.0,0.0,0.0,0.0,0.0,0.0,0.0,0.0,0.0,0.0,0.0,0.0,0.0,0.0,0.0,0.0,0.0,0.0,0.0,0.0,0.0,0.0,0.0,0.0,0.0,0.0,0.0,0.0,0.0,0.0,0.0,0.0,0.0,0.0,0.0,0.0,0.0,0.0,0.0,0.0,0.0,0.0,0.0,0.0,0.0,0.0,0.0,0.0,0.0,0.0,0.0,0.0,0.0,0.0,0.0,0.0,0.0,0.0,0.0,0.0,0.0,0.0,0.0,0.0,0.0,0.0,0.0,0.0,0.0,0.0,0.0,0.0,0.0,0.0,0.0,0.0,0.0,0.0,0.0,0.0,0.0,0.0,0.0,0.0,0.0,0.0,0.0,0.0,0.0,0.0,0.0,0.0,0.0,0.0,0.0,0.0,0.0,0.0,0.0,0.0,0.0,0.0,0.0,0.0,0.0,0.0,0.0,0.0,0.0,0.0,0.0,0.0,0.0,0.0,0.0,0.0,0.0,0.0,0.0,0.0,0.0,0.0,0.0,0.0,0.0,0.0,0.0,0.0,0.0,0.0,0.0,0.0,0.0,0.0,0.0,0.0,0.0,0.0,0.0,0.0,0.0,0.0,0.0,0.0,0.0,0.0,0.0,0.0,0.0,0.0,0.0,0.0,0.0,0.0,0.0,0.0,0.0,0.0,0.0,0.0,0.0,0.0,0.0,0.0,0.0,0.0,0.0,0.0,0.0,0.0,0.0,0.0,0.0,0.0,0.0,0.0,0.0,0.0,0.0,0.0,0.0,0.0,0.0,0.0,0.0,0.0,0.0,0.0,0.0,0.0,0.0,0.0,0.0,0.0,0.0,0.0,0.0,0.0,0.0,0.0,0.0,0.0,0.0,0.0,0.0,0.0,0.0,0.0,0.0,0.0,0.0,0.0,0.0,0.0,0.0,0.0,0.0,0.0,0.0,0.0,0.0,0.0,0.0,0.0,0.0,0.0,0.0,0.0,0.0,0.0,0.0,0.0,0.0,0.0,0.0,0.0,0.0,0.0,0.0,0.0,0.0,0.0,0.0,0.0,0.0,0.0,0.0,0.0,0.0,0.0,0.0,0.0,0.0,0.0,0.0,0.0,0.0,0.0,0.0,0.0,0.0,0.0,0.0,0.0,0.0,0.0,0.0,0.0,0.0,0.0,0.0,0.0,0.0,0.0,0.0,0.0,0.0,0.0,0.0,0.0,0.0,0.0,0.0,0.0,0.0,0.0,0.0,0.0,0.0,0.0,0.0,0.0,0.0,0.0,0.0,0.0,0.0,0.0,0.0,0.0,0.0,0.0,0.0,0.0,0.0,0.0,0.0,0.0,0.0,0.0,0.0,0.0,0.0,0.0,0.0,0.0,0.0,0.0,0.0,0.0,0.0,0.0,0.0,0.0,0.0,0.0,0.0,0.0,0.0,0.0,0.0,0.0,0.0,0.0,0.0,0.0,0.0,0.0,0.0,0.0,0.0,0.0,0.0,0.0,0.0,0.0,0.0,0.0,0.0,0.0,0.0,0.0,0.0,0.0,0.0,0.0,0.0,0.0,0.0,0.0,0.0,0.0,0.0,0.0,0.0,0.0,0.0,0.0,0.0,0.0,0.0,0.0,0.0,0.0,0.0,0.0,0.0,0.0,0.0,0.0,0.0,0.0,0.0,0.0,0.0,0.0,0.0,0.0,0.0,0.0,0.0,0.0,0.0,0.0,0.0,0.0,0.0,0.0,0.0,0.0,0.0,0.0,0.0,0.0,0.0,0.0,0.0,0.0,0.0,0.0,0.0,0.0,0.0,0.0,0.0,0.0,0.0,0.0,0.0,0.0,0.0,0.0,0.0,0.0,0.0,0.0,0.0,0.0,0.0,0.0,0.0,0.0,0.0,0.0,0.0,0.0,0.0,0.0,0.0,0.0,0.0,0.0,0.0,0.0,0.0,0.0,0.0,0.0,0.0,0.0,0.0,0.0,0.0,0.0,0.0,0.0,0.0,0.0,0.0,0.0,0.0,0.0,0.0,0.0,0.0,0.0,0.0,0.0,0.0,0.0,0.0,0.0,0.0,0.0,0.0,0.0,0.0,0.0,0.0,0.0,0.0,0.0,0.0,0.0,0.0,0.0,0.0,0.0,0.0,0.0,0.0,0.0,0.0,0.0,0.0,0.0,0.0,0.0,0.0,0.0,0.0,0.0,0.0,0.0,0.0,0.0,0.0,0.0,0.0,0.0,0.0,0.0,0.0,0.0,0.0,0.0,0.0,0.0,0.0,0.0,0.0,0.0,0.0,0.0,0.0,0.0,0.0,0.0,0.0,0.0,0.0,0.0,0.0,0.0,0.0,0.0,0.0,0.0,0.0,0.0,0.0,0.0,0.0,0.0,0.0,0.0,0.0,0.0,0.0,0.0,0.0,0.0,0.0,0.0,0.0,0.0,0.0,0.0,0.0,0.0,0.0,0.0,0.0,0.0,0.0,0.0,0.0,0.0,0.0,0.0,0.0,0.0,0.0,0.0,0.0,0.0,0.0,0.0,0.0,0.0,0.0,0.0,0.0,0.0,0.0,0.0,0.0,0.0,0.0,0.0,0.0,0.0,0.0,0.0,0.0,0.0,0.0,0.0,0.0,0.0,0.0,0.0,0.0,0.0,0.0,0.0,0.0,0.0,0.0,0.0,0.0,0.0,-1.0046,0.0,0.0,0.0,0.0,0.0,0.0,0.0,0.0,0.0,0.0,0.0,0.0,0.0,0.0,0.0,0.0,0.0,0.0,0.0,0.0,0.0,0.0,0.0,0.0,0.0,0.0,0.0,0.0,0.0,0.0,0.0,0.0,0.0,0.0,0.0,0.0,0.0,0.0,0.0,0.0,0.0,0.0,0.0,0.0,0.0,0.0,0.0,0.0,0.0,0.0,0.0,0.0,0.0,0.0,0.0,0.0,0.0,0.0,0.0,0.0,0.0,0.0,0.0,0.0,0.0,0.0,0.0,0.0,0.0,0.0,0.0,0.0,0.0,0.0,0.0,0.0,0.0,0.0,0.0,0.0,0.0,0.0,0.0,0.0,0.0,0.0,0.0,0.0,0.0,0.0,0.0,0.0,0.0,0.0,0.0,0.0,0.0,0.0,0.0,0.0,0.0,0.0,0.0,0.0,0.0,0.0,0.0,0.0,0.0,0.0,-0.9032,-0.9479,-0.9707,-0.9836,-0.9819,0.0,0.0,0.0,0.0,0.0,0.0,0.0,0.0,0.0,0.0,0.0,0.0,0.0,0.0,0.0,0.0,0.0,0.0,0.0,0.0,0.0,0.0,0.0,0.0,0.0,0.0,0.0,0.0,0.0,0.0,0.0,0.0,0.0,0.0,0.0,0.0,0.0,0.0,0.0,0.0,0.0,0.0,0.0,0.0,0.0,0.0,0.0,0.0,0.0,0.0,0.0,0.0,0.0,0.0,0.0,0.0,0.0,0.0,0.0,0.0,0.0,0.0,0.0,0.0,0.0,0.0,0.0,0.0,0.0,0.0,0.0,0.0,0.0,0.0,0.0,0.0,0.0,0.0,0.0,0.0,0.0,0.0,0.0,0.0,0.0,0.0,0.0,0.0,0.0,0.0,0.0,0.0,0.0,0.0,0.0,0.0,0.0,0.0,0.0,0.0,0.0,0.0,0.0,0.0,0.0,0.0,0.0,0.0,0.0,0.0,0.0,0.0,-0.9892,-1.0027,-1.0351,0.0,0.0,0.0,0.0,0.0,0.0,0.0,0.0,0.0,0.0,0.0,0.0,0.0,0.0,0.0,0.0,0.0,0.0,0.0,0.0,0.0,0.0,0.0,0.0,0.0,0.0,0.0,0.0,0.0,0.0,0.0,0.0,0.0,0.0,0.0,0.0,0.0,0.0,0.0,0.0,0.0,0.0,0.0,0.0,0.0,0.0,0.0,0.0,0.0,0.0,0.0,0.0,0.0,0.0,0.0,0.0,0.0,0.0,0.0,0.0,0.0,0.0,0.0,0.0,0.0,0.0,0.0,0.0,0.0,0.0,0.0,0.0,0.0,0.0,0.0,0.0,0.0,0.0,0.0,0.0,0.0,0.0,0.0,0.0,0.0,0.0,0.0,0.0,0.0,0.0,0.0,0.0,0.0,0.0,0.0,0.0,0.0,0.0,0.0,0.0,0.0,0.0,0.0,0.0,0.0,0.0,0.0,0.0,0.0,0.0,-1.0467,-1.008,-1.0759,0.0,-1.227,0.0,0.0,0.0,0.0,0.0,0.0,0.0,0.0,0.0,0.0,0.0,0.0,0.0,0.0,0.0,0.0,0.0,0.0,0.0,0.0,0.0,0.0,0.0,0.0,0.0,0.0,0.0,0.0,0.0,0.0,0.0,0.0,0.0,0.0,0.0,0.0,0.0,0.0,0.0,0.0,0.0,0.0,0.0,0.0,0.0,0.0,0.0,0.0,0.0,0.0,0.0,0.0,0.0,0.0,0.0,0.0,0.0,0.0,0.0,0.0,0.0,0.0,0.0,0.0,0.0,0.0,0.0,0.0,0.0,0.0,0.0,0.0,0.0,0.0,0.0,0.0,0.0,0.0,0.0,0.0,0.0,0.0,0.0,0.0,0.0,0.0,0.0,0.0,0.0,0.0,0.0,0.0,0.0,0.0,0.0,0.0,0.0,0.0,0.0,0.0,0.0,0.0,0.0,0.0,0.0,0.0,0.0,0.0,0.0,0.0,-1.0067,-1.0794,-1.1571,-1.2298,0.0,0.0,0.0,0.0,0.0,0.0,0.0,0.0,0.0,0.0,0.0,0.0,0.0,0.0,0.0,0.0,0.0,0.0,0.0,0.0,0.0,0.0,0.0,0.0,0.0,0.0,0.0,0.0,0.0,0.0,0.0,0.0,0.0,0.0,0.0,0.0,0.0,0.0,0.0,0.0,0.0,0.0,0.0,0.0,0.0,0.0,0.0,0.0,0.0,0.0,0.0,0.0,0.0,0.0,0.0,0.0,0.0,0.0,0.0,0.0,0.0,0.0,0.0,0.0,0.0,0.0,0.0,0.0,0.0,0.0,0.0,0.0,0.0,0.0,0.0,0.0,0.0,0.0,0.0,0.0,0.0,0.0,0.0,0.0,0.0,0.0,0.0,0.0,0.0,0.0,0.0,0.0,0.0,0.0,0.0,0.0,0.0,0.0,0.0,0.0,0.0,0.0,0.0,0.0,0.0,0.0,0.0,0.0,0.0,0.0,-0.9798,-1.0133,-1.172,-1.2505,-1.3193,-1.3912,0.0,0.0,0.0,0.0,0.0,0.0,0.0,0.0,0.0,0.0,0.0,0.0,0.0,0.0,0.0,0.0,0.0,0.0,0.0,0.0,0.0,0.0,0.0,0.0,0.0,0.0,0.0,0.0,0.0,0.0,0.0,0.0,0.0,0.0,0.0,0.0,0.0,0.0,0.0,0.0,0.0,0.0,0.0,0.0,0.0,0.0,0.0,0.0,0.0,0.0,0.0,0.0,0.0,0.0,0.0,0.0,0.0,0.0,0.0,0.0,0.0,0.0,0.0,0.0,0.0,0.0,0.0,0.0,0.0,0.0,0.0,0.0,0.0,0.0,0.0,0.0,0.0,0.0,0.0,0.0,0.0,0.0,0.0,0.0,0.0,0.0,0.0,0.0,0.0,0.0,0.0,0.0,0.0,0.0,0.0,0.0,0.0,0.0,0.0,0.0,0.0,0.0,0.0,0.0,0.0,0.0,0.0,0.0,-1.0344,-1.0349,-1.1233,-1.2987,-1.3775,-1.438,0.0,0.0,0.0,0.0,0.0,0.0,0.0,0.0,0.0,0.0,0.0,0.0,0.0,0.0,0.0,0.0,0.0,0.0,0.0,0.0,0.0,0.0,0.0,0.0,0.0,0.0,0.0,0.0,0.0,0.0,0.0,0.0,0.0,0.0,0.0,0.0,0.0,0.0,0.0,0.0,0.0,0.0,0.0,0.0,0.0,0.0,0.0,0.0,0.0,0.0,0.0,0.0,0.0,0.0,0.0,0.0,0.0,0.0,0.0,0.0,0.0,0.0,0.0,0.0,0.0,0.0,0.0,0.0,0.0,0.0,0.0,0.0,0.0,0.0,0.0,0.0,0.0,0.0,0.0,0.0,0.0,0.0,0.0,0.0,0.0,0.0,0.0,0.0,0.0,0.0,0.0,0.0,0.0,0.0,0.0,0.0,0.0,0.0,0.0,0.0,0.0,0.0,0.0,0.0,0.0,0.0,0.0,0.0,0.0,-0.9755,-1.0597,-1.1768,-1.3083,-1.3864,-1.4365,0.0,0.0,0.0,0.0,0.0,0.0,0.0,0.0,0.0,0.0,0.0,0.0,0.0,0.0,0.0,0.0,0.0,0.0,0.0,0.0,0.0,0.0,0.0,0.0,0.0,0.0,0.0,0.0,0.0,0.0,0.0,0.0,0.0,0.0,0.0,0.0,0.0,0.0,0.0,0.0,0.0,0.0,0.0,0.0,0.0,0.0,0.0,0.0,0.0,0.0,0.0,0.0,0.0,0.0,0.0,0.0,0.0,0.0,0.0,0.0,0.0,0.0,0.0,0.0,0.0,0.0,0.0,0.0,0.0,0.0,0.0,0.0,0.0,0.0,0.0,0.0,0.0,0.0,0.0,0.0,0.0,0.0,0.0,0.0,0.0,0.0,0.0,0.0,0.0,0.0,0.0,0.0,0.0,0.0,0.0,0.0,0.0,0.0,0.0,0.0,0.0,0.0,0.0,0.0,0.0,0.0,0.0,0.0,0.0,-0.9575,0.0,-1.2792,-1.3656,-1.4192,-1.4407,0.0,0.0,0.0,0.0,0.0,0.0,0.0,0.0,0.0,0.0,0.0,0.0,0.0,0.0,0.0,0.0,0.0,0.0,0.0,0.0,0.0,0.0,0.0,0.0,0.0,0.0,0.0,0.0,0.0,0.0,0.0,0.0,0.0,0.0,0.0,0.0,0.0,0.0,0.0,0.0,0.0,0.0,0.0,0.0,0.0,0.0,0.0,0.0,0.0,0.0,0.0,0.0,0.0,0.0,0.0,0.0,0.0,0.0,0.0,0.0,0.0,0.0,0.0,0.0,0.0,0.0,0.0,0.0,0.0,0.0,0.0,0.0,0.0,0.0,0.0,0.0,0.0,0.0,0.0,0.0,0.0,0.0,0.0,0.0,0.0,0.0,0.0,0.0,0.0,0.0,0.0,0.0,0.0,0.0,0.0,0.0,0.0,0.0,0.0,0.0,0.0,0.0,0.0,0.0,0.0,0.0,0.0,0.0,-0.9221,-0.9907,-1.2655,-1.4355,-1.4876,-1.4809,-1.4487,0.0,0.0,0.0,0.0,0.0,0.0,0.0,0.0,0.0,0.0,0.0,0.0,0.0,0.0,0.0,0.0,0.0,0.0,0.0,0.0,0.0,0.0,0.0,0.0,0.0,0.0,0.0,0.0,0.0,0.0,0.0,0.0,0.0,0.0,0.0,0.0,0.0,0.0,0.0,0.0,0.0,0.0,0.0,0.0,0.0,0.0,0.0,0.0,0.0,0.0,0.0,0.0,0.0,0.0,0.0,0.0,0.0,0.0,0.0,0.0,0.0,0.0,0.0,0.0,0.0,0.0,0.0,0.0,0.0,0.0,0.0,0.0,0.0,0.0,0.0,0.0,0.0,0.0,0.0,0.0,0.0,0.0,0.0,0.0,0.0,0.0,0.0,0.0,0.0,0.0,0.0,0.0,0.0,0.0,0.0,0.0,0.0,0.0,0.0,0.0,0.0,0.0,0.0,0.0,0.0,0.0,0.0,0.0,0.0,-1.1023,-1.3509,-1.4898,-1.4939,-1.4459,-1.3743,0.0,0.0,0.0,0.0,0.0,0.0,0.0,0.0,0.0,0.0,0.0,0.0,0.0,0.0,0.0,0.0,0.0,0.0,0.0,0.0,0.0,0.0,0.0,0.0,0.0,0.0,0.0,0.0,0.0,0.0,0.0,0.0,0.0,0.0,0.0,0.0,0.0,0.0,0.0,0.0,0.0,0.0,0.0,0.0,0.0,0.0,0.0,0.0,0.0,0.0,0.0,0.0,0.0,0.0,0.0,0.0,0.0,0.0,0.0,0.0,0.0,0.0,0.0,0.0,0.0,0.0,0.0,0.0,0.0,0.0,0.0,0.0,0.0,0.0,0.0,0.0,0.0,0.0,0.0,0.0,0.0,0.0,0.0,0.0,0.0,0.0,0.0,0.0,0.0,0.0,0.0,0.0,0.0,0.0,0.0,0.0,0.0,0.0,0.0,0.0,0.0,0.0,0.0,0.0,0.0,0.0,0.0,0.0,0.0,-1.3543,-1.5198,-1.6158,-1.6208,-1.4471,-1.2871,-1.143,0.0,0.0,0.0,0.0,0.0,0.0,0.0,0.0,0.0,0.0,0.0,0.0,0.0,0.0,0.0,0.0,0.0,0.0,0.0,0.0,0.0,0.0,0.0,0.0,0.0,0.0,0.0,0.0,0.0,0.0,0.0,0.0,0.0,0.0,0.0,0.0,0.0,0.0,0.0,0.0,0.0,0.0,0.0,0.0,0.0,0.0,0.0,0.0,0.0,0.0,0.0,0.0,0.0,0.0,0.0,0.0,0.0,0.0,0.0,0.0,0.0,0.0,0.0,0.0,0.0,0.0,0.0,0.0,0.0,0.0,0.0,0.0,0.0,0.0,0.0,0.0,0.0,0.0,0.0,0.0,0.0,0.0,0.0,0.0,0.0,0.0,0.0,0.0,0.0,0.0,0.0,0.0,0.0,0.0,0.0,0.0,0.0,0.0,0.0,0.0,0.0,0.0,0.0,0.0,0.0,0.0,0.0,0.0,-1.6892,-1.729,-1.7588,-1.7919,-1.4547,-1.1833,0.0,0.0,0.0,0.0,0.0,0.0,0.0,0.0,0.0,0.0,0.0,0.0,0.0,0.0,0.0,0.0,0.0,0.0,0.0,0.0,0.0,0.0,0.0,0.0,0.0,0.0,0.0,0.0,0.0,0.0,0.0,0.0,0.0,0.0,0.0,0.0,0.0,0.0,0.0,0.0,0.0,0.0,0.0,0.0,0.0,0.0,0.0,0.0,0.0,0.0,0.0,0.0,0.0,0.0,0.0,0.0,0.0,0.0,0.0,0.0,0.0,0.0,0.0,0.0,0.0,0.0,0.0,0.0,0.0,0.0,0.0,0.0,0.0,0.0,0.0,0.0,0.0,0.0,0.0,0.0,0.0,0.0,0.0,0.0,0.0,0.0,0.0,0.0,0.0,0.0,0.0,0.0,0.0,0.0,0.0,0.0,0.0,0.0,0.0,0.0,0.0,0.0,0.0,0.0,0.0,0.0,0.0,0.0,0.0,-1.7269,-1.6373,-1.5905,-1.6045,-1.3416,-1.092,0.0,0.0,0.0,0.0,0.0,0.0,0.0,0.0,0.0,0.0,0.0,0.0,0.0,0.0,0.0,0.0,0.0,0.0,0.0,0.0,0.0,0.0,0.0,0.0,0.0,0.0,0.0,0.0,0.0,0.0,0.0,0.0,0.0,0.0,0.0,0.0,0.0,0.0,0.0,0.0,0.0,0.0,0.0,0.0,0.0,0.0,0.0,0.0,0.0,0.0,0.0,0.0,0.0,0.0,0.0,0.0,0.0,0.0,0.0,0.0,0.0,0.0,0.0,0.0,0.0,0.0,0.0,0.0,0.0,0.0,0.0,0.0,0.0,0.0,0.0,0.0,0.0,0.0,0.0,0.0,0.0,0.0,0.0,0.0,0.0,0.0,0.0,0.0,0.0,0.0,0.0,0.0,0.0,0.0,0.0,0.0,0.0,0.0,0.0,0.0,0.0,0.0,0.0,0.0,0.0,0.0,0.0,0.0,-1.6123,-1.6335,-1.5055,-1.3835,-1.2787,-1.1347,-0.984,0.0,0.0,0.0,0.0,0.0,0.0,0.0,0.0,0.0,0.0,0.0,0.0,0.0,0.0,0.0,0.0,0.0,0.0,0.0,0.0,0.0,0.0,0.0,0.0,0.0,0.0,0.0,0.0,0.0,0.0,0.0,0.0,0.0,0.0,0.0,0.0,0.0,0.0,0.0,0.0,0.0,0.0,0.0,0.0,0.0,0.0,0.0,0.0,0.0,0.0,0.0,0.0,0.0,0.0,0.0,0.0,0.0,0.0,0.0,0.0,0.0,0.0,0.0,0.0,0.0,0.0,0.0,0.0,0.0,0.0,0.0,0.0,0.0,0.0,0.0,0.0,0.0,0.0,0.0,0.0,0.0,0.0,0.0,0.0,0.0,0.0,0.0,0.0,0.0,0.0,0.0,0.0,0.0,0.0,0.0,0.0,0.0,0.0,0.0,0.0,0.0,0.0,0.0,0.0,0.0,0.0,0.0,0.0,-1.4558,-1.3918,-1.303,-1.1336,-0.8899,-0.8878,-0.8604,0.0,0.0,0.0,0.0,0.0,0.0,0.0,0.0,0.0,0.0,0.0,0.0,0.0,0.0,0.0,0.0,0.0,0.0,0.0,0.0,0.0,0.0,0.0,0.0,0.0,0.0,0.0,0.0,0.0,0.0,0.0,0.0,0.0,0.0,0.0,0.0,0.0,0.0,0.0,0.0,0.0,0.0,0.0,0.0,0.0,0.0,0.0,0.0,0.0,0.0,0.0,0.0,0.0,0.0,0.0,0.0,0.0,0.0,0.0,0.0,0.0,0.0,0.0,0.0,0.0,0.0,0.0,0.0,0.0,0.0,0.0,0.0,0.0,0.0,0.0,0.0,0.0,0.0,0.0,0.0,0.0,0.0,0.0,0.0,0.0,0.0,0.0,0.0,0.0,0.0,0.0,0.0,0.0,0.0,0.0,0.0,0.0,0.0,0.0,0.0,0.0,0.0,0.0,0.0,0.0,0.0,0.0,0.0,-1.0331,-0.8699,-0.8268,-0.7449,-0.6307,-0.739,-0.7543,0.0,0.0,0.0,0.0,0.0,0.0,0.0,0.0,0.0,0.0,0.0,0.0,0.0,0.0,0.0,0.0,0.0,0.0,0.0,0.0,0.0,0.0,0.0,0.0,0.0,0.0,0.0,0.0,0.0,0.0,0.0,0.0,0.0,0.0,0.0,0.0,0.0,0.0,0.0,0.0,0.0,0.0,0.0,0.0,0.0,0.0,0.0,0.0,-0.6263,0.0,0.0,0.0,0.0,0.0,0.0,0.0,0.0,0.0,0.0,0.0,0.0,0.0,0.0,0.0,0.0,0.0,0.0,0.0,0.0,0.0,0.0,0.0,0.0,0.0,0.0,0.0,0.0,0.0,0.0,0.0,0.0,0.0,0.0,0.0,0.0,0.0,0.0,0.0,0.0,0.0,0.0,0.0,0.0,0.0,0.0,0.0,0.0,0.0,0.0,0.0,0.0,0.0,0.0,0.0,0.0,0.0,0.0,0.0,-0.8072,-0.6663,-0.5985,-0.5466,-0.5167,-0.6146,-0.6627,0.0,0.0,0.0,0.0,0.0,0.0,0.0,0.0,0.0,0.0,0.0,0.0,0.0,0.0,0.0,0.0,0.0,0.0,0.0,0.0,0.0,0.0,0.0,0.0,0.0,0.0,0.0,0.0,0.0,0.0,0.0,0.0,0.0,0.0,0.0,0.0,0.0,0.0,0.0,0.0,0.0,0.0,0.0,0.0,0.0,0.0,0.0,0.0,0.0,0.0,0.0,0.0,0.0,0.0,0.0,0.0,0.0,0.0,0.0,0.0,0.0,0.0,0.0,0.0,0.0,0.0,0.0,0.0,0.0,0.0,0.0,0.0,0.0,0.0,0.0,0.0,0.0,0.0,0.0,0.0,0.0,0.0,0.0,0.0,0.0,0.0,0.0,0.0,0.0,0.0,0.0,0.0,0.0,0.0,0.0,0.0,0.0,0.0,0.0,0.0,0.0,0.0,0.0,0.0,0.0,0.0,0.0,-0.7861,-0.6432,-0.5574,-0.4528,-0.4154,-0.4514,-0.5103,-0.6013,-0.7392,0.0,0.0,0.0,0.0,0.0,0.0,0.0,0.0,0.0,0.0,0.0,0.0,0.0,0.0,0.0,0.0,0.0,0.0,0.0,0.0,0.0,0.0,0.0,0.0,0.0,0.0,0.0,0.0,0.0,0.0,0.0,0.0,0.0,0.0,0.0,0.0,0.0,0.0,-0.7225,-0.758,0.0,0.0,0.0,0.0,0.0,0.0,0.0,0.0,-0.4684,0.0,0.0,0.0,0.0,0.0,0.0,0.0,0.0,0.0,0.0,0.0,0.0,0.0,0.0,0.0,0.0,0.0,0.0,0.0,0.0,0.0,0.0,0.0,0.0,0.0,0.0,0.0,0.0,0.0,0.0,0.0,0.0,0.0,0.0,0.0,0.0,0.0,0.0,0.0,0.0,0.0,0.0,0.0,0.0,0.0,0.0,0.0,0.0,0.0,0.0,0.0,0.0,0.0,0.0,0.0,0.0,-0.6321,-0.5022,-0.3653,-0.2452,-0.2448,-0.2919,-0.3736,-0.5015,-0.6204,-0.7262,0.0,0.0,0.0,0.0,0.0,0.0,0.0,0.0,0.0,0.0,0.0,0.0,0.0,0.0,0.0,0.0,0.0,0.0,0.0,0.0,0.0,0.0,0.0,0.0,0.0,0.0,0.0,0.0,0.0,0.0,0.0,0.0,0.0,0.0,0.0,0.0,0.0,0.0,0.0,-0.886,-0.933,0.0,0.0,0.0,0.0,0.0,0.0,0.0,0.0,-0.457,0.0,0.0,0.0,0.0,0.0,0.0,0.0,0.0,0.0,0.0,0.0,0.0,0.0,0.0,0.0,0.0,0.0,0.0,0.0,0.0,0.0,0.0,0.0,0.0,0.0,0.0,0.0,0.0,0.0,0.0,0.0,0.0,0.0,0.0,0.0,0.0,0.0,0.0,0.0,0.0,0.0,0.0,0.0,0.0,0.0,0.0,0.0,0.0,0.0,0.0,0.0,0.0,0.0,0.0,0.0,-0.4904,-0.3496,-0.2549,-0.2006,-0.1799,-0.2537,-0.4212,-0.51,-0.6218,0.0,0.0,0.0,0.0,0.0,0.0,0.0,0.0,0.0,0.0,0.0,0.0,0.0,0.0,0.0,0.0,0.0,0.0,0.0,0.0,0.0,0.0,0.0,0.0,0.0,0.0,0.0,0.0,0.0,0.0,0.0,0.0,0.0,0.0,0.0,0.0,0.0,0.0,0.0,0.0,-0.9463,-0.9098,-0.9518,0.0,0.0,0.0,0.0,0.0,0.0,-0.4188,-0.4132,0.0,0.0,0.0,0.0,0.0,0.0,0.0,0.0,0.0,0.0,0.0,0.0,0.0,0.0,0.0,0.0,0.0,0.0,0.0,0.0,0.0,0.0,0.0,0.0,0.0,0.0,0.0,0.0,0.0,0.0,0.0,0.0,0.0,0.0,0.0,0.0,0.0,0.0,0.0,0.0,0.0,0.0,0.0,0.0,0.0,0.0,0.0,0.0,0.0,0.0,0.0,0.0,0.0,0.0,0.0,-0.3766,-0.2504,-0.1984,-0.2137,-0.1646,-0.2533,-0.4687,-0.5027,-0.6083,0.0,0.0,0.0,0.0,0.0,0.0,0.0,0.0,0.0,0.0,0.0,0.0,0.0,0.0,0.0,0.0,0.0,0.0,0.0,0.0,0.0,0.0,0.0,0.0,0.0,0.0,0.0,0.0,0.0,0.0,0.0,0.0,0.0,0.0,0.0,0.0,0.0,0.0,0.0,0.0,0.0,-0.8779,-0.908,-0.6773,0.0,0.0,0.0,0.0,-0.4012,-0.3557,0.0,0.0,0.0,0.0,0.0,0.0,0.0,0.0,0.0,0.0,0.0,0.0,0.0,0.0,0.0,0.0,0.0,0.0,0.0,0.0,0.0,0.0,0.0,0.0,0.0,0.0,0.0,0.0,0.0,0.0,0.0,0.0,0.0,0.0,0.0,0.0,0.0,0.0,0.0,0.0,0.0,0.0,0.0,0.0,0.0,0.0,0.0,0.0,0.0,0.0,0.0,0.0,0.0,0.0,0.0,0.0,-0.1965,-0.1742,-0.1613,-0.1618,-0.1386,-0.2304,-0.4229,-0.4873,-0.5985,0.0,0.0,0.0,0.0,0.0,0.0,0.0,0.0,0.0,0.0,0.0,0.0,0.0,0.0,0.0,0.0,0.0,0.0,0.0,0.0,0.0,0.0,0.0,0.0,0.0,0.0,0.0,0.0,0.0,0.0,0.0,0.0,0.0,0.0,0.0,0.0,0.0,0.0,0.0,0.0,0.0,-0.9173,-0.898,-0.7391,-0.5872,0.0,0.0,-0.3202,-0.3187,-0.2797,0.0,0.0,0.0,0.0,0.0,0.0,0.0,0.0,0.0,0.0,0.0,0.0,0.0,0.0,0.0,0.0,0.0,0.0,0.0,0.0,0.0,0.0,0.0,0.0,0.0,0.0,0.0,0.0,0.0,0.0,0.0,0.0,0.0,0.0,0.0,0.0,0.0,0.0,0.0,0.0,0.0,0.0,0.0,0.0,0.0,0.0,0.0,0.0,0.0,0.0,0.0,0.0,0.0,0.0,0.0,-0.234,-0.1657,-0.123,-0.1144,-0.1402,-0.1367,-0.2182,-0.4119,-0.4844,-0.5892,0.0,0.0,0.0,0.0,0.0,0.0,0.0,0.0,0.0,0.0,0.0,0.0,0.0,0.0,0.0,0.0,0.0,0.0,0.0,0.0,0.0,0.0,0.0,0.0,0.0,0.0,0.0,0.0,0.0,0.0,0.0,0.0,0.0,0.0,0.0,0.0,0.0,0.0,0.0,0.0,0.0,0.0,-0.706,-0.586,0.0,0.0,0.0,-0.2788,-0.2786,0.0,0.0,0.0,0.0,0.0,0.0,0.0,0.0,0.0,0.0,0.0,0.0,0.0,0.0,0.0,0.0,0.0,0.0,0.0,0.0,0.0,0.0,0.0,0.0,0.0,0.0,0.0,0.0,0.0,0.0,0.0,0.0,0.0,0.0,0.0,0.0,0.0,0.0,0.0,0.0,0.0,0.0,0.0,0.0,0.0,0.0,0.0,0.0,0.0,0.0,0.0,0.0,0.0,0.0,0.0,0.0,0.0,-0.1406,-0.0798,-0.0682,-0.1173,-0.1329,-0.2126,-0.383,-0.4538,0.0,0.0,0.0,0.0,0.0,0.0,0.0,0.0,0.0,0.0,0.0,0.0,0.0,0.0,0.0,0.0,0.0,0.0,0.0,0.0,0.0,0.0,0.0,0.0,0.0,0.0,0.0,-0.4888,0.0,0.0,0.0,0.0,0.0,0.0,0.0,0.0,0.0,0.0,0.0,0.0,0.0,0.0,-0.713,-0.5494,-0.4543,-0.3614,0.0,0.0,-0.2308,-0.2177,-0.1636,-0.1385,0.0,0.0,0.0,0.0,0.0,0.0,0.0,0.0,0.0,0.0,0.0,0.0,0.0,0.0,0.0,0.0,0.0,0.0,0.0,0.0,0.0,0.0,0.0,0.0,0.0,0.0,0.0,0.0,0.0,0.0,0.0,0.0,0.0,0.0,0.0,0.0,0.0,0.0,0.0,0.0,0.0,0.0,0.0,0.0,0.0,0.0,0.0,0.0,0.0,0.0,0.0,0.0,0.0,0.0,-0.1065,-0.0913,-0.0304,-0.0243,-0.0761,-0.1078,-0.192,-0.3114,-0.3817,-0.4964,0.0,0.0,0.0,0.0,0.0,0.0,0.0,0.0,0.0,0.0,0.0,0.0,0.0,0.0,0.0,0.0,0.0,0.0,0.0,0.0,0.0,0.0,0.0,0.0,0.0,0.0,0.0,0.0,0.0,0.0,0.0,0.0,0.0,0.0,0.0,0.0,0.0,0.0,0.0,0.0,0.0,-0.6109,-0.5102,-0.4522,-0.3659,0.0,-0.1896,-0.1749,-0.1136,-0.0514,-0.034,-0.108,0.0,0.0,0.0,0.0,0.0,0.0,0.0,0.0,0.0,0.0,0.0,0.0,0.0,0.0,0.0,0.0,0.0,0.0,0.0,0.0,0.0,0.0,0.0,0.0,0.0,0.0,0.0,0.0,0.0,0.0,0.0,0.0,0.0,0.0,0.0,0.0,0.0,0.0,0.0,0.0,0.0,0.0,0.0,0.0,0.0,0.0,0.0,0.0,0.0,0.0,0.0,0.0,0.0,-0.0798,-0.0909,0.0074,0.0317,-0.0168,-0.0247,-0.0794,-0.1739,-0.2509,-0.3808,0.0,0.0,0.0,0.0,0.0,0.0,0.0,0.0,0.0,0.0,0.0,0.0,0.0,0.0,0.0,0.0,0.0,0.0,0.0,0.0,0.0,0.0,0.0,0.0,0.0,0.0,0.0,0.0,-0.649,-0.6972,-0.687,0.0,0.0,0.0,0.0,0.0,0.0,0.0,0.0,0.0,0.0,-0.4857,-0.3778,-0.2968,0.0,0.0,-0.1191,-0.1162,-0.1359,-0.0577,-0.0244,-0.1074,-0.0962,0.0,0.0,0.0,0.0,0.0,0.0,0.0,0.0,0.0,0.0,0.0,0.0,0.0,0.0,0.0,0.0,0.0,0.0,0.0,0.0,0.0,0.0,0.0,0.0,0.0,0.0,0.0,0.0,0.0,0.0,0.0,0.0,0.0,0.0,0.0,0.0,0.0,0.0,0.0,0.0,0.0,0.0,0.0,0.0,0.0,0.0,0.0,0.0,0.0,0.0,0.0,0.0,-0.0543,-0.0622,0.0365,0.085,0.074,0.0648,0.0158,-0.068,-0.1301,-0.2583,0.0,0.0,0.0,0.0,0.0,0.0,0.0,0.0,0.0,0.0,0.0,0.0,0.0,0.0,0.0,0.0,0.0,0.0,0.0,0.0,0.0,0.0,0.0,0.0,0.0,0.0,0.0,0.0,-0.7634,-0.8092,-0.7636,0.0,0.0,0.0,0.0,0.0,0.0,0.0,0.0,0.0,0.0,-0.3807,-0.2872,-0.224,-0.1777,-0.1333,-0.1145,-0.1198,-0.1389,-0.062,-0.0152,-0.0631,0.0,0.0,0.0,0.0,0.0,0.0,0.0,0.0,0.0,0.0,0.0,0.0,0.0,0.0,0.0,0.0,0.0,0.0,0.0,0.0,0.0,0.0,0.0,0.0,0.0,0.0,0.0,0.0,0.0,0.0,-0.4214,0.0,0.0,0.0,0.0,0.0,0.0,0.0,0.0,0.0,0.0,0.0,0.0,0.0,0.0,0.0,0.0,0.0,0.0,0.0,0.0,0.0,0.0,-0.0299,0.0,0.064,0.1272,0.1804,0.1491,0.0775,-0.0302,-0.0515,-0.1271,-0.2795,0.0,0.0,0.0,0.0,0.0,0.0,0.0,0.0,0.0,0.0,0.0,0.0,0.0,0.0,0.0,0.0,0.0,0.0,0.0,0.0,0.0,0.0,0.0,0.0,0.0,0.0,-0.7475,-0.7639,-0.7762,0.0,0.0,0.0,0.0,0.0,0.0,0.0,0.0,0.0,0.0,-0.3593,-0.304,-0.2731,-0.2879,-0.2762,-0.2108,-0.2144,-0.19,-0.0951,-0.0359,0.0209,0.0,0.0,0.0,0.0,0.0,0.0,0.0,0.0,0.0,0.0,0.0,0.0,0.0,0.0,0.0,0.0,0.0,0.0,0.0,0.0,0.0,0.0,0.0,0.0,0.0,0.0,0.0,0.3661,0.3243,0.0,0.0,0.0,0.0,0.0,0.0,0.0,0.0,0.0,0.0,0.0,0.0,-0.0369,0.0,0.0,0.0,0.0,0.0,0.0,0.0,0.0,0.0,0.0,0.0,0.0,0.0,0.0067,0.1348,0.2241,0.2506,0.2353,0.1922,0.118,0.0804,-0.0141,-0.1821,0.0,0.0,0.0,0.0,0.0,0.0,0.0,0.0,0.0,0.0,0.0,0.0,0.0,0.0,0.0,0.0,0.0,0.0,0.0,0.0,0.0,0.0,0.0,0.0,0.0,-0.8248,0.0,0.0,0.0,0.0,0.0,0.0,0.0,0.0,0.0,0.0,0.0,-0.4505,-0.3916,-0.3375,-0.2895,-0.2439,-0.2234,-0.179,0.0,0.0,0.0,0.0,0.0,0.0,0.0,0.0,0.0,0.0,0.0,0.0,0.0,0.0,0.0314,-0.0427,-0.056,-0.051,-0.0387,0.0,0.0,0.0,0.0,0.0,0.0,0.0,0.0,0.0,0.0,0.0,0.0,0.0,0.0,0.3766,0.0,0.307,0.0,0.0,0.0,0.0,0.0,0.0,0.0,0.0,0.1097,0.1593,0.1977,0.1676,0.1338,0.0,-0.0064,-0.1264,0.0,0.0,0.0,0.0,0.0,0.0,0.0,0.0,0.0245,0.0397,0.1904,0.2824,0.3091,0.3125,0.2781,0.2019,0.1396,0.0563,-0.0588,-0.1361,-0.2052,0.0,0.0,0.0,0.0,0.0,0.0,0.0,0.0,0.0,0.0,0.0,0.0,0.0,0.0,0.0,0.0,0.0,0.0,0.0,0.0,0.0,0.0,0.0,-0.7992,0.0,0.0,0.0,0.0,0.0,0.0,0.0,0.0,0.0,-0.4782,-0.4186,-0.3566,-0.3169,-0.2686,-0.2407,-0.2501,0.0,0.0,0.0,0.0,0.0,0.0,0.0,0.0279,0.0068,0.0542,0.1153,0.1724,0.1867,0.1932,0.2053,0.0,0.0,0.0794,0.0469,0.0343,0.028,-0.007,-0.0423,-0.043,-0.049,-0.0478,0.0,0.0,0.0,0.0,0.0,0.0,0.0,0.0,0.5196,0.4479,0.0,0.3423,0.0,0.0,0.0,0.0,0.0,0.2558,0.0,0.0,0.4028,0.4677,0.4876,0.4458,0.4099,0.3664,0.1754,0.0328,-0.0636,-0.1353,0.0,0.0,0.0,0.0,0.0,0.0,0.0485,0.1033,0.2169,0.3022,0.3626,0.3716,0.329,0.2266,0.142,0.0926,0.0948,0.0524,0.0185,0.0,-0.1398,0.0,0.0,0.0,0.0,0.0,0.0,0.0,0.0,0.0,0.0,0.0,0.0,0.0,0.0,0.0,0.0,0.0,0.0,0.0,0.0,-0.581,0.0,0.0,0.0,0.0,0.0,0.0,0.0,0.0,0.0,0.0,-0.3597,-0.3354,-0.2825,-0.2081,0.0,0.0,0.0,0.0,-0.2432,-0.3406,-0.2695,-0.182,-0.142,-0.0069,0.1123,0.1613,0.0,0.0,0.3356,0.263,0.2211,0.2717,0.2467,0.206,0.2012,0.1395,0.0922,0.0924,0.0429,0.0,0.0,0.0,0.0,1.0127,0.0,0.0,0.0,0.0,0.8699,0.8183,0.7006,0.6365,0.6034,0.5899,0.5229,0.0,0.0,0.0,0.0,0.0,0.0,0.4487,0.4699,0.528,0.5769,0.6165,0.6127,0.5818,0.5422,0.4295,0.3048,0.1561,0.0664,-0.0869,-0.2971,0.0,0.0,0.0,0.0,0.1374,0.2518,0.3244,0.3758,0.4004,0.3872,0.342,0.2676,0.2147,0.1808,0.1851,0.1736,0.1407,0.0703,0.0245,0.0,0.0,0.0,0.0,0.0,0.0,0.0,0.0,0.0,0.0,0.0,0.0,0.0,0.0,0.0,0.0,0.0,0.0,0.0,-0.6158,-0.571,-0.5887,0.0,0.0,0.0,0.0,0.0,0.0,0.0,0.0,0.0,-0.1787,-0.2567,-0.2957,0.0,0.0,-0.2907,-0.3101,-0.2317,-0.1601,-0.1093,-0.0359,0.0,0.1386,0.1594,0.1655,0.1799,0.2466,0.2905,0.3004,0.3203,0.3463,0.3591,0.3491,0.3431,0.3358,0.207,0.1286,0.1634,0.0821,0.0248,0.0669,0.0411,0.0,1.2343,1.0453,1.067,1.0011,0.8936,0.9114,0.8689,0.7874,0.7595,0.7644,0.7793,0.7161,0.6795,0.6612,0.6388,0.0,0.0,0.0,0.6195,0.6375,0.6572,0.6976,0.7592,0.7862,0.7702,0.7297,0.631,0.514,0.3656,0.1939,0.0273,-0.1285,0.0,0.0,-0.0753,0.0862,0.2199,0.3222,0.379,0.4165,0.4232,0.3639,0.3115,0.2688,0.2248,0.2144,0.2289,0.2453,0.232,0.1706,0.1384,0.0754,0.0,0.0,0.0,0.0,0.0,0.0,0.0,0.0,0.0,0.0,0.0,-0.5067,-0.5773,0.0,0.0,0.0,-0.4625,-0.5155,-0.6204,-0.5191,0.0,0.0,0.0,0.0,0.0,0.0,0.0,-0.2062,-0.1104,-0.0475,-0.0643,-0.1308,-0.1604,-0.13,-0.1462,-0.1698,-0.177,0.0,-0.03,0.015,0.0751,0.1426,0.204,0.2276,0.2441,0.2698,0.3086,0.3372,0.3335,0.3685,0.4024,0.402,0.4053,0.4014,0.3703,0.2517,0.1654,0.2,0.1226,0.0619,0.0627,0.0,0.0,1.5479,1.3947,1.2408,1.1292,1.0484,0.9882,0.9416,0.8945,0.8939,0.9202,0.9606,0.8985,0.8612,0.8482,0.7991,0.0,0.7306,0.7659,0.7858,0.8056,0.8083,0.8491,0.9123,0.9509,0.958,0.9133,0.7944,0.6855,0.5663,0.2866,0.1399,0.1261,0.0334,-0.0128,0.0,0.1759,0.2882,0.3364,0.3916,0.422,0.4164,0.3177,0.2588,0.2586,0.2152,0.2201,0.2578,0.2888,0.3035,0.2893,0.2177,0.1987,0.2275,0.0,0.0,0.0,0.0,0.0,0.0,0.0,0.0,0.0,0.0,0.0,0.0,0.0,0.0,0.0,-0.3763,0.0,-0.5113,-0.4151,0.0,0.0,0.0,-0.1281,0.025,0.0329,0.0275,0.0141,0.0,0.0,0.0151,0.0311,0.0705,0.1302,0.1146,0.0917,0.0535,0.086,0.11,0.0695,0.1171,0.1494,0.1793,0.2556,0.3374,0.3857,0.4063,0.3986,0.3986,0.4002,0.4118,0.4193,0.4208,0.4054,0.3321,0.2745,0.2203,0.1952,0.1427,0.0902,0.0362,0.009,0.0,1.7944,1.6051,1.4916,1.3039,1.0807,1.103,1.1071,1.0958,1.0401,1.0332,1.0628,0.9752,0.9493,0.9794,0.9688,0.9468,0.9182,0.9267,0.9369,0.9476,0.9823,1.0015,1.0221,1.0699,1.0857,1.0699,0.9961,0.8876,0.743,0.514,0.286,0.0813,0.0439,0.0492,0.092,0.1793,0.284,0.401,0.3665,0.3438,0.3418,0.3441,0.3295,0.2982,0.3198,0.3343,0.3496,0.3491,0.3436,0.3415,0.3558,0.3136,0.1906,0.2085,0.0,0.0,0.0,0.0,0.0,0.0,0.0,0.0,0.0,-0.5315,-0.6532,0.0,-0.5678,0.0,-0.316,-0.1891,-0.1821,-0.1142,0.0,0.0,-0.0346,0.0142,0.0575,0.1506,0.1803,0.0722,0.1308,0.1909,0.1929,0.1967,0.2324,0.3293,0.1764,0.0591,0.0773,0.1555,0.2078,0.2063,0.2845,0.3556,0.3533,0.3823,0.4035,0.4232,0.4291,0.4338,0.434,0.4402,0.4453,0.4473,0.4477,0.4208,0.3469,0.3244,0.2696,0.1624,0.0758,0.0376,0.0752,0.0376,0.0,1.9148,1.7477,1.6156,1.4522,1.2734,1.2407,1.2277,1.2221,1.1872,1.1834,1.1903,1.101,1.0628,1.0719,1.0924,1.071,1.0119,1.0438,1.0445,1.025,1.0514,1.0557,1.0638,1.1278,1.1445,1.1284,1.1106,1.03,0.9049,0.7262,0.5322,0.3306,0.3233,0.3153,0.2919,0.2214,0.2476,0.3622,0.3725,0.3814,0.3712,0.3959,0.3601,0.2591,0.3059,0.3182,0.2731,0.292,0.2987,0.2868,0.3287,0.3113,0.2214,0.2642,0.2294,0.0,0.0,0.0,0.0,0.0,0.0,0.0,0.0,0.0,0.0,0.0,-0.4388,-0.3818,-0.1778,-0.0619,-0.0762,0.0,0.0521,0.0734,0.1126,0.1534,0.21,0.282,0.3063,0.2345,0.246,0.2747,0.3208,0.2979,0.3024,0.3706,0.2897,0.2247,0.2393,0.2843,0.3218,0.3309,0.391,0.4512,0.4603,0.4601,0.4695,0.4791,0.4739,0.468,0.468,0.4631,0.4571,0.4571,0.4571,0.4189,0.3146,0.2902,0.2449,0.1079,0.0294,0.0196,0.0489,0.0,0.0,1.9534,1.8195,1.6849,1.5819,1.5053,1.3926,1.338,1.3181,1.3226,1.3247,1.3166,1.2385,1.19,1.161,1.19,1.1519,1.0854,1.1272,1.1197,1.0757,1.0713,1.0724,1.0724,1.1537,1.178,1.1456,1.1688,1.1439,1.0545,0.906,0.7722,0.6539,0.6456,0.5876,0.4671,0.2795,0.2257,0.3227,0.4229,0.4654,0.4497,0.4322,0.3505,0.1964,0.2588,0.2537,0.1619,0.213,0.2301,0.2046,0.2461,0.2764,0.2903,0.2729,0.2248,0.0,0.0671,0.0,0.0,0.0,0.0,0.0,0.0,0.0,0.0,-0.3203,-0.239,-0.1517,0.0,0.0653,-0.008,0.0558,0.1353,0.2312,0.2514,0.2961,0.3804,0.4059,0.404,0.3964,0.3447,0.3299,0.3728,0.3367,0.3083,0.3215,0.3621,0.3838,0.4117,0.4146,0.4304,0.4367,0.4502,0.4795,0.4984,0.5079,0.5174,0.5272,0.5181,0.4984,0.4988,0.4801,0.461,0.4612,0.4618,0.4133,0.2685,0.2434,0.187,0.0592,0.01,0.0,0.0,0.0,0.0,1.9398,1.7882,1.7283,1.6593,1.593,1.6116,1.5262,1.3898,1.3612,1.3434,1.3206,1.3033,1.2959,1.2804,1.2564,1.2355,1.2189,1.1804,1.1623,1.1509,1.1292,1.1214,1.1214,1.1714,1.2132,1.2391,1.2475,1.2126,1.1453,0.9986,0.7722,0.4688,0.4787,0.394,0.2179,0.0,0.0,0.0,0.5463,0.5245,0.4219,0.3282,0.2531,0.196,0.2821,0.0,0.3093,0.2862,0.2715,0.265,0.2685,0.0,0.0,0.0,0.0,0.0,0.0,0.0,0.0,0.0,0.0,0.0,-0.1402,-0.1548,-0.2431,-0.1476,-0.0247,0.1291,0.195,0.2625,0.3485,0.3565,0.3669,0.3847,0.3946,0.3984,0.4328,0.4475,0.4319,0.3702,0.3511,0.3319,0.2827,0.2651,0.2542,0.2527,0.2632,0.2992,0.348,0.4135,0.4624,0.4736,0.4948,0.5081,0.5185,0.5372,0.536,0.5284,0.5185,0.5079,0.4872,0.4775,0.4779,0.4777,0.4785,0.4482,0.3486,0.2802,0.2105,0.1103,0.0503,0.0,0.0,0.0,0.0,1.8282,0.0,1.7087,1.6586,0.0,1.6675,1.6313,1.5275,1.4711,1.4076,1.342,1.3273,1.3206,1.322,1.3113,1.2775,1.2213,1.2141,1.1838,1.1346,1.1209,1.1181,1.1267,1.1763,1.2272,1.2705,1.296,1.279,1.21,1.088,0.9061,0.6621,0.6207,0.5706,0.532,0.7217,0.7816,0.6939,0.7089,0.6847,0.6179,0.5544,0.4769,0.3576,0.0,0.0,0.0,0.0,0.0,0.0,0.0,0.0,0.0,0.0,0.0,0.39,0.2792,0.1952,0.1631,0.0956,0.0574,0.0678,0.1313,0.1306,0.0329,0.1122,0.2249,0.3312,0.3539,0.3858,0.4466,0.4487,0.4434,0.4434,0.4434,0.4455,0.4504,0.4583,0.4463,0.4103,0.3401,0.2898,0.2901,0.2204,0.1814,0.1812,0.2402,0.2804,0.3,0.3632,0.4281,0.4926,0.5138,0.524,0.5338,0.5536,0.5534,0.5438,0.524,0.5138,0.5037,0.4935,0.4832,0.4732,0.4533,0.4031,0.3629,0.2924,0.2118,0.1412,0.0908,0.0404,0.0,0.0,0.0,1.7351,1.7085,1.6831,1.6528,1.638,1.6945,1.6936,1.6529,0.0,0.0,0.0,1.3467,1.3367,1.3387,1.3689,1.3239,1.238,1.2668,1.229,1.1478,1.139,1.1369,1.1408,1.1749,1.2146,1.2619,1.296,1.296,1.2534,1.1483,1.0265,0.8969,0.8009,0.8013,0.8965,1.0255,1.0066,0.8353,0.8316,0.8134,0.7701,0.7421,0.661,0.5025,0.5675,0.5653,0.5045,0.5121,0.4833,0.4205,0.3993,0.3732,0.3349,0.3526,0.3413,0.3031,0.2722,0.2555,0.2364,0.2391,0.2643,0.3273,0.3906,0.3786,0.3008,0.3565,0.4216,0.4618,0.4618,0.4618,0.4618,0.4604,0.4596,0.4596,0.4583,0.4575,0.4399,0.4387,0.4298,0.3913,0.2832,0.223,0.2611,0.1658,0.0914,0.1026,0.1903,0.2793,0.245,0.3157,0.4268,0.5122,0.5138,0.5135,0.5233,0.5131,0.5233,0.5135,0.5037,0.5039,0.5037,0.4935,0.4734,0.4531,0.4029,0.3627,0.3325,0.2621,0.2017,0.1311,0.121,0.0908,0.0202,0.0,0.0,1.7477,1.7386,1.7296,1.721,1.7166,1.8103,1.7911,1.674,1.5725,1.485,1.4021,1.3981,1.3961,1.3968,1.4413,1.4402,1.413,1.4156,1.3781,0.0,1.2767,1.2204,1.1655,1.1739,1.1882,1.2112,1.2192,1.2186,1.2015,1.1154,0.9753,0.8173,0.7658,0.7658,0.7903,0.726,0.6977,0.7302,0.7435,0.6963,0.5714,0.4437,0.3958,0.4331,0.4997,0.5405,0.5612,0.5355,0.5123,0.4992,0.4153,0.4182,0.5191,0.442,0.4713,0.6439,0.5759,0.509,0.4868,0.4945,0.4853,0.4656,0.5088,0.4948,0.3978,0.4283,0.4622,0.4787,0.4787,0.4798,0.4794,0.473,0.4689,0.4683,0.462,0.4313,0.3697,0.3658,0.3168,0.2048,0.1538,0.1138,0.0757,0.0378,0.0189,0.0193,0.0679,0.0884,0.1794,0.3413,0.4922,0.5334,0.4933,0.463,0.4427,0.3927,0.3827,0.4133,0.4234,0.4234,0.4636,0.4634,0.4433,0.383,0.3527,0.3226,0.2723,0.1916,0.1412,0.121,0.121,0.0908,0.0202,0.0505,0.0706,1.7606,1.6975,1.7376,1.7589,1.7582,1.8155,1.7896,1.6835,1.6095,1.5362,1.4576,1.4563,1.4563,1.465,1.4817,1.4623,1.4123,1.376,1.3291,1.2683,1.1763,1.1247,1.1076,1.1434,1.1817,1.2231,1.2951,1.3133,1.2697,1.1709,1.0348,0.8623,0.7182,0.6014,0.531,0.4491,0.4047,0.3882,0.5854,0.6458,0.5695,0.5305,0.551,0.6379,0.6638,0.7151,0.7819,0.7228,0.6671,0.6494,0.5464,0.5203,0.5617,0.5104,0.5389,0.6747,0.6318,0.5827,0.5453,0.5208,0.5008,0.4755,0.5007,0.5018,0.448,0.4872,0.509,0.483,0.4832,0.4832,0.4832,0.48,0.4579,0.418,0.4048,0.3747,0.3077,0.2867,0.2663,0.1985,0.1457,0.0954,0.0381,0.0094,-0.0094,-0.0285,0.0097,0.0988,0.1809,0.3022,0.3929,0.4026,0.4228,0.4128,0.3624,0.3222,0.3022,0.3126,0.3127,0.3226,0.3428,0.3527,0.3325,0.3024,0.2621,0.242,0.2321,0.1714,0.1311,0.121,0.121,0.0908,0.0303,0.0303,0.0504,1.7495,1.6248,1.723,1.7732,1.8,1.7933,1.7493,1.6908,1.6053,1.5365,1.4877,1.4909,1.506,1.5053,1.5232,1.4894,1.4216,1.3683,1.3164,1.2385,1.117,1.0496,1.0636,1.1189,1.162,1.2021,1.303,1.332,1.2774,1.1757,1.0168,0.7995,0.5351,0.3347,0.1866,0.1142,0.0438,0.0177,0.2996,0.4863,0.5333,0.5965,0.6809,0.7842,0.7916,0.8431,0.9289,0.8691,0.8151,0.7746,0.6966,0.6386,0.6106,0.601,0.6186,0.6535,0.6532,0.6084,0.553,0.4955,0.462,0.4728,0.4897,0.5037,0.4935,0.5336,0.5434,0.4935,0.4834,0.4834,0.4834,0.4832,0.4533,0.3729,0.3629,0.3213,0.2306,0.2099,0.1988,0.1877,0.1249,0.0563,0.0281,-0.0093,-0.0466,-0.0472,0.029,0.129,0.201,0.2317,0.2518,0.2418,0.3122,0.3323,0.2619,0.2216,0.2116,0.2118,0.2118,0.232,0.2421,0.2422,0.232,0.2219,0.1714,0.1412,0.1715,0.1312,0.0908,0.0807,0.1009,0.1009,0.0505,0.0404,0.0505,1.6977,1.5965,1.6708,1.7655,1.8309,1.7492,1.7041,1.6724,1.505,1.4245,1.4278,1.4775,1.4997,1.5143,1.5885,1.5868,1.5279,1.5337,1.4733,1.3622,1.2378,1.1404,1.0763,1.0839,1.0839,1.0784,1.1415,1.1528,1.1066,1.0213,0.802,0.4233,0.1104,-0.091,-0.2083,-0.3648,-0.4148,-0.3456,-0.1864,0.0445,0.3304,0.4385,0.5628,0.7122,0.7207,0.765,0.8715,0.8627,0.8548,0.8476,0.7852,0.758,0.7562,0.7119,0.7115,0.7555,0.7112,0.6427,0.5639,0.4937,0.4645,0.48,0.5429,0.5636,0.5236,0.5639,0.5636,0.5027,0.5031,0.5031,0.4834,0.4929,0.4616,0.3509,0.3413,0.3004,0.1676,0.1357,0.1047,0.028,-0.0092,-0.0541,-0.0548,-0.0923,-0.1129,-0.0776,-0.0198,0.0,0.0504,0.121,0.1412,0.0807,0.121,0.1814,0.1613,0.0908,0.0807,0.121,0.1311,0.1513,0.1917,0.2119,0.2219,0.1412,0.121,0.1009,0.0505,0.0,0.0,0.0,0.0706,0.1109,0.1109,0.1009,0.1109,1.6667,1.4586,1.6577,1.7705,1.7903,1.6473,1.5764,1.5664,1.4564,1.3982,1.3919,1.4189,1.4675,1.521,1.5684,1.5949,1.6069,1.5284,1.4648,1.3945,1.182,1.0622,1.0349,1.0325,1.0421,1.0738,1.1687,1.1883,1.101,0.8683,0.5787,0.2738,-0.0566,-0.3088,-0.4754,-0.6048,-0.6165,-0.5163,-0.3413,-0.1109,0.1481,0.3028,0.4856,0.7015,0.6409,0.6821,0.8345,0.7549,0.7051,0.7404,0.6605,0.652,0.7136,0.6605,0.6694,0.7492,0.6609,0.5825,0.5588,0.4948,0.4649,0.4822,0.5238,0.532,0.4965,0.5253,0.523,0.4793,0.4826,0.466,0.4256,0.4119,0.3704,0.2536,0.2147,0.1751,0.0676,0.0,0.0286,0.0,-0.0373,-0.083,-0.1131,-0.1335,-0.1261,-0.0894,-0.0302,0.0,0.0,0.0404,0.0404,0.0202,0.0404,0.0605,0.0,0.0303,0.0,0.0,0.0505,0.0707,0.0,0.0,0.0808,0.0505,0.0505,0.0404,0.0202,0.0,0.0,0.0,0.0,0.0505,0.0505,0.0908,0.1311,1.5909,1.3892,1.5977,1.7095,1.713,1.5505,1.4762,1.4659,1.3947,1.3513,1.3308,1.3303,1.3853,1.4749,1.5004,1.5476,1.5695,1.4648,1.4072,1.3647,1.1239,0.9961,0.9945,0.9827,1.0029,1.0388,1.1213,1.1199,0.9945,0.6739,0.3564,0.0962,-0.202,-0.4561,-0.6388,-0.7092,-0.6746,-0.5626,-0.3485,-0.1139,0.0954,0.2365,0.4334,0.6529,0.5901,0.6305,0.8,0.6715,0.6198,0.6605,0.5805,0.5808,0.6602,0.6163,0.6251,0.6782,0.5991,0.5378,0.5308,0.4853,0.4636,0.4876,0.5099,0.516,0.4984,0.5054,0.4925,0.4399,0.4323,0.4057,0.3684,0.355,0.2856,0.143,0.1144,0.0857,0.0189,0.0,0.0,0.0,-0.0653,-0.1304,-0.1929,-0.2051,-0.1776,-0.1205,-0.0706,-0.0202,0.0,0.0,0.0,0.0,0.0,0.0,0.0,0.0,0.0,0.0,0.0,0.0,0.0,0.0,0.0,0.0101,-0.0202,-0.0303,-0.0303,0.0,0.0,0.0,0.0,0.0,0.0,0.0,0.1613,1.4376,1.3268,1.4447,1.5442,1.574,1.4951,1.4534,1.4415,1.3136,1.2388,1.2288,1.2178,1.2611,1.3324,1.4136,1.4319,1.4067,1.3881,1.3588,1.2987,1.1092,1.0148,1.0148,0.9619,0.9216,0.9176,0.9153,0.8104,0.5741,0.4013,0.1429,-0.1695,-0.3472,-0.5296,-0.6593,-0.6412,-0.5869,-0.4635,-0.1978,0.0287,0.1653,0.2834,0.4073,0.5249,0.5698,0.6117,0.6658,0.663,0.6475,0.6435,0.6251,0.6254,0.6432,0.6343,0.6077,0.5552,0.5466,0.5204,0.4733,0.4668,0.4712,0.4988,0.5303,0.5451,0.5161,0.5147,0.4754,0.3992,0.365,0.346,0.3411,0.3407,0.2935,0.1423,0.1142,0.0754,0.0,0.0,0.0,0.0,-0.1105,-0.2131,-0.3433,-0.33,-0.267,-0.2007,-0.1513,-0.0908,0.0,0.0,0.0,0.0,0.0,0.0,0.0,0.0,0.0,0.0,0.0,0.0,0.0,-0.0303,-0.0303,-0.0404,-0.0908,-0.1009,-0.0808,0.0,0.0,0.0,0.0,0.0,0.0,0.0,0.2118,1.4524,1.4482,1.3957,1.4393,1.5144,1.4046,1.3412,1.3397,1.2711,1.2247,1.1973,1.1935,1.2329,1.293,1.2791,1.3405,1.4276,1.3751,1.3446,1.3239,1.1332,1.0432,1.0208,0.8955,0.804,0.7663,0.7084,0.5555,0.355,0.2565,0.0813,-0.1484,-0.2849,-0.4093,-0.5111,-0.4833,-0.3974,-0.2722,-0.0693,0.09,0.2095,0.3029,0.3825,0.4345,0.4195,0.499,0.6668,0.5478,0.5029,0.573,0.5366,0.5277,0.5725,0.5725,0.5492,0.4833,0.4751,0.4745,0.462,0.4604,0.4612,0.4787,0.5034,0.5056,0.4784,0.4479,0.4087,0.3489,0.2916,0.2548,0.2102,0.2016,0.1651,0.0,0.0,0.0,0.0,0.0,-0.0183,-0.0845,-0.1908,-0.2998,-0.3448,-0.3427,-0.3099,-0.2717,-0.1916,-0.121,-0.0807,-0.0404,0.0,0.0,0.0,0.0,0.0,0.0,0.0,0.0,0.0,0.0,0.0,-0.111,-0.111,-0.1009,-0.1513,-0.1513,-0.1312,-0.0909,-0.0707,-0.0505,-0.0303,0.0,0.0,0.0,0.1816,1.4119,1.4702,1.3629,1.367,1.4495,1.3399,1.2824,1.2758,1.2606,1.2416,1.2387,1.2333,1.2725,1.3164,1.2874,1.3216,1.4217,1.3503,1.3056,1.2847,1.1159,1.0147,0.9472,0.7762,0.6596,0.5871,0.493,0.352,0.2065,0.1464,0.0206,-0.1695,-0.2103,-0.2683,-0.323,-0.2566,-0.149,-0.0499,0.0812,0.214,0.2933,0.3571,0.3982,0.4133,0.3685,0.4213,0.6045,0.4551,0.4092,0.4818,0.4613,0.4523,0.4975,0.5099,0.4965,0.4562,0.4481,0.4545,0.4669,0.4622,0.4695,0.4747,0.4862,0.4767,0.4495,0.4023,0.3539,0.2876,0.224,0.1524,0.0988,0.0722,0.0542,0.0,0.0,0.0,0.0,0.0,0.0,-0.1396,-0.2499,-0.34,-0.3852,-0.3829,-0.359,-0.342,-0.2319,-0.1613,-0.121,0.0,0.0,0.0,0.0,0.0,0.0,0.0,-0.101,-0.101,-0.1312,-0.1613,-0.1815,-0.1816,-0.1816,-0.1714,-0.1714,-0.1816,-0.1614,-0.1312,-0.101,-0.0707,0.0,0.0,0.0,0.0,0.1406,1.2917,1.3727,1.3249,1.3332,1.3577,1.3274,1.2961,1.2941,1.2888,1.3078,1.3572,1.3525,1.3942,1.435,1.4282,1.4173,1.3706,1.2821,1.2169,1.163,1.0416,0.9219,0.8066,0.636,0.4921,0.3814,0.3001,0.1932,0.0979,0.0763,-0.0215,-0.1454,-0.1123,-0.111,-0.1475,0.0099,0.1181,0.1584,0.2816,0.3841,0.4036,0.4354,0.4665,0.4645,0.4241,0.4209,0.4816,0.4208,0.4028,0.4368,0.4436,0.4434,0.4539,0.4599,0.466,0.4569,0.4573,0.4618,0.4689,0.4628,0.4666,0.4662,0.4771,0.4584,0.4244,0.3773,0.305,0.224,0.1524,0.0808,0.0,0.0,0.0,0.0,0.0,0.0,0.0,0.0,-0.0539,-0.1902,-0.2992,-0.3713,-0.4304,-0.4465,-0.4252,-0.3701,-0.2919,-0.2118,-0.1412,-0.0707,0.0,0.0,-0.0505,-0.0807,-0.1312,-0.1917,-0.1615,-0.1414,-0.1816,-0.2117,-0.2219,-0.2321,-0.2321,-0.2321,-0.2522,-0.2522,-0.1917,-0.1514,-0.1009,0.0,0.0,0.0,0.0,0.06,0.129,1.303,1.3674,1.3556,1.3532,1.357,1.3377,1.3587,1.4073,1.3823,1.4357,1.5292,1.5258,1.5642,1.601,1.5351,1.456,1.3973,1.2411,1.1507,1.0964,0.9498,0.8085,0.6754,0.5034,0.3285,0.1783,0.1007,0.0447,0.0223,0.0675,0.0556,-0.0108,0.0748,0.0951,0.0208,0.1744,0.2649,0.2551,0.3484,0.4291,0.4554,0.4446,0.4577,0.484,0.4157,0.4048,0.479,0.4274,0.4068,0.4534,0.453,0.453,0.4536,0.4557,0.4602,0.4657,0.4665,0.4704,0.4761,0.4657,0.4379,0.4067,0.3786,0.3437,0.2959,0.2329,0.1792,0.1435,0.0808,0.018,0.0,0.0,0.0,0.0,0.0,0.0,0.0,-0.0916,-0.1728,-0.2346,-0.3438,-0.4156,-0.4334,-0.4502,-0.4506,-0.415,-0.3394,-0.2616,-0.1814,-0.1109,0.0,0.0,-0.0908,-0.1211,-0.1715,-0.2219,-0.2321,-0.2221,-0.2522,-0.2723,-0.2825,-0.2825,-0.2825,-0.2826,-0.313,-0.2927,-0.232,-0.1812,-0.1307,-0.0704,0.0,0.0,0.0,0.0,0.0,1.3324,1.3688,1.3688,1.3688,1.3679,1.3547,1.38,1.4291,1.4604,1.5417,1.6429,1.6612,1.6784,1.6851,1.5646,1.4308,1.3008,1.102,0.971,0.9052,0.7971,0.6495,0.4893,0.3012,0.1844,0.0915,0.0344,0.0115,0.0229,0.1037,0.1373,0.123,0.2228,0.243,0.174,0.2794,0.3204,0.2884,0.3502,0.3995,0.4179,0.4223,0.4343,0.4622,0.4339,0.4441,0.4912,0.4602,0.4382,0.4558,0.4624,0.4634,0.4665,0.4675,0.4696,0.4738,0.4759,0.468,0.441,0.4181,0.3901,0.3215,0.2935,0.2689,0.2149,0.1524,0.1078,0.0997,0.0454,0.0,0.0,0.0,0.0,0.0,0.0,0.0,-0.0464,-0.1756,-0.2562,-0.2991,-0.3756,-0.4254,-0.4382,-0.4418,-0.4526,-0.417,-0.3646,-0.3093,-0.2399,-0.1607,-0.131,-0.1313,-0.1615,-0.1817,-0.1917,-0.2421,-0.3026,-0.3128,-0.333,-0.343,-0.3531,-0.3531,-0.353,-0.343,-0.3533,-0.3229,-0.2722,-0.2097,-0.1591,-0.0997,0.0,0.0,0.0,0.0,0.0,1.3688,1.3688,1.3688,1.3688,1.3569,1.367,1.3808,1.3898,1.5014,1.6046,1.6891,1.7229,1.7196,1.6665,1.5077,1.3057,1.0812,0.8908,0.721,0.6239,0.5506,0.4496,0.2753,0.1063,0.0587,0.0822,0.0465,0.0699,0.1299,0.1773,0.2106,0.2193,0.2878,0.3085,0.259,0.3255,0.3243,0.2677,0.308,0.3372,0.3476,0.3978,0.4158,0.4257,0.4691,0.5004,0.5073,0.493,0.4844,0.4767,0.4743,0.4767,0.4822,0.4839,0.4818,0.4822,0.4832,0.4325,0.3801,0.3694,0.314,0.2373,0.2205,0.2062,0.1798,0.1263,0.0909,0.0924,0.0371,0.0,0.0,0.0,0.0,0.0,0.0,-0.0474,-0.1207,-0.2497,-0.3113,-0.3336,-0.3859,-0.4328,-0.4316,-0.4346,-0.4305,-0.4082,-0.3681,-0.3339,-0.2865,-0.2291,-0.1912,-0.2017,-0.2321,-0.2423,-0.2522,-0.2724,-0.3229,-0.3331,-0.3533,-0.363,-0.3831,-0.3831,-0.3814,-0.3717,-0.3712,-0.3516,-0.3097,-0.2365,-0.1762,-0.1175,0.0,0.0,0.0,0.0,0.0,1.4038,1.3084,1.3449,1.3444,1.3084,1.3449,1.4371,1.5263,1.5494,1.6569,1.7701,1.7503,1.6391,1.5033,1.3463,1.114,0.8216,0.6936,0.5449,0.3944,0.3239,0.2466,0.1448,0.0475,0.0356,0.0957,0.1074,0.1202,0.1829,0.2432,0.2414,0.1788,0.3086,0.2947,0.1863,0.2868,0.3085,0.2503,0.2772,0.2949,0.3056,0.3591,0.3991,0.3948,0.4738,0.5026,0.502,0.4941,0.4957,0.5002,0.4934,0.491,0.492,0.477,0.4634,0.4734,0.4734,0.4431,0.3699,0.35,0.286,0.171,0.147,0.1174,0.0641,0.0,0.0,0.0,0.0,0.0,0.0,0.0,0.0,-0.0798,-0.0984,-0.1346,-0.2243,-0.2958,-0.3395,-0.3512,-0.4032,-0.4139,-0.4164,-0.4211,-0.425,-0.4111,-0.3915,-0.3717,-0.3233,-0.2978,-0.2611,-0.2619,-0.2722,-0.2925,-0.3029,-0.3229,-0.3432,-0.3534,-0.3632,-0.3524,-0.3626,-0.3726,-0.3698,-0.3574,-0.3752,-0.3554,-0.3021,-0.2402,-0.1825,-0.1346,0.0,0.0,0.0,0.0,0.0,1.3913,1.3084,1.3204,1.3204,1.32,1.3569,1.4401,1.5343,1.5704,1.6034,1.6635,1.6203,1.4434,1.1852,1.0334,0.7846,0.4994,0.4266,0.3254,0.249,0.2494,0.2102,0.1462,0.1085,0.1328,0.2188,0.2191,0.2202,0.2463,0.3207,0.2944,0.2312,0.3263,0.3107,0.1645,0.2201,0.2518,0.193,0.1895,0.1982,0.1749,0.2623,0.2922,0.3209,0.3869,0.4475,0.4362,0.4336,0.4366,0.4499,0.4451,0.4418,0.4444,0.397,0.3932,0.4232,0.4029,0.3416,0.2778,0.2517,0.1995,0.094,0.0,0.0,0.0,0.0,0.0,0.0,0.0,0.0,0.0,-0.0298,-0.0997,-0.2007,-0.2196,-0.2442,-0.3103,-0.3655,-0.3878,-0.3985,-0.4121,-0.4297,-0.4034,-0.426,-0.4188,-0.4034,-0.4021,-0.3908,-0.3673,-0.3448,-0.3297,-0.3302,-0.3194,-0.3285,-0.3271,-0.3364,-0.3355,-0.3463,-0.3572,-0.3575,-0.3581,-0.3583,-0.3651,-0.3613,-0.3694,-0.3668,-0.3147,-0.2643,-0.1978,-0.1316,-0.0562,0.0,0.0,0.0,0.0,1.3794,1.3569,1.2964,1.2964,1.3444,1.3569,1.3923,1.4624,1.5084,1.483,1.4096,1.3583,1.1279,0.7988,0.6549,0.4292,0.204,0.1763,0.1505,0.1496,0.211,0.2339,0.2083,0.2208,0.2571,0.3308,0.3685,0.3185,0.2811,0.3788,0.3423,0.2423,0.324,0.3207,0.1981,0.1841,0.1592,0.1125,0.0893,0.0774,0.0656,0.1302,0.1711,0.2106,0.2916,0.3421,0.3392,0.3408,0.3427,0.3491,0.3454,0.358,0.3615,0.2853,0.2827,0.3221,0.2912,0.2291,0.1471,0.1443,0.0945,0.0,0.0,0.0,0.0,0.0,0.0,0.0,0.0,0.0,0.0,-0.0907,-0.2013,-0.3123,-0.3522,-0.3663,-0.3662,-0.4191,-0.4502,-0.4332,-0.43,-0.4297,-0.4297,-0.43,-0.4216,-0.4164,-0.4148,-0.4122,-0.3994,-0.3862,-0.392,-0.416,-0.3844,-0.3523,-0.3502,-0.3384,-0.3372,-0.3369,-0.3475,-0.3483,-0.3686,-0.3684,-0.3667,-0.3644,-0.3716,-0.3691,-0.3662,-0.2981,-0.213,-0.1474,-0.0734,0.0,0.0,0.0,0.0,1.451,1.284,1.2719,1.2479,1.2359,1.2719,1.3315,1.3904,1.3536,1.2973,1.2089,1.0333,0.772,0.5119,0.3569,0.2029,0.0752,0.0873,0.1233,0.1708,0.1602,0.2081,0.2315,0.2938,0.3303,0.3283,0.2907,0.2648,0.2627,0.2741,0.2244,0.1638,0.2218,0.2072,0.1361,0.1239,0.1126,0.0895,0.0111,-0.011,0.0108,0.0213,0.073,0.1228,0.2194,0.2545,0.2626,0.263,0.2338,0.206,0.2416,0.267,0.2776,0.2443,0.2422,0.2511,0.2486,0.1972,0.1367,0.1049,0.0843,0.0,0.0,0.0,0.0,0.0,0.0,0.0,0.0,0.0,-0.0907,-0.2218,-0.3024,-0.3627,-0.4126,-0.447,-0.4428,-0.4478,-0.4489,-0.4357,-0.4297,-0.4297,-0.4297,-0.4297,-0.4304,-0.4224,-0.427,-0.434,-0.4307,-0.4173,-0.4325,-0.4483,-0.4159,-0.3741,-0.3728,-0.3603,-0.3487,-0.338,-0.348,-0.3484,-0.3587,-0.369,-0.3582,-0.3565,-0.3544,-0.3613,-0.3595,-0.2744,-0.1726,-0.1355,0.0,0.0,0.0,0.0,0.0,1.4386,1.2719,1.2359,1.2118,1.1877,1.2118,1.247,1.2453,1.135,1.0176,0.8872,0.6595,0.4212,0.1813,0.1026,0.0127,0.0,0.0632,0.1376,0.1856,0.1977,0.1958,0.2057,0.291,0.3395,0.3249,0.3226,0.308,0.3064,0.3052,0.2923,0.1609,0.1937,0.1793,0.0986,0.0653,0.0323,-0.0107,-0.0641,-0.0957,-0.126,-0.1044,-0.0514,0.0504,0.1373,0.1926,0.1624,0.1622,0.1233,0.0,0.0,0.1618,0.1722,0.1515,0.1509,0.1793,0.1397,0.1172,0.0767,0.0572,0.0474,0.0,0.0,0.0,0.0,0.0,0.0,0.0,0.0,-0.0404,-0.1614,-0.2722,-0.3627,-0.4131,-0.4531,-0.4773,-0.4663,-0.4598,-0.4502,-0.4355,-0.4297,-0.4297,-0.4297,-0.4297,-0.43,-0.4216,-0.4218,-0.4284,-0.4348,-0.4309,-0.4442,-0.4474,-0.4158,-0.3946,-0.3937,-0.3817,-0.3597,-0.3584,-0.358,-0.3577,-0.3577,-0.3585,-0.3593,-0.358,-0.357,-0.3367,-0.3258,-0.2334,-0.1615,-0.1348,0.0,0.0,0.0,0.0,0.0,1.3947,1.2599,1.1997,1.1639,1.1514,1.1514,1.1137,1.0507,0.9163,0.7331,0.534,0.3285,0.1411,-0.0522,-0.103,-0.1032,-0.0519,0.0516,0.1645,0.1999,0.1981,0.1831,0.1687,0.2039,0.2631,0.3345,0.3421,0.3392,0.3729,0.3965,0.2985,0.2268,0.2015,0.1417,0.0636,0.0104,-0.0516,-0.1228,-0.1546,-0.1956,-0.2643,-0.245,-0.1823,-0.0498,0.0589,0.1063,0.0859,0.0759,0.0,0.0,0.0,0.0,0.059,0.0499,0.02,0.0985,0.0497,0.0,0.0,0.0,0.0,0.0,0.0,0.0,0.0,0.0,0.0,0.0,-0.0404,-0.1009,-0.2321,-0.3327,-0.4029,-0.4533,-0.4734,-0.4794,-0.4718,-0.4636,-0.4522,-0.4371,-0.4314,-0.4297,-0.4297,-0.4297,-0.4297,-0.43,-0.43,-0.4318,-0.4383,-0.4424,-0.4455,-0.4463,-0.4246,-0.4051,-0.3952,-0.3952,-0.3728,-0.3725,-0.3707,-0.3787,-0.378,-0.3796,-0.3812,-0.3522,-0.3419,-0.332,-0.2962,-0.2153,-0.1615,-0.1346,0.0,0.0,0.0,0.0,0.0,1.4082,1.2599,1.1997,1.1152,1.0183,1.0061,0.8942,0.7337,0.6609,0.5107,0.2937,0.1154,-0.0129,-0.1049,-0.1708,-0.1305,-0.013,0.1025,0.1767,0.187,0.1606,0.1217,0.1071,0.0946,0.1057,0.151,0.2307,0.2981,0.3181,0.2823,0.2577,0.1851,0.1405,0.0742,-0.0104,-0.071,-0.1428,-0.2236,-0.2648,-0.2944,-0.2934,-0.2903,-0.2478,-0.1072,0.0,0.0,0.0,0.0,0.0093,0.0,0.0,0.0,0.0,0.0,0.0,0.0,0.0,0.0,0.0,0.0,0.0,0.0,0.0,0.0,0.0,0.0,0.0,0.0,-0.111,-0.2119,-0.2321,-0.3629,-0.4431,-0.4732,-0.4828,-0.4802,-0.4734,-0.4679,-0.4612,-0.4461,-0.4377,-0.431,-0.4322,-0.4322,-0.4316,-0.431,-0.43,-0.43,-0.4242,-0.4254,-0.4346,-0.4342,-0.4326,-0.4144,-0.3965,-0.397,-0.3873,-0.3888,-0.3969,-0.4133,-0.4125,-0.4212,-0.4119,-0.3853,-0.3496,-0.3317,-0.278,-0.2152,-0.1705,-0.1436,0.0,0.0,0.0,0.0,0.0,1.4115,1.2599,1.1635,1.0539,0.9195,0.7969,0.6496,0.478,0.3558,0.2112,0.0507,-0.0642,-0.1429,-0.197,-0.1977,-0.1312,0.0,0.1413,0.1908,0.1765,0.1235,0.0845,0.0706,0.0234,0.0806,0.1481,0.2153,0.26,0.3253,0.303,0.2319,0.163,0.097,0.0,-0.1043,-0.1767,-0.2381,-0.3104,-0.3493,-0.378,-0.357,-0.341,-0.2275,-0.1375,0.0,0.0,0.0,0.0,0.0,0.0,0.0,0.0,0.0,0.0,0.0,0.0,0.0,0.0,0.0,0.0,0.0,0.0,0.0,0.0,0.0,0.0,0.0,0.0,-0.1413,-0.2422,-0.2422,-0.3929,-0.4632,-0.4832,-0.4832,-0.4812,-0.4775,-0.4734,-0.4659,-0.4575,-0.4518,-0.4451,-0.4377,-0.4369,-0.4344,-0.4324,-0.4304,-0.4212,-0.4125,-0.4121,-0.421,-0.423,-0.4242,-0.4176,-0.4085,-0.408,-0.3995,-0.4,-0.4156,-0.423,-0.4216,-0.4218,-0.4214,-0.4032,-0.3764,-0.3496,-0.3138,-0.2602,-0.2063,-0.1525,0.0,0.0,0.0,0.0,0.0,1.3775,1.2414,1.1163,0.9684,0.7961,0.588,0.3925,0.2211,0.0614,-0.0744,-0.2017,-0.2178,-0.2469,-0.2757,-0.1976,-0.1054,0.0132,0.1424,0.179,0.1516,0.1107,0.0718,0.0469,0.0347,0.0571,0.1464,0.2021,0.2576,0.3362,0.3475,0.2884,0.175,0.0763,-0.0541,-0.1915,-0.2643,-0.3402,-0.3899,-0.4076,-0.435,-0.421,-0.3355,-0.2219,-0.1512,-0.0795,0.0,0.0,0.0,0.0,0.0,0.0,0.0,0.0,0.0,0.0,0.0,0.0,0.0,0.0,0.0,0.0,0.0,0.0,0.0,0.0,0.0,0.0,-0.0404,-0.1513,-0.2522,-0.2924,-0.3929,-0.4632,-0.4832,-0.4832,-0.4828,-0.4812,-0.4785,-0.4759,-0.4696,-0.4655,-0.4567,-0.4463,-0.4444,-0.4426,-0.4256,-0.4234,-0.4141,-0.4049,-0.3946,-0.4039,-0.4072,-0.4101,-0.4233,-0.4242,-0.4238,-0.416,-0.4087,-0.4223,-0.4363,-0.4248,-0.4143,-0.4135,-0.4036,-0.3855,-0.3587,-0.3318,-0.2871,-0.2154,-0.1436,-0.0718,0.0,0.0,0.0,0.0,1.2759,1.1983,1.0487,0.834,0.5762,0.4167,0.1717,-0.123,-0.1844,-0.2855,-0.403,-0.3204,-0.286,-0.2627,-0.1054,-0.0264,0.0261,0.1025,0.1511,0.1369,0.0851,0.0592,0.0463,0.0115,0.0569,0.1348,0.1794,0.2691,0.3475,0.3813,0.289,0.1426,0.0328,-0.0758,-0.3002,-0.3539,-0.4116,-0.4696,-0.4775,-0.4525,-0.3861,-0.3537,-0.2925,-0.2418,-0.2011,-0.1906,-0.18,-0.1775,-0.1565,-0.0979,-0.098,-0.0688,0.0,0.0,0.0,0.0,0.0,0.0,0.0,0.0,0.0,0.0,0.0,0.0,0.0,0.0,-0.0303,-0.1109,-0.1917,-0.2622,-0.3226,-0.423,-0.4632,-0.4832,-0.4832,-0.4832,-0.4826,-0.4818,-0.4794,-0.4792,-0.4743,-0.462,-0.4504,-0.451,-0.4504,-0.4324,-0.4168,-0.4078,-0.3995,-0.3997,-0.4093,-0.4227,-0.4262,-0.4301,-0.4321,-0.4408,-0.4328,-0.4167,-0.4299,-0.4416,-0.429,-0.4085,-0.3961,-0.3864,-0.3769,-0.3676,-0.3499,-0.296,-0.2154,-0.1525,-0.1077,-0.0539,0.0,-0.018,-0.0359,1.1275,1.126,0.9503,0.7146,0.4461,0.2216,-0.0491,-0.2952,-0.3571,-0.4325,-0.4998,-0.3706,-0.2861,-0.2365,-0.0922,-0.0262,-0.013,0.0757,0.1119,0.0979,0.0598,0.035,0.0345,0.0456,0.0789,0.1462,0.213,0.2914,0.3475,0.3249,0.223,0.0332,-0.0553,-0.2099,-0.4038,-0.46,-0.4886,-0.5024,-0.493,-0.4543,-0.3888,-0.355,-0.3228,-0.2522,-0.2423,-0.2522,-0.2516,-0.2407,-0.1994,-0.1396,-0.1196,-0.0798,0.0,0.0,0.0,0.0,0.0,0.0,0.0,0.0,0.0,0.0,0.0,0.0,0.0,0.0,-0.0101,-0.0505,-0.1715,-0.2521,-0.3126,-0.413,-0.4531,-0.4832,-0.4832,-0.4832,-0.4832,-0.4832,-0.4826,-0.483,-0.482,-0.4696,-0.4585,-0.4567,-0.4545,-0.4461,-0.4332,-0.416,-0.4088,-0.4111,-0.4212,-0.441,-0.4444,-0.4478,-0.4397,-0.4401,-0.4407,-0.4323,-0.4379,-0.4406,-0.4344,-0.4124,-0.3995,-0.378,-0.3588,-0.3587,-0.3588,-0.3138,-0.2241,-0.1883,-0.1614,-0.0987,-0.0449,-0.0359,-0.0179,0.9692,0.9613,0.7867,0.5607,0.3003,0.0248,-0.2346,-0.4556,-0.4805,-0.5421,-0.5706,-0.4434,-0.3102,-0.2085,-0.1168,-0.0513,-0.0255,0.0495,0.061,0.0599,0.0588,0.046,0.0569,0.0789,0.1459,0.2019,0.2467,0.3027,0.3029,0.2579,0.1344,-0.0894,-0.1227,-0.3016,-0.4702,-0.5246,-0.531,-0.511,-0.5084,-0.4599,-0.3954,-0.3997,-0.3564,-0.3044,-0.2934,-0.3026,-0.3025,-0.3123,-0.2719,-0.2114,-0.1611,-0.1207,0.0,0.0,0.0,0.0,0.0,0.0,0.0,0.0,0.0,0.0,0.0,0.0,0.0,0.0,-0.0404,-0.0808,-0.1614,-0.2521,-0.3126,-0.423,-0.4531,-0.4832,-0.4832,-0.4832,-0.4832,-0.4832,-0.4832,-0.4832,-0.482,-0.4783,-0.4692,-0.4638,-0.4579,-0.4502,-0.4398,-0.4334,-0.4267,-0.4204,-0.4313,-0.451,-0.4556,-0.4582,-0.459,-0.4501,-0.4503,-0.4485,-0.4542,-0.4577,-0.4414,-0.4162,-0.393,-0.3716,-0.3501,-0.3318,-0.3321,-0.2868,-0.2506,-0.215,-0.1792,-0.1256,-0.0808,-0.0718,-0.009,0.8028,0.6398,0.554,0.3429,0.0627,-0.1506,-0.3485,-0.5653,-0.6023,-0.6267,-0.6156,-0.5256,-0.3684,-0.23,-0.1258,-0.0621,0.0,0.036,0.0472,0.0582,0.069,0.0797,0.0904,0.1349,0.2019,0.2468,0.2917,0.2918,0.2693,0.2356,0.0896,-0.0782,-0.1454,-0.3246,-0.4589,-0.525,-0.5335,-0.5251,-0.5137,-0.4776,-0.4437,-0.4391,-0.445,-0.4018,-0.4277,-0.4636,-0.4636,-0.4435,-0.3929,-0.3123,-0.252,-0.1815,-0.1007,-0.0302,0.0,0.0,0.0,0.0,0.0,0.0,0.0,0.0,0.0,0.0,0.0,0.0,0.0,-0.1514,-0.2018,-0.2923,-0.3828,-0.4732,-0.4832,-0.4832,-0.4832,-0.4832,-0.4832,-0.4832,-0.4832,-0.4832,-0.4814,-0.4783,-0.4763,-0.4702,-0.4659,-0.4583,-0.4526,-0.4461,-0.435,-0.4274,-0.4296,-0.4417,-0.4668,-0.4696,-0.4806,-0.47,-0.4674,-0.4656,-0.4628,-0.4651,-0.4569,-0.4313,-0.3976,-0.3714,-0.3496,-0.323,-0.3053,-0.2869,-0.2688,-0.2418,-0.2061,-0.1704,-0.099,-0.0541,0.0182,0.6752,0.472,0.2609,0.0258,-0.1902,-0.3461,-0.5602,-0.7621,-0.7679,-0.6853,-0.5943,-0.5136,-0.3815,-0.2218,-0.1473,-0.0847,-0.0359,0.0,0.0232,0.0344,0.0569,0.0903,0.1234,0.1795,0.2468,0.2806,0.303,0.3253,0.3251,0.2243,0.0784,-0.0559,-0.1232,-0.2687,-0.4026,-0.5008,-0.5204,-0.5294,-0.52,-0.4919,-0.4845,-0.4894,-0.4952,-0.4734,-0.4658,-0.4924,-0.4912,-0.4859,-0.434,-0.363,-0.2825,-0.2117,-0.1311,-0.0505,0.0,0.0,0.0,0.0,0.0,0.0,0.0,0.0,0.0,0.0,0.0,0.0,0.0,-0.0909,-0.2018,-0.3025,-0.3124,-0.413,-0.4832,-0.4832,-0.4832,-0.4832,-0.4832,-0.4832,-0.4832,-0.4832,-0.482,-0.4798,-0.4779,-0.4757,-0.4716,-0.4681,-0.4638,-0.4575,-0.4449,-0.4436,-0.4453,-0.4553,-0.4696,-0.4712,-0.4816,-0.4822,-0.483,-0.4814,-0.4794,-0.4704,-0.461,-0.4379,-0.4029,-0.3753,-0.3496,-0.3318,-0.3229,-0.3048,-0.2957,-0.2777,-0.2599,-0.2243,-0.1532,-0.0635,0.0276,0.5646,0.3409,0.039,-0.1932,-0.3677,-0.5249,-0.7269,-0.9078,-0.8829,-0.7575,-0.5924,-0.5339,-0.3934,-0.2388,-0.1774,-0.0944,-0.0233,0.023,0.0458,0.0795,0.1242,0.1347,0.1795,0.2355,0.3029,0.3029,0.3029,0.3251,0.2803,0.2019,0.0784,-0.0224,-0.1008,-0.224,-0.4134,-0.4659,-0.4987,-0.5216,-0.4951,-0.4996,-0.5158,-0.52,-0.5151,-0.5028,-0.5059,-0.5018,-0.499,-0.4939,-0.4687,-0.3861,-0.314,-0.232,-0.1613,-0.0908,-0.0303,-0.0202,0.0,0.0,0.0,0.0,0.0,0.0,0.0,0.0,0.0,-0.0202,-0.0706,-0.111,-0.2118,-0.2823,-0.2923,-0.423,-0.4834,-0.4832,-0.4832,-0.4832,-0.4832,-0.4832,-0.4832,-0.4832,-0.482,-0.4814,-0.4806,-0.4792,-0.4773,-0.4732,-0.4728,-0.4676,-0.4702,-0.4694,-0.4704,-0.4698,-0.4694,-0.4796,-0.4794,-0.4787,-0.4783,-0.4785,-0.4759,-0.4714,-0.4546,-0.4409,-0.4133,-0.3913,-0.3676,-0.3496,-0.3406,-0.3229,-0.3227,-0.3315,-0.2971,-0.263,-0.1919,-0.0922,0.0094,0.4855,0.2485,-0.0764,-0.3017,-0.461,-0.6545,-0.8329,-0.9557,-0.94,-0.8307,-0.6734,-0.6296,-0.4623,-0.2672,-0.1942,-0.0911,0.0344,0.0793,0.1013,0.1575,0.2024,0.2469,0.2692,0.3141,0.3363,0.3365,0.3253,0.2805,0.2131,0.157,0.0673,-0.0112,-0.0784,-0.1905,-0.4933,-0.4479,-0.4479,-0.5039,-0.4352,-0.4684,-0.5002,-0.5058,-0.5029,-0.522,-0.5132,-0.5081,-0.5057,-0.4967,-0.4814,-0.4498,-0.3344,-0.2825,-0.2822,-0.111,-0.0505,-0.0807,-0.0404,0.0,0.0,0.0,0.0,0.0,0.0,0.0,0.0,-0.0605,-0.121,-0.1513,-0.2723,-0.3728,-0.4332,-0.4736,-0.4734,-0.4832,-0.4832,-0.4818,-0.4816,-0.4832,-0.4832,-0.479,-0.481,-0.4832,-0.483,-0.4824,-0.4818,-0.4787,-0.4747,-0.4765,-0.4818,-0.4832,-0.4832,-0.4826,-0.4806,-0.4798,-0.4787,-0.4749,-0.4736,-0.4743,-0.4738,-0.4708,-0.4653,-0.4494,-0.4293,-0.398,-0.3765,-0.3585,-0.3497,-0.3411,-0.3334,-0.3174,-0.3109,-0.2764,-0.2042,-0.1219,-0.019,0.4438,0.1289,-0.1858,-0.4687,-0.7057,-0.8289,-0.9945,-1.1354,-1.0644,-0.9173,-0.7478,-0.6207,-0.4297,-0.2553,-0.1449,-0.0557,0.0676,0.0903,0.1234,0.1907,0.2468,0.2581,0.2918,0.3253,0.3587,0.3587,0.3253,0.2917,0.2468,0.1683,0.0672,-0.0112,-0.0896,-0.2017,-0.2913,-0.3136,-0.403,-0.3808,-0.3805,-0.414,-0.4475,-0.4453,-0.4772,-0.5212,-0.5192,-0.5124,-0.5106,-0.4992,-0.492,-0.4802,-0.3639,-0.3228,-0.2923,-0.1311,-0.0706,-0.0807,-0.0404,-0.0807,-0.0605,0.0,0.0,0.0,0.0,0.0,0.0,-0.0806,-0.1311,-0.1916,-0.3024,-0.3728,-0.3929,-0.4533,-0.4734,-0.4734,-0.4824,-0.4787,-0.4781,-0.4812,-0.4816,-0.4741,-0.4722,-0.4802,-0.483,-0.4806,-0.4796,-0.4822,-0.4787,-0.4785,-0.4828,-0.4832,-0.4832,-0.4832,-0.4822,-0.4808,-0.4787,-0.4753,-0.4747,-0.4767,-0.4761,-0.4738,-0.4673,-0.4585,-0.4285,-0.3982,-0.378,-0.3587,-0.3426,-0.3354,-0.3105,-0.3033,-0.2883,-0.2626,-0.2172,-0.1338,-0.0291,0.3776,0.0,-0.3265,-0.6486,-0.9393,-1.0213,-1.1531,-1.2729,-1.1601,-0.9925,-0.8066,-0.6132,-0.4191,-0.2505,-0.1095,0.0,0.112,0.1458,0.1906,0.2355,0.2805,0.3029,0.3253,0.3362,0.3587,0.3587,0.3363,0.303,0.2581,0.1795,0.0897,-0.0224,0.0,-0.1233,-0.1457,-0.2129,-0.2912,-0.28,-0.3024,-0.336,-0.3807,-0.4139,-0.4477,-0.5123,-0.5275,-0.5196,-0.5126,-0.5024,-0.491,-0.4681,-0.4147,-0.353,-0.2923,-0.2017,-0.121,-0.1009,-0.0606,-0.1109,-0.121,-0.0908,0.0,0.0,-0.0592,-0.0395,-0.0698,-0.1594,-0.2005,-0.2612,-0.3324,-0.3728,-0.413,-0.4734,-0.4726,-0.4724,-0.4692,-0.4656,-0.4745,-0.4773,-0.4775,-0.4698,-0.4681,-0.4759,-0.4822,-0.4787,-0.4763,-0.4798,-0.483,-0.4832,-0.4832,-0.4832,-0.4832,-0.483,-0.4812,-0.4781,-0.4769,-0.4759,-0.4763,-0.4787,-0.4773,-0.4654,-0.4562,-0.447,-0.427,-0.3997,-0.3701,-0.3426,-0.3369,-0.3212,-0.298,-0.2729,-0.2374,-0.22,-0.2115,-0.1264,-0.0099,0.273,-0.1243,-0.4744,-0.8124,-1.1009,-1.1742,-1.2646,-1.3272,-1.188,-1.015,-0.8238,-0.6297,-0.4262,-0.2385,-0.0871,0.055,0.1672,0.2348,0.28,0.3245,0.3352,0.3466,0.3463,0.3574,0.3567,0.3353,0.3138,0.2806,0.2581,0.1458,0.0561,0.0,0.0,0.0,0.0,-0.1009,-0.1793,-0.1905,-0.2017,-0.2464,-0.3136,-0.3684,-0.4244,-0.4788,-0.52,-0.5249,-0.5181,-0.5096,-0.5014,-0.4743,-0.4168,-0.4244,-0.3728,-0.2418,-0.2117,-0.1713,-0.0906,-0.131,-0.2009,-0.1606,-0.1492,-0.1674,-0.1572,-0.1276,-0.1575,-0.2276,-0.2895,-0.3314,-0.393,-0.4332,-0.4736,-0.4722,-0.4708,-0.4684,-0.4652,-0.4626,-0.4706,-0.471,-0.4712,-0.4689,-0.4683,-0.473,-0.4891,-0.4879,-0.4666,-0.4802,-0.4832,-0.4832,-0.4832,-0.4832,-0.4832,-0.4826,-0.4798,-0.4745,-0.4741,-0.4769,-0.4777,-0.48,-0.468,-0.465,-0.4552,-0.4371,-0.4109,-0.3857,-0.3534,-0.3359,-0.3416,-0.3196,-0.2869,-0.2509,-0.1842,-0.1465,-0.1178,-0.0594,0.03,0.1633,-0.1782,-0.5418,-0.8424,-1.0736,-1.1944,-1.2562,-1.2657,-1.0936,-0.8965,-0.6874,-0.5161,-0.3248,-0.1052,0.0,0.1183,0.1965,0.265,0.3001,0.3335,0.3544,0.3529,0.3526,0.353,0.3525,0.3321,0.3008,0.258,0.1907,0.0897,0.0336,0.0,0.0,0.0,0.0,0.0,0.0,-0.0896,-0.112,-0.1679,-0.223,-0.2884,-0.3555,-0.4329,-0.5054,-0.5106,-0.5143,-0.5075,-0.4986,-0.4784,-0.4452,-0.4334,-0.3729,-0.2619,-0.2011,-0.2182,-0.1595,-0.1506,-0.2583,-0.1803,-0.1396,-0.2342,-0.2438,-0.2255,-0.2461,-0.2871,-0.3595,-0.4005,-0.4325,-0.4632,-0.4728,-0.4614,-0.4602,-0.4579,-0.4553,-0.4638,-0.4618,-0.4702,-0.4698,-0.4741,-0.4737,-0.4899,-0.4963,-0.4794,-0.4686,-0.4716,-0.4834,-0.4734,-0.4832,-0.4832,-0.4832,-0.4828,-0.4816,-0.4775,-0.4785,-0.4812,-0.4808,-0.4806,-0.4589,-0.4449,-0.4357,-0.4188,-0.3948,-0.373,-0.3615,-0.354,-0.3488,-0.3167,-0.2733,-0.1767,-0.1184,-0.0696,-0.02,0.0302,0.0907,0.0122,-0.2768,-0.5911,-0.8387,-1.005,-1.0327,-1.0364,-1.0151,-0.9375,-0.7922,-0.5982,-0.4109,-0.2172,-0.052,0.0629,0.1707,0.2513,0.2828,0.3176,0.3448,0.3503,0.3516,0.3511,0.3508,0.3519,0.3427,0.3229,0.2805,0.1907,0.1009,0.0,0.0,0.0,0.0,0.0,0.0,0.0,0.0,-0.0558,-0.0893,-0.1553,-0.2205,-0.3095,-0.3946,-0.4757,-0.5058,-0.5071,-0.501,-0.4963,-0.4859,-0.4638,-0.4435,-0.4021,-0.3204,-0.2389,-0.2361,-0.1877,-0.209,-0.2887,-0.2506,-0.2472,-0.2932,-0.3427,-0.3543,-0.3546,-0.3851,-0.4065,-0.4279,-0.4505,-0.4726,-0.4618,-0.451,-0.4499,-0.4386,-0.4474,-0.4559,-0.4542,-0.462,-0.476,-0.4786,-0.4905,-0.4977,-0.5029,-0.4769,-0.4702,-0.4724,-0.4734,-0.4636,-0.4734,-0.4832,-0.4832,-0.483,-0.483,-0.482,-0.4834,-0.4734,-0.4728,-0.462,-0.4412,-0.4261,-0.4168,-0.4035,-0.3728,-0.3721,-0.381,-0.3736,-0.3662,-0.3033,-0.2482,-0.1694,-0.0898,-0.02,0.0402,0.1006,0.1713,-0.1426,-0.3499,-0.6122,-0.7712,-0.8864,-0.7687,-0.7006,-0.66,-0.7096,-0.6659,-0.5018,-0.3196,-0.1549,-0.0103,0.1043,0.1909,0.2574,0.2996,0.3347,0.3567,0.3473,0.3465,0.3504,0.3525,0.3518,0.3557,0.3362,0.2805,0.2243,0.1346,0.0,0.0,0.0,0.0,0.0,0.0,0.0,0.0,0.0,-0.0554,-0.1317,-0.2195,-0.308,-0.3883,-0.4651,-0.5222,-0.5063,-0.501,-0.502,-0.4906,-0.4736,-0.4738,-0.421,-0.3983,-0.3259,-0.2657,-0.227,-0.2674,-0.3091,-0.2911,-0.3386,-0.3864,-0.4581,-0.4367,-0.435,-0.4356,-0.4476,-0.4484,-0.4712,-0.4718,-0.4612,-0.452,-0.4514,-0.4401,-0.4388,-0.448,-0.4569,-0.4734,-0.4871,-0.4919,-0.4942,-0.5005,-0.4931,-0.4773,-0.4506,-0.4628,-0.4636,-0.4537,-0.4636,-0.4734,-0.4734,-0.4734,-0.4832,-0.4734,-0.4734,-0.4734,-0.4636,-0.4431,-0.4212,-0.4083,-0.3907,-0.3796,-0.3606,-0.3803,-0.41,-0.4011,-0.3841,-0.3384,-0.2803,-0.2208,-0.1307,0.0101,0.0907,0.1411,0.242,-0.1389,-0.2156,-0.4231,-0.5534,-0.6187,-0.5792,-0.5148,-0.4502,-0.3932,-0.3521,-0.2738,-0.195,-0.0822,0.0409,0.1228,0.1972,0.2518,0.3049,0.3287,0.3441,0.3417,0.3428,0.3467,0.3496,0.3508,0.3417,0.3,0.2467,0.1682,0.1121,0.0,0.0,0.0,0.0,0.0,0.0,0.0,0.0,0.0,0.0,-0.1187,-0.202,-0.2847,-0.3802,-0.4589,-0.5094,-0.4992,-0.4988,-0.4988,-0.4934,-0.4667,-0.4239,-0.3624,-0.4109,-0.3973,-0.3351,-0.2984,-0.3296,-0.3406,-0.3325,-0.3515,-0.3983,-0.438,-0.4464,-0.4563,-0.4686,-0.48,-0.4806,-0.4712,-0.461,-0.4608,-0.452,-0.4531,-0.4514,-0.4401,-0.4598,-0.4696,-0.4845,-0.4986,-0.499,-0.5005,-0.492,-0.4942,-0.4769,-0.4506,-0.4425,-0.4435,-0.4438,-0.4437,-0.4435,-0.4535,-0.4634,-0.4734,-0.4734,-0.4728,-0.451,-0.4399,-0.4182,-0.3963,-0.3844,-0.373,-0.3837,-0.3844,-0.418,-0.4399,-0.4388,-0.4184,-0.3807,-0.3323,-0.2722,-0.1511,-0.0201,0.1008,0.1713,0.2722,-0.1463,-0.1485,-0.2346,-0.3008,-0.3409,-0.3409,-0.3033,-0.2446,-0.1922,-0.1511,-0.111,-0.0815,-0.0102,0.0808,0.1312,0.1934,0.2477,0.3084,0.3244,0.3388,0.3397,0.3414,0.344,0.3484,0.3518,0.3429,0.2898,0.2244,0.1346,0.0897,0.0,0.0,0.0,0.0,0.0,0.0,0.0,0.0,0.0,0.0,-0.1175,-0.2017,-0.2629,-0.3377,-0.4222,-0.4822,-0.5,-0.4998,-0.5002,-0.4961,-0.4782,-0.4543,-0.423,-0.4528,-0.4329,-0.3934,-0.3755,-0.3875,-0.3772,-0.3777,-0.3576,-0.4158,-0.4551,-0.4766,-0.4503,-0.4616,-0.4684,-0.469,-0.4818,-0.4722,-0.4688,-0.4589,-0.4522,-0.4425,-0.462,-0.4718,-0.4716,-0.4796,-0.5066,-0.5365,-0.5358,-0.5232,-0.5243,-0.5036,-0.4779,-0.4528,-0.4537,-0.4438,-0.4336,-0.4236,-0.4334,-0.4435,-0.4535,-0.4598,-0.4466,-0.4354,-0.4146,-0.3932,-0.3728,-0.3625,-0.3627,-0.3958,-0.4189,-0.4412,-0.4529,-0.4628,-0.4429,-0.4131,-0.3828,-0.3325,-0.1913,-0.0403,0.0805,0.2014,0.3124,-0.1316,-0.1055,-0.0713,-0.0703,-0.1004,-0.1001,-0.0904,-0.0808,-0.0705,-0.0504,0.0,0.0,0.0,0.0707,0.1313,0.1837,0.2459,0.2954,0.3209,0.3358,0.336,0.3412,0.3466,0.3508,0.3541,0.3453,0.3137,0.258,0.1907,0.1458,0.0897,0.0224,0.0,0.0,0.0,0.0,0.0,0.0,0.0,0.0,-0.1295,-0.2155,-0.2438,-0.3173,-0.4037,-0.4902,-0.5049,-0.5032,-0.5045,-0.5022,-0.4951,-0.48,-0.4657,-0.4754,-0.4485,-0.4198,-0.422,-0.4164,-0.3996,-0.4216,-0.4294,-0.4577,-0.4884,-0.4844,-0.447,-0.4431,-0.4503,-0.4597,-0.4724,-0.472,-0.4688,-0.468,-0.4616,-0.4537,-0.4736,-0.4933,-0.4933,-0.4931,-0.5129,-0.5527,-0.5499,-0.5464,-0.5253,-0.5042,-0.4967,-0.4718,-0.4533,-0.4535,-0.4435,-0.4135,-0.3934,-0.4135,-0.4236,-0.4193,-0.425,-0.4239,-0.4048,-0.3829,-0.363,-0.3525,-0.3532,-0.3876,-0.4209,-0.4422,-0.4636,-0.4636,-0.4634,-0.4331,-0.4029,-0.3527,-0.1813,-0.0101,0.0906,0.2215,0.3627,-0.0541,-0.0204,0.0498,0.0494,0.0098,0.0097,0.0,-0.01,0.0,-0.01,0.0,0.0,0.0101,0.0,0.1211,0.1723,0.2032,0.2731,0.3172,0.3324,0.3379,0.3437,0.3491,0.3534,0.3568,0.3471,0.3363,0.3027,0.2356,0.1907,0.1346,0.0673,0.0112,0.0,0.0,-0.0336,-0.0671,-0.0553,-0.0654,-0.1076,-0.0969,-0.1707,-0.2406,-0.323,-0.4067,-0.4484,-0.4796,-0.496,-0.513,-0.5147,-0.509,-0.5004,-0.4953,-0.4906,-0.4728,-0.4688,-0.4711,-0.465,-0.4594,-0.4505,-0.4686,-0.4495,-0.4688,-0.4675,-0.4418,-0.4491,-0.4461,-0.4435,-0.4547,-0.4638,-0.4614,-0.4712,-0.4734,-0.4736,-0.4834,-0.5336,-0.5534,-0.5233,-0.5133,-0.5334,-0.5325,-0.5012,-0.461,-0.4602,-0.4802,-0.4533,-0.4334,-0.4234,-0.4236,-0.3934,-0.3732,-0.3835,-0.3935,-0.3934,-0.4014,-0.4185,-0.4077,-0.3851,-0.3636,-0.3643,-0.3663,-0.3906,-0.4133,-0.4334,-0.4435,-0.4437,-0.4334,-0.413,-0.3726,-0.2922,-0.131,0.0202,0.1208,0.2415,0.3828]}]]